GEFSSGP_500_meanwind_000.txt.gz
Wind_Speed
11 15 12 12 6 7 12 10 6 8 8 7 5 6 8 9 7 5 7 4 4 3 4 5 7 8 9 11 11 9 10 12 14 16 18 18 17 16 16 18 21 20 18 17 14 13 14 14 13
8 9 6 7 7 11 10 8 7 6 6 6 5 5 6 10 8 7 7 6 7 7 7 7 7 7 7 8 9 7 7 9 12 14 16 16 16 14 15 18 19 19 18 19 18 16 15 15 15
8 7 4 5 8 9 5 7 6 5 2 2 1 2 5 7 6 5 6 6 8 8 9 9 9 8 7 7 8 7 7 8 10 12 12 14 14 14 14 16 18 18 17 19 20 19 17 16 15
10 12 6 9 8 6 1 5 8 8 6 3 2 2 2 4 5 5 4 6 7 8 8 9 10 9 9 8 9 10 11 12 12 11 11 12 13 14 14 15 17 16 16 17 18 18 19 18 16
9 10 1 3 4 8 9 7 6 9 8 6 5 5 4 3 5 6 6 5 6 7 8 8 9 10 11 11 12 13 14 14 13 12 12 13 13 14 15 16 17 16 16 17 18 18 18 17 16
11 5 1 1 1 5 12 13 10 6 7 12 11 8 6 4 4 6 8 6 6 8 8 8 9 10 11 11 11 12 13 14 14 14 14 13 13 12 13 14 15 16 15 16 17 18 17 15 14
13 8 5 5 5 7 13 14 12 8 8 11 12 12 9 5 4 5 8 9 7 8 9 9 10 10 9 8 8 8 9 9 10 11 10 10 11 12 12 13 14 16 15 15 16 17 17 17 15
18 13 10 11 11 10 8 13 15 11 9 11 13 11 9 6 5 4 5 9 9 9 10 10 10 10 8 7 7 6 6 7 8 9 10 11 11 11 12 12 13 15 15 15 15 14 15 16 17
22 19 16 16 16 11 8 13 13 13 16 16 13 8 9 3 4 6 6 8 9 9 11 10 11 11 12 11 11 12 12 13 13 13 15 14 13 14 14 13 14 14 14 14 15 14 14 15 16
22 24 24 24 21 17 10 7 11 18 23 21 11 13 9 8 8 9 10 11 14 12 13 15 15 15 16 17 19 19 20 20 20 20 20 20 18 18 20 19 19 19 18 18 18 17 16 17 18
21 25 28 27 21 14 9 11 15 22 27 26 23 19 14 18 17 14 13 12 16 19 20 21 22 22 22 22 23 24 24 23 23 25 25 26 25 24 25 25 25 25 24 23 20 19 18 19 21
22 26 27 25 21 11 11 13 16 25 29 31 31 27 20 19 19 21 22 20 20 22 24 25 25 26 27 26 27 28 29 28 29 29 29 29 28 27 27 28 29 30 31 30 28 24 21 22 23
26 28 27 25 22 17 15 16 18 28 36 38 38 34 27 22 20 22 24 26 26 26 26 27 30 32 33 32 32 32 33 35 37 36 35 35 35 33 31 31 32 33 34 33 33 31 27 27 27
30 29 27 25 24 24 26 27 28 32 38 39 40 40 39 34 29 27 27 29 31 29 30 30 33 35 37 37 37 37 38 39 39 39 39 39 39 37 36 35 34 34 34 34 33 34 34 34 32
33 32 30 28 29 29 33 32 33 36 36 37 37 36 35 36 37 38 36 33 32 32 33 36 38 38 39 41 42 42 42 41 41 41 41 40 38 37 37 37 38 37 36 36 35 36 36 37 37
32 32 32 31 32 32 35 33 34 32 32 31 32 33 34 38 40 42 40 37 34 32 34 36 38 41 42 43 43 44 43 42 44 43 40 38 37 36 35 37 38 37 38 37 38 39 38 40 41
30 28 28 27 30 30 31 28 29 25 26 26 29 31 34 36 34 37 37 37 34 31 33 36 37 38 37 38 39 40 41 41 41 40 39 40 38 37 37 38 38 39 40 42 43 42 41 40 43
25 21 18 20 20 21 20 20 22 26 28 29 31 33 32 28 24 31 36 38 38 35 34 35 35 36 37 37 39 40 41 41 39 39 40 41 42 41 40 41 43 43 42 43 44 43 42 43 45
14 14 13 15 15 15 17 20 23 27 31 32 34 33 29 29 25 29 32 33 36 38 38 37 35 34 36 37 39 40 41 42 42 41 41 42 43 42 41 40 40 41 41 41 42 43 43 44 45
13 18 21 22 21 22 26 27 29 32 34 34 35 32 29 27 27 29 32 39 40 36 36 36 36 34 35 36 37 37 37 38 39 39 40 39 39 40 40 41 41 42 41 40 41 42 42 42 42
16 20 24 29 26 26 28 29 32 32 33 35 34 31 28 28 27 29 37 41 36 32 33 33 33 33 35 37 37 36 35 34 34 35 35 35 35 35 36 38 40 41 41 41 42 42 43 43 42
21 23 22 25 30 32 32 33 34 35 36 32 30 28 26 28 29 34 37 36 34 35 38 38 38 36 35 36 37 37 37 37 37 36 36 37 37 37 36 37 39 40 42 44 44 44 45 45 44
19 19 21 21 23 30 35 39 34 32 29 25 25 25 26 25 29 32 32 31 32 36 38 40 44 44 42 40 39 39 40 40 40 40 39 38 38 39 39 40 41 43 45 45 45 46 47 47 46
9 7 10 14 17 21 23 26 22 22 20 22 23 24 28 29 33 34 35 34 31 31 31 32 36 39 41 43 43 42 42 42 42 41 40 40 40 40 40 40 41 43 44 44 45 47 48 47 46
9 7 4 6 11 16 16 17 17 18 18 20 24 28 32 33 35 37 33 30 28 29 31 32 34 36 38 41 43 44 44 44 45 44 43 42 41 41 40 41 42 42 43 43 42 43 44 44 46
11 9 8 7 9 13 16 18 17 19 23 26 29 30 30 31 30 31 32 33 33 34 35 35 34 33 34 37 39 41 43 44 44 45 46 45 44 43 43 42 43 42 42 41 41 41 42 44 48
10 9 8 9 9 9 17 21 19 21 23 25 26 26 25 25 28 32 34 34 34 36 38 38 35 35 35 36 37 39 40 42 43 44 45 45 45 45 45 44 42 42 41 40 41 39 35 36 39
8 9 12 11 11 12 14 18 22 22 24 24 25 26 28 29 30 31 31 31 32 34 35 36 35 35 36 37 37 37 38 39 39 40 41 42 41 41 42 42 42 42 41 40 37 31 29 29 28
8 9 10 12 14 15 12 10 15 20 24 26 27 28 29 31 32 33 34 34 34 34 37 37 37 39 39 38 37 37 37 36 37 37 37 38 39 39 40 41 42 42 38 32 27 25 24 22 20
12 14 16 16 19 23 22 12 18 24 27 30 31 33 35 37 39 39 39 39 37 35 36 37 36 38 40 39 37 38 37 35 33 33 34 34 33 34 37 37 37 35 32 30 26 19 20 21 20

GEFSSGP_500_meanwind_006.txt.gz
Wind_Speed
3 3 3 3 3 4 7 8 6 6 9 10 9 8 9 8 7 7 7 6 6 7 7 6 6 7 7 8 8 9 11 12 12 12 12 12 11 12 14 15 15 15 16 16 15 14 14 14 13
4 4 2 2 2 4 5 6 7 8 9 9 8 7 8 8 8 8 7 6 5 6 6 6 6 7 6 6 7 8 9 10 10 9 9 9 9 9 10 11 12 12 13 13 14 14 13 11 11
6 7 6 4 2 1 4 5 6 7 7 9 10 9 8 8 9 8 7 7 6 5 4 4 4 5 5 5 5 6 7 7 7 6 6 6 6 6 7 9 10 10 11 12 12 12 11 10 9
7 8 7 6 4 3 2 3 4 4 5 6 7 9 10 9 9 8 9 9 8 7 6 5 4 4 4 5 5 6 5 4 4 3 3 3 3 4 5 6 7 8 9 11 12 12 11 9 7
9 9 9 8 6 5 4 1 2 3 5 6 7 8 9 9 10 10 10 11 10 9 8 7 6 6 5 5 5 5 4 4 4 4 4 4 4 4 5 6 7 9 10 11 11 11 11 10 8
14 14 13 12 12 9 6 3 3 3 6 9 8 7 7 8 9 9 10 10 11 11 11 10 8 8 7 5 4 4 4 3 4 4 4 4 5 6 7 9 10 12 14 15 14 12 11 11 10
17 18 17 16 15 14 11 7 3 1 5 7 7 5 4 4 6 6 7 7 9 10 10 10 9 8 7 6 5 5 5 5 5 6 7 9 11 12 12 13 14 15 16 16 15 13 11 10 10
20 20 20 19 18 17 15 10 5 4 6 7 8 6 3 4 6 7 8 8 8 8 8 8 9 9 9 8 7 7 9 10 11 11 12 13 15 16 18 19 19 18 18 18 19 17 15 13 11
24 23 21 20 18 17 14 11 8 5 5 7 7 5 5 8 11 12 12 13 13 11 11 10 11 11 12 13 13 14 15 16 17 17 16 17 18 19 21 22 22 22 21 22 23 23 20 17 16
27 27 24 22 20 18 16 15 12 7 7 6 4 3 7 11 16 18 18 19 19 18 17 16 16 16 17 18 19 20 21 22 22 22 23 22 22 23 24 26 26 26 25 25 25 25 23 22 21
27 30 28 25 22 21 21 20 15 11 10 10 10 10 13 15 19 21 23 24 25 24 23 23 22 22 23 23 25 26 27 27 28 28 28 28 29 29 29 30 30 30 30 29 28 27 27 27 27
23 31 31 27 24 24 24 22 19 16 14 15 16 17 20 23 25 26 28 29 30 29 29 28 28 28 28 29 29 30 31 32 33 32 32 33 34 34 34 33 33 33 33 33 32 32 32 31 31
22 26 29 27 26 27 27 25 23 22 20 20 22 24 27 29 31 32 31 30 30 31 31 32 33 34 35 35 35 35 35 35 36 36 36 37 38 38 38 36 35 35 36 37 37 36 36 35 34
27 25 25 25 26 27 28 29 28 26 26 27 29 31 33 34 34 33 29 27 29 30 31 32 33 35 37 38 39 40 41 40 39 39 40 41 42 42 42 40 38 37 38 40 40 39 39 39 37
31 29 27 27 29 30 32 32 31 31 32 33 34 36 37 35 33 30 27 27 28 28 28 28 29 30 33 35 36 38 39 40 40 41 42 43 42 43 44 42 39 38 39 40 40 40 40 41 40
34 33 32 33 34 34 35 34 33 35 36 36 36 36 36 32 29 28 28 29 29 28 28 27 28 28 30 32 34 35 35 36 37 38 39 39 40 40 39 39 38 39 40 40 41 40 39 39 39
37 37 37 37 38 38 38 36 35 36 37 36 36 34 31 27 26 27 30 31 30 28 27 25 25 27 28 29 31 33 34 35 37 39 38 38 39 40 40 39 38 38 39 40 42 42 42 43 43
33 36 38 39 39 39 38 37 35 34 34 33 33 30 25 24 27 30 33 32 29 26 25 24 26 28 28 26 26 27 29 32 34 37 38 39 40 40 40 39 39 39 40 41 42 43 44 45 44
29 32 33 35 36 37 35 35 34 31 31 30 29 27 25 27 30 32 31 29 27 26 27 28 29 29 26 26 26 27 28 29 30 32 34 35 37 37 37 36 35 36 37 38 40 42 43 44 44
28 30 30 32 32 32 32 32 32 29 27 28 28 29 29 31 32 32 29 27 27 28 30 31 31 29 28 28 29 29 30 31 33 34 35 35 35 35 36 35 34 34 35 35 36 38 39 41 41
25 28 30 31 31 30 31 31 31 29 29 30 30 31 32 33 35 33 29 27 28 32 34 32 30 29 29 28 28 29 30 31 32 33 34 36 37 37 38 38 37 37 37 35 34 34 35 37 38
20 23 25 27 28 30 31 32 32 33 33 34 34 34 34 36 35 32 29 28 30 32 31 29 29 30 31 30 29 28 28 29 30 31 32 34 37 39 40 40 40 39 39 37 36 35 35 35 36
18 19 21 23 25 28 32 36 37 37 38 38 38 37 36 32 28 26 27 28 29 29 28 28 28 29 27 24 22 22 24 26 29 31 33 34 36 37 39 41 42 42 41 39 38 37 36 35 35
12 13 16 17 18 20 24 29 32 33 35 36 34 31 28 27 25 26 27 26 26 27 27 27 26 23 20 18 18 21 23 25 28 30 32 35 36 37 37 39 41 42 42 42 40 39 38 36 36
11 13 15 15 15 16 18 19 19 20 22 23 23 24 25 27 27 26 23 23 25 27 26 24 22 21 20 22 24 25 27 28 29 30 33 35 36 36 37 38 39 40 40 41 42 42 41 38 38
11 12 14 15 15 15 16 15 15 16 18 20 22 24 25 25 22 21 21 23 25 25 23 22 22 23 24 26 28 30 31 32 32 33 34 36 37 37 37 37 38 39 39 40 41 42 42 41 40
11 11 12 14 15 16 15 14 14 16 18 21 25 26 25 22 20 21 22 25 26 26 26 26 27 28 29 30 32 34 35 34 34 34 34 36 37 38 38 37 36 36 37 37 38 39 40 41 41
10 11 13 17 19 18 16 15 16 17 19 22 24 24 23 23 24 26 27 29 30 32 32 32 33 33 32 33 34 36 38 38 37 36 36 35 37 39 40 38 35 34 34 33 33 34 35 37 38
14 15 16 18 20 23 21 19 22 23 25 27 28 29 31 31 32 33 35 37 38 39 40 40 40 38 35 34 35 38 40 42 40 39 38 37 38 40 40 38 34 33 32 31 30 30 31 33 34
18 20 22 24 25 26 28 27 25 26 27 30 33 35 37 38 39 40 43 44 46 47 48 49 49 48 44 40 40 41 41 42 43 41 39 38 38 39 40 37 34 31 29 28 27 27 28 29 30

GEFSSGP_500_meanwind_012.txt.gz
Wind_Speed
6 7 7 8 8 9 7 6 6 8 9 9 9 9 9 8 7 6 4 3 2 1 2 3 3 2 1 1 2 2 3 4 5 4 3 3 3 5 5 5 6 7 7 8 8 7 7 7 7
5 5 5 6 8 7 5 4 4 5 7 7 7 7 7 7 7 7 5 4 2 1 1 1 1 1 2 3 4 5 6 6 6 6 5 5 4 4 5 5 5 5 6 8 9 8 6 5 4
3 2 2 2 4 3 3 3 3 2 2 3 3 4 4 5 6 5 4 4 4 3 3 2 1 3 4 5 6 7 7 7 6 6 6 6 6 6 6 7 6 6 6 9 12 12 9 6 4
4 3 2 1 1 1 2 3 4 4 3 2 1 1 1 2 2 2 2 2 2 3 3 3 3 5 6 6 7 7 7 7 6 6 7 7 7 7 8 8 8 8 8 11 13 13 11 8 6
7 5 3 3 4 2 2 4 5 5 4 3 2 1 0 0 1 1 1 2 3 3 3 3 3 4 4 5 6 7 7 7 7 7 7 8 9 9 10 10 11 12 12 13 13 12 10 8 7
11 8 6 6 6 4 1 3 6 7 5 4 2 2 1 0 1 1 2 2 2 3 3 3 3 3 5 6 6 7 8 8 8 8 8 9 11 12 13 13 14 15 15 15 13 12 11 9 8
15 12 10 10 9 7 5 6 9 9 8 5 3 1 2 0 1 1 2 3 4 6 6 7 7 8 8 9 9 9 9 10 10 10 11 12 13 15 15 16 16 17 17 16 15 14 13 12 11
18 15 14 14 13 12 9 7 8 8 7 5 4 2 3 2 3 4 6 7 9 11 12 13 14 15 16 16 16 15 14 14 15 15 15 16 18 18 19 19 19 19 19 19 18 18 17 16 15
21 19 18 19 18 16 11 7 5 5 6 6 5 5 6 7 7 9 11 13 15 16 18 20 20 21 22 23 23 22 21 21 22 22 22 22 23 23 23 23 23 23 23 23 23 22 21 20 20
24 23 24 22 20 18 14 10 9 6 7 9 9 9 11 12 13 15 17 19 21 22 23 25 26 27 27 27 28 29 29 28 28 28 28 28 28 27 27 27 27 27 28 28 28 28 26 26 25
25 28 28 25 24 21 19 15 13 11 11 13 14 15 16 18 19 21 23 24 25 27 28 29 30 31 32 32 32 32 33 33 33 33 33 33 32 32 31 31 31 32 33 33 33 33 32 31 31
24 28 30 29 27 25 23 19 16 16 16 16 17 19 20 22 24 26 28 29 30 32 33 33 33 33 34 35 36 37 37 38 38 38 38 38 37 37 36 36 36 36 37 37 38 38 38 37 36
25 26 28 29 29 28 26 24 22 21 20 20 21 23 24 26 29 30 32 33 34 35 36 36 35 34 35 36 37 37 37 37 38 38 39 39 40 40 40 40 39 39 40 41 42 42 42 41 40
28 26 25 26 28 29 29 28 26 25 25 24 25 27 28 31 33 34 35 36 37 37 36 35 34 34 34 34 34 34 34 34 34 35 36 37 37 37 37 38 38 39 39 40 40 40 41 41 41
31 29 27 27 27 28 29 29 29 29 28 28 28 30 32 35 37 37 37 38 38 37 35 33 32 32 32 32 32 33 33 34 34 35 35 34 34 34 34 34 34 34 35 35 34 34 35 35 37
33 32 30 32 30 30 29 29 33 31 31 31 32 33 35 38 39 39 39 38 37 34 32 32 32 33 32 31 31 31 31 31 32 32 32 31 31 31 31 32 32 33 35 35 36 36 36 35 36
31 33 34 36 35 34 33 34 38 34 35 35 35 36 37 38 39 38 37 35 32 30 31 32 33 33 32 31 30 28 28 28 28 28 28 28 29 29 29 30 31 32 33 35 36 37 37 37 38
28 31 34 36 38 37 38 40 41 40 39 39 38 37 36 36 36 35 34 33 31 30 31 33 33 32 31 31 30 29 27 26 25 25 25 25 25 25 26 28 30 32 33 35 36 37 38 38 38
25 28 29 35 38 39 41 42 43 43 41 39 36 34 33 33 33 33 34 35 33 33 34 33 32 31 31 31 29 27 24 22 21 20 19 18 18 19 21 23 26 29 32 35 37 38 38 38 38
17 20 22 29 34 36 37 38 38 37 35 32 30 30 31 32 32 34 35 35 36 36 36 34 33 31 30 29 26 23 19 17 16 15 13 12 13 14 16 18 21 24 28 32 35 38 39 40 40
9 12 16 20 24 24 27 27 29 30 29 28 27 28 29 30 32 34 36 38 38 38 37 35 33 32 30 27 23 19 15 13 12 12 12 13 13 14 16 18 20 22 25 28 32 36 38 40 41
9 13 14 15 17 16 21 21 20 26 25 26 27 28 30 32 34 37 38 40 40 39 36 34 34 33 30 26 23 19 16 15 15 16 17 17 17 17 18 20 21 23 26 29 31 34 37 38 40
11 13 13 14 15 15 17 18 15 22 23 24 27 30 32 35 38 39 39 39 38 37 36 35 35 34 30 27 24 22 20 21 21 22 22 22 21 19 19 21 22 24 26 29 31 33 35 37 38
11 12 12 12 13 13 15 14 13 18 19 19 21 25 28 32 35 36 36 35 35 34 34 35 35 33 30 28 27 26 25 26 27 27 27 26 23 21 21 22 24 25 27 30 32 32 32 34 36
13 13 11 10 10 12 16 13 16 17 18 18 20 22 24 26 28 31 32 33 32 32 34 34 34 32 31 30 30 30 29 29 30 30 29 27 26 24 23 24 25 27 28 30 32 32 32 32 32
11 11 10 10 11 12 15 15 18 19 19 19 20 22 24 26 27 30 32 32 33 33 34 35 35 35 34 34 33 33 33 32 31 31 30 29 28 26 25 25 26 27 28 29 32 33 32 31 30
7 8 10 12 12 13 12 16 21 21 22 22 22 24 26 28 30 32 33 35 36 36 37 38 39 39 39 39 38 37 36 35 34 33 33 32 31 29 27 26 27 27 27 29 31 33 33 31 29
9 10 11 12 14 14 15 17 21 21 23 24 26 29 31 34 36 37 38 39 40 42 43 44 45 46 46 46 45 43 42 40 39 38 37 36 35 32 30 28 27 27 27 28 30 32 33 31 28
13 14 15 16 18 19 19 22 23 24 26 28 31 33 36 39 41 42 43 44 46 47 48 49 50 51 51 51 51 50 48 46 44 43 41 40 38 35 32 30 28 28 28 28 30 32 33 32 29
17 18 20 21 23 25 26 30 27 28 30 32 34 36 38 40 43 45 47 49 50 51 52 53 54 55 56 56 56 56 55 52 50 48 45 43 41 38 34 32 31 31 30 30 31 32 33 32 30

GEFSSGP_500_meanwind_018.txt.gz
Wind_Speed
10 11 11 10 9 12 6 2 4 4 2 1 2 3 2 0 1 1 1 1 1 1 1 1 3 3 3 4 6 8 10 12 12 12 12 11 10 9 9 9 9 9 9 10 11 12 12 11 9
9 9 9 8 8 10 3 4 4 4 3 2 2 3 2 2 2 3 3 3 2 1 1 2 3 4 4 6 8 10 11 12 12 12 11 12 11 11 10 10 9 9 9 10 12 13 12 10 9
6 5 6 4 9 3 2 5 5 5 5 5 6 5 4 4 4 4 4 4 3 2 2 3 4 5 5 6 8 10 11 11 12 12 11 12 12 11 11 10 10 10 10 11 13 14 13 10 9
4 4 5 9 9 6 6 8 6 5 5 7 8 7 8 7 7 6 5 4 3 3 4 5 6 6 7 7 9 10 11 12 12 12 12 12 12 12 12 12 11 12 12 13 13 13 12 11 9
4 5 5 8 6 6 11 11 8 8 9 9 10 9 9 9 8 8 6 5 4 4 4 5 6 6 7 8 9 11 13 14 14 14 14 14 14 14 14 14 14 14 14 14 13 13 12 11 10
5 6 6 5 11 5 9 11 9 9 9 9 11 9 10 8 8 7 5 4 2 3 4 5 7 8 10 11 13 14 15 16 17 17 17 17 17 17 18 18 18 18 17 17 15 14 13 13 12
9 8 5 1 13 8 8 10 9 10 11 9 8 10 10 9 7 6 5 3 3 4 6 7 9 11 12 14 15 17 18 19 19 19 19 19 20 21 21 22 21 21 21 20 19 18 17 16 16
13 10 6 1 12 16 15 9 9 14 17 12 11 13 10 9 8 6 6 6 7 8 10 12 14 15 17 18 19 20 21 22 22 23 23 23 24 24 25 26 26 25 25 24 23 22 21 21 21
14 13 6 4 13 15 16 11 9 11 16 18 17 18 12 10 10 9 9 11 13 14 15 17 18 20 21 23 23 23 24 24 26 27 28 28 28 29 30 30 30 30 30 30 29 28 27 26 26
17 16 8 11 15 14 14 13 13 12 14 19 21 18 10 12 13 14 15 16 17 19 20 21 21 24 25 25 26 27 27 27 27 28 29 31 32 32 33 33 34 34 34 34 34 33 32 31 31
19 20 18 19 21 23 22 16 13 11 17 25 29 22 12 13 17 19 19 20 21 23 25 26 27 28 29 29 28 29 30 29 29 30 30 31 32 33 34 34 35 36 36 36 36 37 36 36 35
23 24 26 27 26 24 23 20 15 12 21 30 34 28 15 16 22 24 24 23 23 25 27 29 31 32 32 32 32 32 31 31 30 30 30 30 30 31 32 33 34 35 36 36 37 37 38 38 38
25 25 28 29 29 28 26 25 22 18 21 28 30 27 20 22 27 29 29 28 28 28 31 32 34 34 35 34 33 33 32 31 31 30 30 30 30 30 30 30 31 32 33 35 35 36 37 37 37
25 27 29 29 27 26 26 25 24 21 21 29 32 31 30 32 31 31 32 32 32 33 34 36 36 36 36 35 33 32 31 31 32 32 31 31 30 30 29 29 29 29 29 29 29 29 29 30 30
25 27 28 27 26 24 24 25 24 20 20 30 33 33 34 34 33 35 35 35 37 38 38 39 39 37 36 34 32 32 32 33 32 32 31 31 30 30 29 28 27 27 27 26 26 26 27 28 29
22 23 25 24 23 22 25 28 22 17 22 31 34 36 37 34 36 39 40 41 43 42 42 41 40 36 34 33 33 34 34 33 32 32 32 31 31 30 28 27 26 25 24 25 25 26 27 27 28
12 17 17 16 16 20 25 26 21 19 26 30 34 38 39 37 39 43 45 46 49 46 43 40 39 36 35 34 34 34 34 33 32 32 32 31 30 28 27 26 24 22 22 22 22 23 24 25 26
10 10 11 11 12 20 22 20 18 24 31 34 38 41 43 42 42 46 49 49 49 47 42 38 37 37 36 34 34 34 34 32 31 30 30 29 28 26 24 23 21 20 19 18 18 18 19 21 23
16 14 14 13 16 21 25 23 22 27 32 36 40 42 43 43 46 49 51 50 47 44 40 38 37 37 37 35 35 35 33 31 30 30 29 28 26 24 21 19 17 16 15 15 15 16 17 19 22
5 8 10 14 19 23 26 28 25 26 30 36 37 37 38 41 43 46 48 47 43 42 39 38 37 36 36 36 36 35 33 31 30 29 27 26 23 20 18 17 16 15 15 16 16 16 17 20 22
7 10 13 15 17 19 20 20 17 19 24 30 32 33 34 38 40 42 42 37 34 32 31 34 35 36 36 36 36 34 32 31 29 27 25 23 21 19 18 19 19 19 19 18 18 17 18 19 22
9 13 15 17 18 17 15 15 15 18 22 28 31 33 35 36 38 40 34 27 26 23 22 26 31 34 36 36 35 33 31 29 28 25 23 22 21 21 21 22 22 22 22 21 20 20 20 21 22
11 12 13 11 11 10 10 11 15 20 24 28 29 32 37 38 40 39 37 33 30 33 33 30 32 34 35 35 34 32 30 28 27 25 24 23 23 23 24 25 25 24 24 24 23 23 23 23 24
10 8 6 11 14 18 20 14 16 20 24 28 30 33 35 36 36 36 37 37 35 37 36 37 36 35 34 34 32 31 29 28 27 27 27 27 27 27 27 28 28 28 27 27 26 25 26 26 26
9 8 8 12 21 23 16 7 17 20 22 25 28 30 33 35 36 36 36 36 37 38 39 39 38 36 35 35 35 34 31 30 29 30 30 31 32 32 31 31 31 31 31 29 29 28 28 28 28
8 7 9 13 15 18 19 19 23 25 26 26 28 31 34 37 39 40 40 41 41 42 43 43 42 41 41 40 40 40 38 36 35 35 34 35 36 36 36 35 34 34 34 33 32 31 31 30 29
10 9 10 14 13 13 18 28 30 29 27 27 29 35 39 40 42 43 44 46 47 48 48 49 49 49 48 48 47 47 46 45 44 43 42 41 40 40 40 39 39 39 38 38 36 34 33 32 31
15 15 15 16 16 17 17 29 33 33 34 35 37 39 41 43 45 46 48 50 51 53 54 54 55 56 56 56 55 55 54 53 53 52 51 50 48 47 45 43 43 42 41 41 39 37 35 34 33
16 17 19 19 19 21 22 29 32 34 37 39 40 42 44 45 47 49 52 54 55 56 58 59 59 60 61 61 61 61 61 61 61 60 59 58 56 54 52 49 47 44 43 43 41 39 38 36 35
16 20 23 25 24 23 24 31 31 34 37 40 43 46 48 49 51 53 55 57 58 60 61 62 63 64 64 65 65 66 66 66 66 65 65 64 63 61 57 54 52 50 47 45 44 42 40 39 37

GEFSSGP_500_meanwind_024.txt.gz
Wind_Speed
10 9 8 6 4 1 1 5 4 3 5 7 8 8 7 5 2 4 3 5 6 5 5 5 5 5 5 5 5 5 6 7 8 8 7 7 7 8 8 8 9 10 11 13 14 15 14 11 8
9 8 6 5 3 2 2 5 5 4 4 5 7 8 7 6 5 4 4 5 6 6 6 6 6 6 7 7 7 6 6 6 6 6 6 7 7 7 7 8 9 10 11 13 14 14 14 12 9
8 6 4 2 2 2 3 4 6 7 5 5 6 6 5 6 6 6 6 7 7 7 7 7 7 7 8 8 8 7 7 6 6 7 7 7 7 7 7 8 9 10 12 12 13 13 13 12 10
8 6 4 4 4 2 5 6 6 8 8 8 8 6 5 5 7 7 7 9 9 9 9 9 9 9 9 9 8 8 8 8 9 9 10 10 10 10 10 10 10 11 12 12 12 12 12 11 11
9 7 5 7 9 7 8 11 9 8 9 10 9 8 5 5 7 7 8 9 9 9 9 9 9 9 9 9 9 10 10 11 12 13 13 13 13 13 13 13 13 13 13 13 13 13 12 12 12
11 9 7 8 10 9 11 15 15 11 10 10 9 7 5 4 6 8 8 9 9 9 9 9 9 10 10 11 12 12 13 14 15 16 16 16 16 17 17 17 16 16 16 16 16 15 15 15 14
14 12 9 8 9 8 12 17 19 17 14 12 10 8 6 5 6 8 9 9 9 10 10 11 11 12 13 14 15 16 17 17 18 19 19 19 19 19 20 20 20 20 20 19 19 19 19 19 19
16 16 12 11 11 7 10 15 18 19 17 14 14 13 12 10 9 9 11 12 12 13 14 15 16 17 18 18 18 19 19 20 20 20 21 21 21 22 22 23 23 23 23 23 23 23 23 23 23
18 18 17 16 16 12 10 13 16 18 18 16 15 16 16 15 12 11 12 14 15 16 18 20 22 22 22 21 21 20 20 21 21 21 21 22 22 23 24 25 25 26 26 26 26 27 27 27 27
19 19 21 23 23 19 15 15 17 19 19 18 19 20 20 19 16 13 13 16 21 22 23 24 26 25 24 23 22 21 21 22 21 21 21 21 22 22 23 24 26 27 27 27 28 28 28 29 29
20 20 24 28 27 25 23 20 21 22 22 21 22 23 24 24 21 20 19 21 26 28 28 28 28 27 26 24 23 23 23 23 22 21 21 21 20 21 22 22 24 25 26 27 28 28 29 29 30
21 20 25 30 31 30 28 25 23 25 27 27 27 28 28 28 27 27 28 27 28 32 33 31 30 28 27 25 24 25 25 24 22 21 20 20 20 21 21 22 21 22 24 25 26 27 28 29 30
20 20 23 27 30 31 30 28 27 27 29 31 32 32 33 33 33 32 33 31 33 35 35 35 33 30 29 27 26 25 25 25 23 21 21 22 22 23 22 22 21 22 23 24 25 25 25 25 25
21 21 20 22 26 29 31 31 30 28 30 31 32 33 34 35 36 37 37 38 38 39 39 37 36 33 32 29 28 27 26 24 23 22 23 23 24 24 23 23 22 22 22 23 24 24 25 25 23
21 21 19 20 22 24 28 29 27 25 27 28 30 31 33 36 38 39 40 41 42 44 44 43 39 37 36 34 30 27 25 24 24 23 23 23 24 25 24 23 23 23 23 23 24 24 23 22 21
21 20 18 16 16 17 23 23 19 22 24 26 29 31 35 37 39 41 42 43 47 47 46 44 41 38 35 35 32 27 25 24 24 23 22 23 24 24 24 23 22 23 23 23 23 22 21 20 18
19 17 14 12 11 12 15 13 14 19 22 26 29 33 36 39 41 44 46 47 50 49 49 51 40 31 30 33 30 26 25 25 24 22 23 24 24 24 24 23 22 22 22 21 21 20 19 16 14
15 14 11 11 11 11 13 15 19 23 26 29 31 34 37 41 43 45 46 49 49 51 55 53 41 30 24 27 27 26 25 23 22 22 23 24 24 24 24 23 22 20 19 18 18 17 16 14 12
11 13 14 14 13 12 14 19 23 26 28 31 35 38 40 42 43 44 46 47 49 49 49 46 43 34 21 17 21 24 24 23 22 22 23 24 24 23 23 23 21 19 18 16 16 15 15 14 13
11 15 18 20 20 19 21 23 27 29 31 33 35 38 40 42 43 43 43 45 45 44 42 40 36 28 20 19 18 20 21 21 23 23 24 24 24 24 23 22 20 19 18 17 16 17 17 16 15
11 14 16 19 24 26 27 29 31 33 34 34 34 34 34 35 37 39 40 41 41 41 41 38 33 28 22 21 20 21 21 22 23 23 23 23 23 23 23 22 21 20 20 19 19 19 19 19 17
9 12 15 14 17 20 23 28 31 32 34 35 33 32 31 32 35 37 38 39 40 40 39 37 33 29 26 22 20 21 20 21 22 22 22 23 23 23 23 23 23 23 23 22 22 21 21 21 21
8 9 11 12 12 13 15 19 21 25 28 31 31 30 30 31 33 36 38 40 41 42 40 38 35 31 29 28 26 24 24 23 23 23 24 24 25 25 25 26 26 26 26 26 25 24 23 24 24
9 9 8 8 9 10 13 15 18 22 22 23 25 26 28 30 34 37 40 42 44 45 44 41 39 36 35 34 33 32 31 30 29 29 29 29 28 28 28 29 30 30 30 29 28 27 26 26 27
8 8 7 6 9 12 16 19 21 23 22 21 21 22 25 29 33 38 41 44 46 47 47 46 45 43 42 40 39 39 38 38 37 37 36 35 34 33 33 33 33 33 33 34 33 31 30 30 29
8 10 11 12 15 18 20 21 23 26 26 27 28 30 32 35 39 42 45 47 48 49 49 48 47 47 46 46 46 45 44 44 44 43 43 43 42 41 39 38 36 36 37 37 38 36 35 34 33
12 13 15 16 18 20 22 22 24 26 29 31 33 35 38 42 45 48 50 52 53 54 54 53 52 51 50 50 51 51 51 50 50 49 49 48 48 47 47 46 44 42 41 42 42 41 40 38 37
16 17 18 19 20 22 24 26 29 30 33 35 37 40 43 47 50 53 56 58 59 61 61 61 60 59 57 55 55 55 55 55 55 54 54 53 53 53 52 53 52 50 48 47 46 45 44 42 41
15 17 18 19 22 24 28 30 32 35 37 39 42 45 47 50 53 55 58 60 63 65 66 68 68 68 66 65 63 62 61 60 60 59 59 58 58 57 57 57 58 57 56 54 52 50 48 47 45
18 18 18 20 22 25 29 33 36 39 41 43 46 48 51 53 56 58 60 62 65 68 70 72 74 75 75 74 72 70 68 66 64 63 63 63 63 63 62 62 62 62 61 60 58 56 53 51 49

GEFSSGP_500_meanwind_030.txt.gz
Wind_Speed
5 5 5 4 3 2 3 5 7 8 8 7 6 5 4 4 5 7 8 9 10 10 11 12 12 12 12 11 10 9 8 6 4 2 1 1 2 3 3 4 5 6 8 10 11 12 12 10 8
8 8 7 7 6 4 3 4 5 7 9 9 9 8 6 7 7 7 8 8 9 10 12 13 13 13 12 12 11 10 10 8 6 4 3 3 4 5 5 6 7 7 8 9 10 10 10 10 8
10 10 9 9 8 7 6 6 7 7 8 9 10 10 9 9 9 9 10 10 10 12 13 15 15 14 13 12 12 11 10 9 8 7 6 7 7 7 8 8 8 9 9 9 9 9 9 9 8
12 12 12 12 11 10 9 10 9 9 8 8 9 10 10 10 10 10 11 12 12 13 14 15 15 14 13 12 12 12 12 11 10 10 10 10 10 10 11 11 11 11 12 11 11 10 10 9 8
15 15 15 15 15 14 13 13 11 9 8 7 7 9 9 9 9 10 11 12 13 14 14 14 14 13 12 12 13 13 14 14 14 14 14 14 14 14 14 15 15 15 15 15 14 13 13 11 10
17 17 17 18 19 17 17 16 14 13 10 9 8 8 7 8 8 9 11 12 12 13 14 14 14 14 14 14 14 15 16 16 17 17 18 18 18 18 18 18 18 19 19 19 18 17 17 16 14
19 19 19 19 21 21 21 20 18 16 12 9 8 8 8 8 8 9 10 12 13 14 15 16 16 17 17 18 18 18 19 19 19 20 20 20 21 21 21 21 22 22 22 22 22 21 21 20 19
21 21 21 22 23 23 24 23 21 18 14 12 11 10 10 8 8 10 11 12 14 15 17 18 20 21 22 22 22 22 22 22 22 22 22 22 22 22 23 23 24 24 24 25 25 24 24 24 23
22 22 23 25 25 24 25 25 23 22 18 16 14 12 11 11 11 12 13 14 16 19 21 22 24 25 26 26 27 28 27 27 25 24 23 23 23 23 23 24 24 25 26 26 26 26 26 26 25
22 23 25 28 28 27 26 26 26 24 23 20 17 16 15 15 15 16 17 18 20 22 23 25 27 28 30 31 32 33 33 32 29 28 26 24 23 23 23 24 24 25 25 25 26 27 27 26 26
21 21 24 28 30 29 28 28 29 27 25 23 21 21 21 20 20 21 22 23 24 25 26 28 29 31 32 33 35 35 35 36 34 33 30 28 25 24 23 24 24 24 24 24 25 26 26 26 26
21 20 23 26 30 31 31 31 32 30 28 27 26 26 26 26 26 26 26 27 28 29 29 30 31 32 34 36 36 37 38 38 37 36 34 31 27 25 24 24 24 24 24 24 24 25 24 25 25
21 19 20 23 28 31 33 34 35 34 33 32 30 30 31 31 30 30 30 29 29 30 31 32 34 34 36 36 37 39 39 39 39 39 38 34 30 27 26 25 24 24 24 24 25 24 24 24 24
21 19 19 22 26 30 33 34 35 34 35 34 34 34 34 33 32 30 29 29 30 31 32 34 35 36 38 39 40 39 40 41 42 39 39 36 33 30 28 26 25 25 25 25 26 25 24 24 25
20 20 21 24 26 28 31 32 33 34 35 35 35 35 35 34 32 30 30 30 32 33 34 38 38 39 40 40 41 41 40 39 38 38 40 37 35 32 29 26 25 24 25 25 25 26 26 26 25
20 21 23 24 26 27 27 28 29 30 31 33 33 33 32 31 31 30 31 33 36 37 40 42 41 40 39 40 41 40 39 35 33 37 38 36 35 32 29 26 24 24 25 26 26 26 26 26 26
20 21 22 23 25 25 25 24 23 23 25 27 28 29 30 30 31 32 34 36 39 41 43 43 41 39 39 40 40 38 36 31 29 32 35 35 34 30 27 26 25 25 25 25 26 26 26 26 26
18 19 21 22 23 23 22 20 18 18 21 23 25 27 30 32 34 35 37 39 41 43 43 42 39 37 37 37 37 37 32 26 22 24 28 29 30 28 27 26 25 24 24 25 25 25 25 25 25
17 18 20 21 22 22 21 18 17 18 21 24 27 29 32 34 36 38 40 42 43 43 41 39 38 36 36 36 36 34 29 23 17 18 22 25 27 28 27 27 26 25 25 24 24 24 24 24 24
15 16 18 20 20 21 21 20 20 21 23 26 29 32 35 37 39 41 43 43 42 42 41 39 38 36 36 37 36 34 29 24 21 19 19 21 25 27 27 27 26 26 26 25 24 23 23 23 23
13 14 15 16 17 18 20 20 22 25 28 30 32 35 37 39 41 42 41 41 41 40 40 40 39 39 38 38 36 34 32 29 24 21 21 22 24 27 28 29 29 28 27 27 25 25 24 24 24
9 10 10 12 13 14 15 16 19 22 25 28 29 31 32 32 34 34 35 36 38 39 40 41 41 41 40 39 38 36 34 31 29 27 27 27 27 29 31 32 31 30 29 29 28 27 27 27 26
6 6 7 7 8 10 11 14 15 19 21 23 25 27 28 30 31 31 33 35 36 39 41 42 43 43 43 42 41 40 38 36 34 33 33 32 31 31 33 33 33 32 31 31 31 31 31 31 30
6 6 6 6 6 8 11 13 16 18 21 23 25 27 29 31 32 33 35 36 38 40 41 43 43 44 44 45 44 43 43 42 41 40 38 38 38 37 37 37 36 35 35 34 34 34 34 34 34
7 7 7 7 8 10 13 15 17 19 22 25 27 29 31 32 33 34 36 37 39 40 42 43 44 44 45 46 46 47 47 47 47 46 46 45 45 44 44 43 42 41 40 39 38 38 37 38 38
9 10 11 12 12 14 16 18 20 22 24 27 29 31 33 34 35 36 37 38 39 40 41 43 44 44 45 46 47 48 49 50 51 52 52 52 51 51 51 50 49 48 46 45 44 43 42 42 42
11 12 14 16 17 19 19 21 22 24 27 30 32 34 35 37 38 40 41 42 42 43 43 43 43 43 43 43 44 46 49 51 53 55 56 56 57 57 57 57 56 55 53 52 50 49 47 46 46
12 14 16 17 19 21 22 22 24 26 30 33 36 37 39 41 43 44 45 46 47 47 46 44 42 40 40 41 42 43 45 47 50 54 58 60 61 62 62 63 62 61 60 58 57 55 53 52 51
14 15 17 18 19 21 23 25 27 31 34 36 38 40 43 45 46 48 49 50 50 49 48 47 46 47 48 48 48 48 48 47 47 48 51 56 61 64 66 67 67 67 67 65 63 62 60 59 56
14 16 17 19 20 22 25 27 31 34 36 38 40 43 45 48 50 50 51 51 50 49 48 49 51 52 53 54 54 54 53 51 50 48 48 50 53 58 64 68 70 72 72 71 70 68 66 65 63

GEFSSGP_500_meanwind_036.txt.gz
Wind_Speed
3 3 3 3 4 6 6 6 7 6 6 6 5 4 4 5 5 5 5 5 5 4 4 4 5 5 6 8 9 10 10 10 10 9 9 8 7 6 6 5 5 4 5 5 6 7 6 6 4
6 5 4 4 3 5 7 7 8 9 9 8 7 6 5 5 5 5 5 5 5 5 5 5 5 6 6 7 9 10 10 11 11 10 10 10 9 9 8 8 7 7 6 6 5 5 5 5 4
9 8 7 6 6 7 9 9 10 10 10 9 9 8 6 5 5 5 5 6 6 6 6 6 6 6 7 7 8 10 11 11 12 12 12 12 12 11 11 11 10 10 10 9 8 7 6 5 4
11 11 10 9 10 11 12 12 12 11 10 10 10 9 8 7 6 6 5 6 6 6 6 6 6 7 7 8 9 10 11 12 13 14 14 15 15 15 14 14 14 13 13 12 11 10 8 7 6
13 13 12 12 15 15 15 14 13 12 11 11 10 9 8 7 7 7 7 7 7 7 7 7 8 8 9 10 11 12 13 14 15 16 17 18 18 18 18 17 17 17 17 16 15 14 12 11 10
15 14 14 14 18 18 17 15 14 13 12 11 10 9 8 8 8 7 7 8 8 9 10 10 11 12 13 14 15 16 16 17 18 19 20 21 21 22 22 21 21 20 20 19 18 18 17 15 15
16 16 18 19 20 21 21 18 16 14 13 12 11 10 10 9 8 8 8 9 10 11 13 14 15 16 17 19 19 20 21 22 22 23 24 24 24 25 25 25 25 24 23 22 21 21 20 20 19
18 18 20 22 22 23 23 21 19 17 16 14 13 12 12 11 10 10 11 12 13 15 16 18 19 20 22 23 24 25 26 27 27 27 27 27 27 28 28 28 28 27 26 25 24 23 23 23 23
18 19 20 24 24 25 25 24 22 20 18 17 16 15 15 14 14 14 15 16 17 18 19 21 22 24 25 26 28 29 29 28 29 30 31 30 31 31 31 31 31 31 30 28 26 25 25 25 25
20 19 22 24 25 27 28 27 25 23 22 21 19 19 18 17 18 18 19 20 21 22 24 24 26 27 28 29 30 31 31 30 30 31 31 32 33 34 35 34 34 34 32 30 29 27 26 26 26
21 21 23 24 26 27 29 29 28 27 26 25 23 22 22 21 21 22 23 24 25 26 27 27 28 29 30 31 31 32 33 33 32 33 33 33 34 36 37 37 37 36 34 32 30 29 27 27 26
21 22 23 24 26 27 28 30 30 30 29 29 28 28 27 26 25 26 27 27 28 28 29 29 28 29 30 31 32 33 34 34 33 33 34 35 36 37 38 40 40 38 36 33 32 30 28 27 27
20 21 22 23 24 25 26 28 30 30 31 32 32 32 31 30 29 29 29 29 30 30 31 31 31 31 31 33 32 32 32 33 34 36 36 37 38 38 40 41 41 39 37 35 33 32 31 29 28
19 19 21 21 22 23 24 25 27 28 29 31 31 32 32 31 30 30 30 31 31 31 32 33 33 34 34 35 35 34 34 34 34 35 37 38 41 41 41 41 43 41 39 37 35 34 33 31 29
17 17 19 20 21 22 22 24 25 25 26 27 28 29 30 30 29 30 31 31 32 32 33 34 35 35 36 37 36 36 35 34 34 35 36 37 40 41 41 41 42 41 39 39 37 36 34 33 31
15 14 17 19 20 21 21 23 23 23 23 23 24 25 26 27 27 27 28 30 31 32 34 35 36 38 38 38 37 38 36 35 34 34 35 37 39 39 39 39 40 41 41 40 38 37 36 34 32
10 9 13 18 18 19 20 22 22 21 21 20 20 20 21 23 24 26 27 29 32 34 36 37 39 39 39 39 39 38 36 35 34 34 35 36 36 36 35 37 38 40 41 41 39 38 36 35 33
9 9 12 16 17 18 19 20 21 20 20 19 18 19 20 22 24 27 29 32 35 37 38 40 40 41 40 40 39 37 36 36 35 35 36 33 33 31 32 36 38 40 41 40 39 38 36 35 34
9 8 11 15 15 17 18 19 20 20 20 20 20 20 22 24 27 29 32 34 35 37 38 38 39 39 38 38 38 38 37 37 36 36 35 33 29 28 30 34 38 40 40 39 39 37 36 36 35
7 6 10 12 13 14 14 15 15 16 17 18 20 21 23 25 28 30 31 32 33 35 35 36 36 37 38 38 39 39 39 39 38 38 36 33 30 28 29 31 33 36 40 40 38 36 36 35 34
5 5 9 10 10 10 10 10 11 12 14 16 17 19 22 24 26 28 30 32 33 35 35 36 37 38 39 40 40 41 41 41 40 39 37 35 34 31 30 30 32 34 35 36 36 37 36 35 34
5 8 8 9 8 9 8 11 11 13 15 17 19 21 23 25 27 29 31 33 35 36 37 38 39 40 42 42 43 43 43 43 42 41 40 39 37 35 33 32 32 34 34 34 36 36 36 34 33
7 7 8 9 9 10 10 11 15 16 18 20 22 24 26 28 29 31 33 35 36 37 39 40 41 43 44 45 45 45 45 45 44 44 43 42 41 40 38 36 35 35 36 36 37 37 37 36 35
6 7 8 9 10 11 13 13 18 19 21 23 25 26 27 28 30 32 34 35 36 38 40 41 42 43 44 45 45 46 46 46 45 45 44 44 44 43 43 42 41 40 40 39 39 39 39 38 37
7 7 9 10 9 13 18 16 19 20 22 24 25 26 28 29 31 33 34 35 36 38 39 41 41 42 43 43 43 43 43 42 42 42 42 43 43 44 45 46 46 46 45 44 44 43 43 41 40
7 7 8 9 11 16 20 18 18 19 22 23 25 27 29 31 32 33 35 36 37 38 39 40 40 40 40 40 39 39 39 39 39 40 40 41 42 44 45 46 48 50 51 51 50 49 48 47 45
9 9 10 11 12 12 16 17 16 19 22 24 26 28 30 32 33 35 36 38 38 39 39 39 38 37 36 35 35 35 36 37 38 39 40 41 43 44 46 47 49 51 53 55 56 56 55 53 50
8 9 9 9 10 10 14 19 20 21 23 26 28 30 32 34 35 37 38 39 39 39 39 39 37 35 34 34 34 35 37 38 40 42 44 45 47 48 49 50 51 52 54 56 59 60 61 60 57
8 8 9 9 10 11 12 18 20 22 24 27 30 31 33 35 37 39 39 40 40 40 40 39 37 35 35 35 36 38 40 42 44 46 48 49 50 52 53 54 54 55 56 57 59 62 64 65 64
8 9 9 10 12 13 15 19 20 23 25 28 31 33 35 37 39 40 40 41 41 41 40 39 38 37 36 37 38 41 44 46 48 50 52 53 54 55 56 57 58 58 59 60 61 63 65 67 69

GEFSSGP_500_meanwind_042.txt.gz
Wind_Speed
7 7 7 6 8 10 11 8 7 8 9 9 8 8 8 8 9 9 9 10 9 9 9 8 8 7 7 6 6 7 7 8 9 10 11 12 13 13 14 14 13 13 12 11 10 9 8 7 7
7 6 5 6 9 14 11 9 11 11 11 11 10 10 10 9 9 9 9 9 9 8 7 7 7 7 6 6 6 7 7 8 9 10 11 12 13 14 15 15 15 15 14 13 12 10 9 7 7
6 5 5 5 9 9 9 13 12 13 12 11 12 11 11 11 10 10 10 9 9 8 7 7 7 7 7 6 7 7 8 9 10 10 11 12 13 14 15 16 17 17 17 16 15 13 11 9 7
7 5 4 5 8 7 11 14 12 10 12 10 14 13 12 12 12 12 11 11 9 9 8 8 8 8 8 9 9 10 12 13 13 13 14 15 15 16 16 17 18 18 19 18 17 16 14 12 11
8 4 2 8 6 10 15 17 11 10 11 13 17 15 13 13 13 13 13 12 11 11 11 10 10 10 11 12 13 14 15 16 17 18 18 18 18 18 19 19 20 20 20 20 20 19 18 16 15
10 6 1 4 7 12 14 13 9 9 12 13 14 15 15 13 14 14 14 14 13 13 13 13 13 14 15 16 17 17 18 20 20 21 21 22 22 22 22 22 22 22 22 21 21 21 21 20 19
13 10 5 4 8 14 18 17 12 12 14 13 14 16 15 13 14 15 15 16 16 14 15 16 17 17 18 19 19 20 21 23 23 24 24 25 25 25 25 25 25 24 24 24 23 23 23 22 22
15 13 7 4 7 13 19 20 18 16 18 19 18 19 13 14 16 16 16 17 18 18 17 18 18 19 19 20 21 23 24 25 26 26 26 27 27 28 28 28 28 27 27 26 26 25 25 25 25
16 14 6 2 10 16 23 24 21 19 21 21 20 20 19 18 18 18 18 19 20 21 21 21 21 21 21 22 23 24 25 25 26 27 28 28 29 30 30 30 30 29 29 29 28 28 27 27 27
17 14 7 8 19 24 28 28 24 22 25 24 21 21 22 22 21 22 22 22 22 24 24 24 24 23 24 25 25 25 26 27 28 29 30 30 31 31 31 31 31 31 31 31 31 31 30 30 29
18 16 14 16 23 28 29 27 25 25 28 26 25 25 25 25 25 25 26 26 26 26 27 26 26 26 27 28 28 28 29 30 30 31 31 31 32 32 33 33 32 33 34 35 34 33 33 32 32
19 19 19 22 25 26 25 25 25 25 27 28 29 29 28 29 29 29 30 30 30 29 30 29 29 29 30 31 31 31 32 33 34 34 34 33 33 34 35 35 34 34 34 36 38 36 35 34 34
19 20 20 22 24 24 23 22 25 24 25 26 28 30 31 32 32 32 33 33 32 33 33 32 33 32 32 33 34 34 34 35 36 37 36 35 35 35 36 35 35 35 35 37 39 39 37 37 35
17 18 19 21 21 21 21 21 24 22 23 25 26 29 30 32 33 33 34 34 35 35 35 35 35 34 34 35 36 36 37 37 38 38 38 38 37 36 36 36 37 36 36 38 39 39 38 37 36
14 15 16 18 19 20 19 21 23 22 22 23 24 26 27 29 30 31 32 33 33 33 34 35 35 34 35 36 38 39 39 40 40 39 39 38 37 37 36 36 36 37 37 37 38 38 39 38 37
7 9 12 17 15 14 15 21 23 22 22 22 22 23 23 24 26 27 28 29 30 31 32 34 35 35 36 37 39 41 42 42 42 41 40 39 38 37 36 36 37 37 36 37 37 38 37 37 37
6 11 19 21 16 12 16 22 24 24 23 21 20 20 19 20 21 22 24 26 28 30 32 34 36 37 39 39 40 41 42 42 42 41 40 39 39 38 38 37 37 37 36 36 37 36 35 36 36
14 16 18 17 15 13 18 25 24 23 22 21 20 19 18 18 19 21 23 25 27 30 32 34 36 38 39 40 41 41 40 40 40 40 39 39 39 39 39 39 38 38 36 36 35 32 32 34 35
9 10 12 13 15 16 20 24 21 19 19 18 17 17 17 18 19 21 23 25 27 30 32 34 35 37 38 39 40 40 40 40 41 41 40 39 40 40 40 40 39 38 37 36 33 31 31 33 34
9 11 14 18 20 17 17 18 16 13 13 13 13 14 15 17 18 21 23 25 27 29 31 32 34 36 38 39 40 40 41 41 42 42 41 41 41 42 42 41 40 39 38 37 34 33 31 32 34
10 14 15 17 17 14 13 14 12 10 9 10 13 15 17 18 20 23 25 26 28 30 32 34 35 36 38 40 41 41 41 41 42 42 42 41 41 42 43 42 41 40 39 37 36 35 33 32 32
12 13 14 14 15 16 15 16 11 10 10 12 15 17 19 20 22 24 26 28 30 32 34 35 35 36 38 39 40 40 40 41 41 42 42 42 42 42 41 41 40 40 39 38 37 36 35 34 32
10 12 12 15 19 21 22 22 14 12 12 14 18 20 21 22 24 26 27 29 31 33 34 36 36 37 38 39 40 41 41 41 42 42 42 41 40 40 39 39 38 38 37 37 38 38 37 36 35
8 11 14 18 21 21 17 15 10 13 19 20 21 22 23 24 26 27 28 29 31 33 34 36 37 38 39 39 40 41 41 41 41 41 40 39 38 38 38 37 36 36 36 36 36 37 38 38 39
8 10 15 20 23 20 13 11 10 15 22 23 24 25 25 26 28 29 30 31 32 34 35 36 37 38 39 40 40 41 41 41 41 40 39 39 38 38 38 37 35 35 35 36 35 36 37 38 39
8 10 15 18 21 23 17 11 14 18 20 21 23 24 26 27 29 30 31 32 34 35 36 37 37 38 39 40 41 41 41 41 40 40 39 39 39 39 40 41 40 38 38 38 38 37 37 38 39
7 8 11 13 13 16 18 18 18 20 21 22 23 25 26 28 29 31 32 34 35 37 37 38 38 39 39 40 40 41 41 41 40 40 40 40 40 41 42 43 44 44 43 43 42 42 41 41 40
10 9 9 6 8 10 14 20 20 22 23 23 24 26 28 29 30 31 33 35 36 38 39 39 40 39 39 40 40 41 41 40 40 40 41 41 42 42 43 45 46 47 48 48 47 47 46 45 45
10 9 9 6 6 6 11 21 22 23 23 23 25 27 28 30 31 32 34 35 37 39 40 41 41 41 40 41 41 41 41 40 40 40 40 41 42 44 45 47 48 50 51 52 52 52 51 50 49
10 11 10 9 8 7 9 22 23 24 23 24 26 27 29 30 31 33 35 37 39 40 41 42 42 42 42 42 42 42 41 40 40 41 41 42 43 45 48 50 51 53 54 55 56 56 55 54 54

GEFSSGP_500_meanwind_048.txt.gz
Wind_Speed
4 5 7 6 6 6 6 9 11 11 9 7 5 5 5 6 6 6 6 6 5 5 5 5 4 4 4 4 4 4 4 4 5 6 6 7 8 9 9 10 10 11 11 11 12 12 12 12 12
3 3 4 4 3 4 7 8 11 13 11 8 6 5 5 6 6 6 6 6 6 5 4 4 4 4 4 4 4 4 5 6 6 7 7 8 9 9 10 10 11 11 11 11 11 11 12 12 12
4 2 3 2 0 3 7 8 11 14 14 13 10 9 8 7 6 6 6 7 6 5 5 5 5 5 5 5 6 6 7 7 8 8 9 9 10 10 11 12 12 12 12 12 12 12 12 12 12
6 3 2 2 2 3 6 10 12 15 16 16 14 12 10 8 7 7 7 7 6 5 6 6 6 6 7 7 8 9 9 10 10 11 11 12 12 13 13 14 14 14 14 14 13 13 13 13 13
7 6 5 5 3 3 6 11 14 17 19 18 17 15 11 8 7 8 8 8 7 7 7 8 8 9 9 10 11 11 11 12 12 13 13 13 14 15 15 16 16 16 16 16 15 15 14 15 15
10 8 7 6 5 4 5 10 18 21 22 21 21 20 15 10 8 9 9 9 8 8 9 9 11 11 12 13 13 13 13 14 14 14 15 15 15 16 17 17 18 18 19 19 18 17 17 17 17
11 8 8 9 8 6 7 13 20 24 25 24 23 22 20 15 10 9 9 10 9 9 10 11 12 12 13 14 15 15 15 15 16 16 17 17 18 18 18 19 19 20 20 21 20 20 20 20 20
12 9 11 13 12 8 11 16 22 25 27 27 26 24 23 17 13 10 10 12 11 11 12 13 14 14 15 17 17 17 17 17 18 18 19 19 20 20 20 21 22 22 22 22 22 23 22 23 23
14 11 16 17 16 14 14 18 23 27 29 29 28 27 25 22 18 14 12 13 13 14 15 16 16 16 17 18 19 19 19 19 19 20 21 22 22 22 22 23 23 23 23 23 23 24 24 25 25
16 14 19 22 21 19 18 21 25 29 31 32 32 32 30 25 22 19 17 16 17 17 18 19 18 19 20 21 21 22 22 22 22 23 23 24 25 25 24 24 25 25 25 25 25 24 25 26 27
18 18 22 23 22 22 22 24 27 31 33 34 35 34 32 30 26 21 21 21 21 21 21 22 22 22 23 24 24 25 25 25 25 25 26 26 27 27 27 27 27 27 28 28 28 27 25 25 27
20 21 25 25 23 24 25 26 28 31 34 35 35 34 31 28 27 27 25 25 25 25 25 25 26 26 26 26 26 27 27 27 28 28 28 29 29 30 30 29 29 29 29 30 30 30 29 27 26
22 24 25 27 26 26 27 27 29 31 32 32 32 30 29 28 28 28 28 28 27 28 27 28 29 28 28 28 28 29 29 29 29 30 31 31 32 32 32 31 31 32 32 32 32 32 31 30 29
20 22 24 25 26 26 27 26 26 26 25 26 26 26 27 26 26 27 28 28 28 28 28 29 28 28 29 30 30 31 32 32 32 33 34 34 34 34 34 34 34 34 34 33 33 32 32 31 30
19 20 21 22 23 24 23 22 20 20 20 21 22 23 24 24 24 25 26 26 26 26 27 27 27 28 29 30 31 33 33 35 35 36 36 37 36 36 35 35 35 35 36 35 34 34 33 32 32
18 18 18 19 19 20 19 19 18 18 18 19 20 21 22 22 22 23 23 24 24 24 25 26 27 28 30 31 33 34 35 37 38 38 39 38 38 37 37 36 36 36 36 36 36 36 35 34 33
13 13 13 16 17 19 20 20 19 19 19 18 18 18 19 20 20 21 22 22 23 24 25 27 28 30 32 33 35 36 38 39 39 39 39 39 38 38 38 37 37 37 37 37 37 37 36 35 34
9 8 10 12 15 18 20 19 19 19 19 17 15 14 15 16 17 19 20 21 22 24 26 28 30 32 33 35 36 37 38 39 39 39 39 39 39 39 39 39 38 38 37 37 37 37 36 36 35
8 9 8 9 11 14 16 17 18 18 17 13 10 10 12 14 16 17 19 21 23 25 27 29 31 32 34 35 36 37 38 38 39 39 38 38 37 38 38 39 39 38 38 38 37 37 36 36 34
9 8 9 11 12 12 15 17 16 16 15 10 8 8 10 12 14 16 18 21 22 24 25 27 29 31 32 34 35 36 36 36 37 37 37 36 36 36 36 37 37 37 37 37 37 37 36 35 35
7 7 9 11 14 15 17 17 16 14 10 8 7 7 8 10 13 15 17 18 20 21 23 24 26 28 30 32 33 34 35 35 36 36 36 35 34 33 33 34 35 35 35 35 35 35 35 34 34
7 9 10 12 15 16 18 18 15 11 5 2 3 4 6 9 11 13 15 17 19 20 22 23 24 26 28 29 31 32 32 33 33 33 34 34 34 33 33 32 32 32 32 33 33 33 33 33 32
9 9 10 11 12 14 16 15 11 7 2 1 1 3 6 9 12 14 16 18 20 21 22 24 25 26 28 29 30 31 32 32 33 33 34 34 34 34 33 32 30 30 30 30 30 30 30 31 31
8 8 9 10 10 11 13 13 12 6 4 3 4 6 9 12 14 16 19 21 22 24 26 27 28 30 31 32 33 33 34 34 34 35 35 35 36 36 35 34 33 31 30 30 30 30 29 29 29
8 8 9 9 9 9 11 13 13 11 8 7 8 10 13 16 18 20 22 24 26 28 30 31 32 33 34 35 35 36 36 36 36 37 37 37 38 38 38 38 37 35 33 32 31 31 31 30 29
7 8 8 8 8 9 9 12 12 12 10 10 12 14 17 19 21 23 25 28 30 31 33 34 35 36 36 37 37 37 37 37 38 38 39 39 39 40 40 40 39 38 36 34 33 33 32 32 32
7 7 8 8 8 7 8 10 11 12 12 13 16 18 20 22 24 26 28 31 33 35 36 37 38 38 38 38 37 37 38 38 39 39 40 40 40 40 41 40 40 39 38 37 36 35 34 34 34
9 8 8 7 7 7 8 10 12 13 15 16 19 21 23 24 26 28 30 33 35 36 38 39 39 39 38 38 38 38 39 39 39 39 40 40 40 40 40 40 40 40 39 39 38 38 38 37 37
8 9 8 8 9 10 12 13 14 16 17 19 20 22 24 26 28 30 32 34 36 37 39 39 39 39 38 38 39 39 40 40 40 40 40 41 40 40 40 40 40 40 40 40 40 40 40 40 40
8 10 10 10 11 13 15 16 17 18 19 20 22 24 25 27 28 31 33 36 37 38 39 39 38 38 38 39 39 40 41 41 41 41 41 41 40 40 40 40 40 40 40 41 42 42 43 43 43

GEFSSGP_500_meanwind_054.txt.gz
Wind_Speed
3 2 3 2 2 1 1 3 5 7 9 9 9 10 10 9 9 8 7 7 6 6 6 5 4 5 5 5 5 5 5 5 5 4 4 4 4 5 5 6 6 7 7 7 7 7 7 8 8
7 5 5 6 6 5 4 3 3 6 8 9 10 11 11 11 11 9 7 7 6 6 6 5 4 4 4 4 4 5 5 5 5 6 6 6 6 6 7 8 8 8 9 9 8 8 8 7 7
10 8 8 9 10 8 6 5 4 5 6 8 10 11 12 12 12 10 9 8 7 6 6 5 5 5 5 5 5 5 5 6 6 7 7 8 8 8 9 10 10 11 11 11 10 10 9 9 8
11 11 11 12 13 11 9 9 8 5 6 7 9 12 13 13 13 11 9 9 8 8 7 6 5 6 6 6 6 7 7 7 8 9 9 10 10 11 11 11 12 13 13 13 13 12 12 11 11
12 13 14 16 16 13 11 10 9 8 6 8 10 13 14 15 14 12 11 10 10 9 9 8 7 7 7 7 7 8 9 9 10 10 10 11 11 11 12 13 13 14 14 15 15 15 14 14 14
14 15 16 18 19 16 14 11 10 9 8 9 12 14 14 15 15 14 13 11 10 10 10 9 8 8 8 9 10 10 10 10 11 11 12 12 13 13 14 14 15 15 16 16 17 17 17 17 16
15 16 18 21 21 19 16 14 13 11 10 10 13 15 16 17 15 15 14 13 12 12 11 11 11 11 10 11 11 12 12 12 13 13 14 14 14 15 16 16 16 17 18 18 19 19 19 19 19
17 18 21 24 24 22 19 17 15 12 11 12 14 16 18 19 18 17 16 14 14 15 15 14 14 14 14 14 14 14 15 15 15 15 15 15 16 17 18 18 19 20 20 20 20 20 21 21 20
19 20 22 26 26 24 21 19 17 16 15 15 16 18 20 21 20 19 18 17 16 17 17 18 17 18 18 18 18 18 17 17 17 17 17 18 18 19 20 21 21 22 21 22 22 22 23 23 22
21 21 24 27 28 27 24 22 20 19 17 17 19 21 21 22 22 22 21 20 19 20 20 21 21 23 23 22 22 22 22 21 20 20 20 20 21 21 22 23 24 24 24 24 24 25 25 25 25
24 23 27 30 30 29 27 25 24 23 22 21 22 23 24 24 24 24 23 22 22 22 21 22 24 24 24 24 25 25 24 23 22 21 22 23 23 24 25 25 26 27 26 26 26 27 27 27 27
27 26 29 32 32 30 29 28 26 26 25 26 26 26 26 26 26 24 23 22 21 21 22 23 24 25 25 26 26 25 25 24 25 26 25 25 26 27 27 28 28 29 29 28 28 28 28 28 29
26 27 29 32 32 31 30 29 28 28 28 28 28 28 28 27 25 22 21 20 20 21 22 24 25 25 25 26 26 26 27 26 26 26 27 27 28 28 29 29 30 31 31 31 30 30 29 30 30
23 25 27 30 31 31 30 29 29 28 28 28 29 28 28 27 24 22 20 20 19 20 21 22 23 24 25 25 25 26 26 25 26 26 26 27 28 29 29 31 32 33 33 32 32 32 31 30 30
19 21 24 26 29 29 31 29 29 29 29 28 28 28 27 25 23 22 20 19 19 19 20 20 21 21 22 24 25 26 27 27 28 29 29 29 30 31 31 32 33 33 33 33 33 32 32 31 31
15 17 20 22 26 27 28 27 28 28 28 28 27 26 25 24 23 21 20 19 18 18 19 20 21 22 23 24 25 26 27 28 29 30 30 31 32 32 32 33 33 33 33 33 33 33 33 33 32
12 14 16 17 20 23 25 25 26 26 26 26 26 24 23 22 21 19 19 18 18 18 18 19 21 22 23 25 26 27 28 29 30 30 31 31 32 32 33 33 33 34 34 34 34 34 33 33 33
10 11 12 13 14 16 18 20 22 23 24 25 24 23 21 20 19 18 18 18 18 18 19 20 22 23 24 25 27 28 29 29 30 30 31 31 31 31 32 33 34 34 34 34 34 34 33 33 33
8 8 8 9 10 11 13 16 18 21 22 22 22 21 20 18 17 17 17 18 18 19 20 21 22 24 25 26 27 28 29 30 31 31 31 31 31 31 32 32 33 33 34 34 34 34 33 33 33
4 6 7 7 8 9 10 13 16 18 19 19 20 18 16 15 15 16 17 17 18 19 20 22 23 24 26 27 28 30 30 31 32 33 33 32 32 31 31 32 32 32 33 33 33 32 33 33 33
4 4 5 5 5 5 7 8 11 13 13 13 12 12 11 12 13 14 15 16 18 19 20 22 23 25 26 27 28 29 30 31 32 32 33 32 31 30 30 30 31 31 31 32 32 32 32 32 33
4 3 3 3 4 4 5 5 6 5 4 3 5 5 7 9 11 13 15 17 18 19 20 22 23 24 25 26 28 29 29 30 30 31 31 30 30 29 29 29 30 31 32 32 32 32 32 32 33
4 4 4 3 3 3 5 6 3 3 3 1 1 2 5 8 10 12 14 16 17 18 19 21 22 24 25 26 27 28 28 29 29 29 29 30 30 30 30 30 31 31 32 33 33 34 33 33 33
4 4 4 3 3 4 5 6 4 3 2 2 1 3 6 8 10 12 14 15 16 18 19 21 22 24 25 26 26 27 27 27 28 29 29 30 30 31 31 31 32 32 33 34 35 35 35 35 34
5 5 4 4 3 3 4 5 4 4 3 3 3 5 7 9 10 12 14 15 17 19 21 22 24 25 26 26 27 27 27 28 28 29 30 30 31 32 32 33 34 34 35 36 36 36 37 37 37
6 6 6 5 4 3 3 3 3 3 4 5 6 7 8 10 11 13 14 16 18 20 22 23 25 26 26 27 28 28 28 29 30 30 31 32 32 33 34 35 36 36 37 37 37 37 38 38 39
6 7 7 6 5 4 2 2 3 4 6 7 7 8 10 11 12 14 15 17 19 21 23 25 26 27 28 29 29 29 30 31 31 32 33 34 35 36 36 37 38 38 38 38 37 37 37 38 39
6 7 7 6 5 3 2 2 4 6 7 8 10 11 11 13 14 15 16 18 21 23 25 27 28 29 30 30 30 31 32 33 34 35 36 37 37 38 38 38 38 38 38 38 37 37 37 38 38
7 7 8 6 5 5 3 3 6 7 9 10 12 13 13 15 16 17 19 21 23 25 27 29 30 31 32 32 33 33 34 36 37 37 38 39 40 40 40 40 39 38 38 38 37 37 37 37 37
8 9 9 8 6 6 6 6 7 9 11 12 14 15 16 17 18 19 21 23 25 27 28 30 31 33 34 34 35 35 37 38 39 40 41 41 41 42 41 41 40 39 38 38 37 37 36 36 36

GEFSSGP_500_meanwind_060.txt.gz
Wind_Speed
7 5 4 3 2 3 3 4 3 2 2 2 2 3 4 4 4 4 3 3 3 3 3 2 2 2 3 4 4 4 4 3 3 2 2 2 3 3 2 2 1 2 2 2 3 3 3 3 2
9 8 7 5 4 4 6 6 4 3 1 2 2 2 3 4 4 3 3 4 3 4 4 4 4 4 5 5 5 5 5 5 5 5 5 5 5 5 5 4 4 4 4 4 5 5 5 5 4
11 11 10 9 8 8 8 8 7 5 3 3 2 2 2 3 3 4 4 4 4 4 4 5 5 6 6 6 6 7 7 7 7 7 7 7 7 8 7 7 6 6 6 6 6 7 7 7 7
14 14 14 12 12 12 11 10 9 8 6 5 4 3 3 4 4 5 5 5 5 5 6 7 8 8 8 8 8 9 9 9 9 9 9 10 10 10 9 9 8 8 7 7 8 8 8 8 9
16 16 16 15 15 14 13 12 11 10 9 7 6 5 5 5 5 6 6 6 7 7 9 10 10 10 10 10 11 10 11 11 12 12 12 11 12 11 11 10 10 9 9 9 9 9 10 11 11
18 18 18 18 19 17 16 14 13 12 12 10 8 7 6 6 7 7 8 8 9 10 11 12 13 13 13 13 14 14 14 14 14 15 14 14 13 13 12 11 11 11 11 10 11 11 12 12 12
20 21 22 22 21 20 19 16 15 14 14 13 11 9 8 7 8 9 10 10 11 12 13 15 15 16 16 16 17 17 17 17 17 17 17 17 16 15 14 14 13 13 12 12 13 13 13 13 13
23 23 24 24 23 24 21 19 17 17 16 15 15 12 10 10 10 12 13 14 14 14 15 17 18 19 19 19 19 20 20 20 21 21 21 20 19 18 17 16 16 15 15 15 15 15 15 15 15
26 25 25 25 26 26 24 22 20 19 18 18 17 15 13 13 13 15 16 17 17 18 18 19 20 21 22 22 22 22 22 23 24 24 24 23 22 21 19 18 17 17 17 17 17 17 17 17 17
27 26 26 28 27 27 25 23 21 20 20 20 19 18 16 16 17 18 19 19 19 20 20 21 21 23 24 24 25 25 25 25 25 25 24 23 23 23 22 20 19 19 19 20 19 19 19 19 19
26 27 28 27 27 26 25 23 22 22 22 21 21 19 18 19 20 21 20 20 20 20 20 20 21 23 24 25 26 26 26 26 26 26 25 25 24 23 22 22 21 21 22 22 21 20 21 20 20
21 24 26 26 25 25 25 23 23 23 23 22 22 21 21 22 22 22 21 20 19 19 19 20 21 22 24 24 24 25 25 24 23 24 24 23 23 24 23 23 23 24 24 23 23 23 23 23 23
14 18 20 21 22 23 23 23 22 22 22 22 22 23 23 23 22 22 21 20 19 19 19 19 20 20 21 21 21 22 21 21 22 22 22 23 24 24 24 24 25 25 26 26 26 26 26 25 25
8 10 13 15 17 19 20 21 22 22 22 23 23 23 22 22 22 22 20 19 18 17 17 17 17 17 18 18 19 20 20 20 20 21 21 21 22 23 24 25 26 27 27 27 27 27 26 26 26
5 5 7 10 13 15 17 18 19 20 21 22 22 22 22 21 21 20 19 17 16 15 15 15 15 15 16 17 18 18 18 18 19 20 20 21 21 22 23 24 24 25 26 28 28 28 27 28 28
6 4 4 6 8 11 13 16 18 19 20 21 21 21 21 20 20 18 17 15 15 13 13 13 13 13 14 15 16 17 18 18 19 20 20 21 22 22 23 24 24 25 26 27 27 28 28 28 28
8 4 3 5 6 8 11 15 17 18 19 20 21 21 20 19 17 16 14 13 12 11 11 12 12 13 13 14 16 16 17 18 19 20 21 21 22 23 24 24 25 25 26 26 27 28 28 29 29
4 4 4 5 6 7 10 13 15 17 18 20 21 20 19 17 15 14 11 10 10 10 10 11 11 12 13 15 16 17 18 20 21 21 22 22 23 23 23 24 24 25 26 26 27 27 28 28 28
4 4 5 7 7 8 10 13 14 15 17 19 19 17 15 14 13 11 9 8 8 9 10 10 12 13 15 16 18 19 21 22 22 22 22 23 23 23 23 24 23 24 25 25 26 26 27 27 27
7 6 7 7 7 7 9 11 12 13 14 14 13 13 13 12 10 8 6 7 8 9 10 11 13 15 17 18 20 22 23 24 24 24 23 23 23 23 23 23 23 23 24 24 25 25 26 27 27
6 6 7 8 8 8 9 11 11 11 10 8 6 7 7 6 3 3 4 6 8 9 11 13 15 17 18 20 21 22 23 23 23 23 22 22 22 22 22 22 23 23 23 24 24 24 25 26 26
6 7 7 8 7 8 9 10 10 9 6 4 2 1 1 1 2 3 5 7 9 11 13 15 17 18 20 21 21 22 22 21 21 21 21 21 21 21 21 22 22 23 23 24 25 25 26 27 27
6 7 7 7 7 8 9 8 8 6 5 4 3 2 2 3 4 4 6 8 10 12 14 16 18 19 19 19 20 20 21 21 21 21 21 20 20 20 20 21 22 23 24 25 26 26 27 28 29
7 7 7 7 7 7 8 6 6 5 5 6 5 4 4 5 5 6 8 9 11 13 15 17 17 18 18 19 20 20 20 21 21 21 21 21 21 21 21 22 23 24 25 26 27 28 29 30 31
6 5 7 7 7 8 7 6 5 5 5 5 6 6 7 7 7 8 10 11 13 14 16 17 17 18 19 20 20 20 21 21 21 21 22 22 22 23 23 24 25 25 26 27 28 29 30 31 33
6 5 3 3 5 7 8 6 6 5 6 6 7 7 8 8 9 11 12 13 14 15 16 17 18 19 20 20 20 21 21 21 22 22 23 23 24 25 26 27 27 28 28 29 30 31 32 33 34
6 5 4 4 5 5 7 7 7 7 7 7 8 8 9 10 11 12 14 15 16 16 17 18 18 19 19 20 21 22 22 23 23 24 25 25 26 27 28 29 30 31 31 32 32 33 33 34 35
7 6 5 2 4 4 8 8 9 9 8 8 9 9 11 12 13 14 15 16 16 17 17 18 19 19 20 21 22 23 24 25 25 26 27 28 28 30 31 32 33 34 34 34 34 35 35 35 36
9 8 6 5 6 3 6 9 10 10 10 10 10 11 12 14 15 15 16 17 17 17 18 19 19 20 22 23 24 25 26 27 27 28 29 30 31 32 34 35 36 36 36 36 36 36 36 36 36
10 10 8 7 8 8 7 10 13 12 11 11 12 13 14 15 16 16 16 17 17 17 18 19 20 22 23 25 26 27 28 29 30 30 31 33 34 35 36 37 38 38 38 37 37 37 36 36 36

GEFSSGP_500_meanwind_066.txt.gz
Wind_Speed
5 4 4 5 6 7 5 7 3 6 6 5 5 6 6 6 6 4 4 4 4 5 4 4 4 4 5 5 6 6 6 6 7 7 7 8 8 8 8 8 7 7 7 6 6 6 6 6 5
6 5 6 6 8 11 9 4 2 8 8 7 7 6 6 6 6 6 5 5 5 5 4 5 5 6 6 7 7 8 8 8 9 9 9 9 10 10 10 10 10 10 9 9 8 7 7 7 7
9 8 8 8 9 14 13 5 6 10 10 10 10 8 7 7 6 6 5 5 5 5 5 5 6 7 8 8 9 9 10 10 10 10 11 11 12 12 12 12 12 12 11 10 10 9 9 8 8
12 11 10 10 9 13 13 10 12 13 12 12 12 9 8 7 6 5 5 5 5 5 6 7 8 9 9 10 11 11 12 12 12 13 13 13 13 14 14 14 14 13 13 12 11 11 10 10 10
15 14 13 11 11 18 15 14 14 15 14 14 13 10 8 7 6 5 5 5 5 6 7 8 9 10 11 12 12 13 13 14 14 14 14 15 15 16 16 16 16 15 15 14 14 13 12 11 11
18 17 15 11 15 23 19 14 15 18 17 17 15 12 9 7 6 5 5 6 6 7 9 10 11 12 13 13 14 15 15 16 16 16 16 17 17 18 18 18 18 17 17 16 16 15 14 13 13
21 20 18 14 15 24 23 20 20 19 17 17 15 13 11 8 6 6 7 8 9 9 11 12 12 14 15 16 16 17 18 18 18 19 19 20 20 20 20 20 20 19 19 19 18 17 16 16 15
23 23 20 16 16 23 27 25 24 21 21 14 14 14 12 8 7 7 9 11 12 13 13 13 14 15 16 17 18 19 20 20 21 22 22 22 22 22 22 21 22 21 21 21 20 20 19 18 17
22 23 19 13 16 24 29 26 22 20 21 18 16 16 13 9 8 9 11 13 14 15 14 14 15 17 17 18 19 21 21 22 22 22 23 24 24 23 23 24 24 23 23 22 22 21 21 20 19
18 19 15 14 20 25 28 25 23 17 18 19 19 14 12 12 11 11 12 14 15 16 16 16 16 17 18 19 20 21 22 22 22 22 23 23 22 22 23 23 23 24 24 24 24 24 23 22 21
13 15 17 21 24 25 27 26 24 20 20 20 14 10 11 13 14 14 15 15 16 16 16 17 17 18 19 19 20 21 21 21 22 22 22 22 21 20 20 20 21 22 22 23 22 23 23 22 22
9 11 17 22 24 25 25 24 22 24 20 16 13 10 13 15 15 16 17 17 16 16 16 17 17 17 18 19 20 20 20 20 19 19 20 20 19 18 19 21 20 20 20 20 22 22 22 22 23
7 9 13 16 18 22 22 22 24 24 25 20 13 12 13 15 16 17 18 18 16 16 17 16 16 16 17 18 17 18 17 17 17 17 18 18 18 18 20 20 20 20 20 21 22 23 23 22 23
5 7 9 10 10 14 17 20 21 20 17 13 13 14 16 16 17 18 18 17 16 16 15 15 14 14 15 16 16 16 16 16 16 17 17 18 18 19 20 20 20 20 20 21 22 22 23 23 23
5 5 6 5 6 9 13 17 19 17 17 14 15 16 17 17 18 18 17 17 15 15 14 13 13 13 14 15 15 16 17 17 17 17 17 18 18 18 19 20 20 20 21 21 21 22 21 23 23
10 10 7 4 4 8 12 16 15 12 13 14 16 17 17 19 19 18 17 16 15 13 13 12 12 13 13 14 14 15 16 16 17 17 17 18 19 19 19 19 20 21 21 21 21 22 22 22 22
15 13 11 7 7 7 11 16 14 9 9 13 16 18 18 19 19 18 16 15 13 12 12 11 11 11 12 13 14 14 16 16 17 17 17 18 18 19 19 19 19 20 20 21 21 21 22 22 22
16 16 13 10 9 8 11 14 13 9 10 12 15 17 18 19 18 17 16 15 13 11 11 11 11 11 12 13 14 14 15 16 17 17 17 18 18 18 19 18 18 18 18 19 20 21 21 22 22
11 11 12 10 8 8 11 15 12 8 8 10 12 13 15 16 15 16 15 13 11 10 10 10 10 11 11 12 13 14 15 15 16 16 16 17 18 18 18 18 18 18 18 17 18 18 20 20 21
10 10 9 9 9 9 11 13 9 7 8 8 10 10 11 10 11 11 11 10 9 8 9 9 9 9 10 11 12 13 14 15 15 16 17 17 18 18 18 18 18 18 18 18 18 18 18 19 20
11 12 11 10 10 9 10 10 9 9 7 5 6 6 4 5 5 7 7 6 6 6 6 7 8 9 10 11 12 13 15 16 17 17 18 18 18 19 19 19 19 19 19 19 19 19 20 20 20
12 11 10 10 11 11 10 10 11 9 8 4 4 2 1 1 3 4 4 4 4 4 5 6 8 9 11 12 14 15 16 17 18 19 19 19 19 19 20 20 20 20 20 21 21 21 21 21 21
10 8 7 8 11 9 8 10 13 11 9 7 6 4 2 1 2 3 3 2 2 3 5 7 9 10 12 14 16 17 18 19 19 20 20 20 20 20 21 21 21 22 22 22 22 23 23 23 23
7 7 9 12 11 5 8 8 11 11 9 8 8 6 3 2 1 1 2 3 4 6 7 9 10 12 13 15 17 18 19 20 21 21 22 22 22 21 21 22 22 23 24 24 24 25 26 26 26
8 9 15 17 14 9 10 7 9 10 9 8 7 7 5 4 4 4 5 5 7 8 9 10 11 13 14 16 17 19 20 21 21 22 23 23 23 23 23 23 24 24 25 26 27 27 28 29 29
8 8 12 13 14 10 5 6 9 9 8 8 8 7 7 6 6 7 8 8 9 10 11 12 13 14 15 17 18 19 21 21 22 22 23 23 24 25 25 25 26 26 27 28 29 30 30 31 32
8 7 9 10 9 9 2 7 10 8 9 10 9 9 9 9 9 10 11 11 11 12 12 13 14 15 16 18 19 20 22 23 23 24 24 25 25 26 26 27 28 29 30 31 32 33 33 34 35
10 8 7 6 8 12 6 6 8 11 14 13 12 12 12 12 13 13 13 13 13 13 14 14 15 16 17 18 20 20 21 23 23 24 25 26 26 27 28 29 31 32 33 34 35 36 37 37 38
12 10 8 7 7 9 14 9 8 14 17 17 15 15 15 15 16 15 15 15 14 14 14 15 16 17 18 19 21 22 22 23 24 24 25 26 27 29 30 32 33 35 36 37 38 38 39 39 39
13 10 11 10 9 7 11 10 8 14 19 20 19 18 18 18 18 18 16 16 16 15 15 15 16 18 19 20 21 22 23 24 24 25 26 27 29 30 32 34 36 37 38 39 39 40 40 40 39

GEFSSGP_500_meanwind_072.txt.gz
Wind_Speed
9 9 9 9 9 9 9 11 10 9 5 4 3 4 3 3 2 0 1 2 3 3 3 3 3 3 2 1 1 1 2 3 4 6 6 7 7 8 8 9 9 9 10 10 10 10 9 8 8
12 12 12 11 10 11 12 12 13 10 8 7 5 4 5 3 3 2 3 3 3 3 4 4 3 3 2 2 2 2 3 4 5 6 7 8 8 9 9 10 10 10 11 11 11 11 10 10 9
15 14 14 13 11 12 15 14 13 12 11 9 7 6 5 5 4 4 4 4 3 3 3 4 3 3 3 3 3 3 4 5 6 7 8 8 9 10 10 10 11 12 12 12 12 12 11 11 10
17 17 16 14 13 14 16 15 14 12 12 9 7 7 7 5 5 4 4 3 3 3 3 3 3 3 3 4 4 5 5 6 7 8 9 9 10 10 11 12 12 13 13 13 13 12 12 12 11
19 18 17 15 16 17 18 19 17 15 12 10 8 7 8 5 5 4 3 3 2 2 2 3 3 4 4 5 5 6 7 7 8 9 10 11 12 12 13 13 14 15 15 15 14 14 14 13 12
21 19 18 16 17 19 20 21 19 20 18 13 9 11 8 6 5 5 4 3 2 2 3 4 4 5 6 7 7 8 9 10 11 12 13 13 14 15 15 16 16 17 17 17 17 16 15 15 14
21 20 18 16 17 19 19 20 21 21 23 19 12 9 9 8 7 6 5 3 3 4 5 5 6 7 8 9 9 10 11 12 13 14 15 16 17 17 17 17 18 18 18 18 18 18 17 16 16
20 19 18 17 19 19 19 20 21 22 23 20 14 11 10 10 10 9 6 4 4 5 7 7 8 9 10 11 11 12 13 14 15 16 17 17 18 19 18 19 18 19 20 20 20 19 19 18 18
18 17 17 18 20 20 20 21 23 24 23 22 16 11 13 11 10 10 7 5 5 7 8 9 10 11 11 12 13 13 14 15 16 16 17 17 18 18 19 19 19 19 20 20 20 20 20 21 20
13 13 15 18 20 21 21 22 24 24 24 24 18 12 12 12 10 10 8 5 6 7 8 10 11 12 13 13 14 15 15 15 16 16 16 16 15 16 17 18 18 19 19 19 20 20 19 20 21
8 8 11 14 17 20 21 24 24 24 25 21 16 14 11 12 11 10 8 5 6 7 8 9 11 12 13 13 14 14 14 14 14 14 14 15 15 16 16 16 17 17 17 17 18 19 19 19 20
7 5 7 12 15 18 20 22 23 23 24 20 17 15 13 13 12 10 8 6 6 7 9 9 10 11 12 13 13 12 12 12 13 13 13 14 14 14 14 15 15 15 15 16 16 17 18 18 19
8 5 5 9 13 16 19 20 21 21 20 20 19 17 14 13 13 12 8 6 6 8 9 9 9 10 10 10 10 10 10 11 11 12 13 13 13 13 14 14 15 14 14 15 15 16 16 17 18
11 11 9 9 12 14 16 18 19 20 19 18 18 17 15 13 12 11 8 6 6 7 8 8 8 8 8 8 8 8 8 9 10 11 12 12 13 13 13 14 14 14 14 14 15 15 16 17 18
12 12 12 12 12 12 13 14 15 15 15 17 17 15 16 12 11 10 10 7 6 6 7 8 9 9 8 7 7 8 7 8 10 11 11 12 12 13 13 13 13 13 13 13 14 14 15 16 17
12 12 13 13 13 12 11 12 13 15 15 15 13 13 13 11 10 10 9 7 6 6 7 8 8 8 8 8 8 7 7 8 10 11 11 12 12 12 12 12 12 12 12 13 13 13 14 15 16
13 14 15 13 12 13 12 12 12 13 11 8 6 7 9 10 10 9 9 6 6 5 6 7 7 7 7 7 7 7 7 8 9 10 10 10 10 10 10 10 11 11 11 12 12 13 14 14 15
15 16 16 15 14 13 13 12 13 13 10 7 4 2 6 7 8 8 8 7 6 5 5 6 6 5 6 7 6 6 6 7 8 9 9 9 10 10 10 10 10 10 11 11 11 12 13 14 15
16 17 17 16 15 15 15 14 13 11 8 7 4 2 2 4 6 7 8 7 6 5 4 4 4 4 5 6 6 6 6 7 8 8 9 10 10 11 11 10 10 11 11 11 11 12 12 13 14
15 15 16 16 15 16 15 14 13 10 8 7 5 2 1 3 4 6 7 5 4 4 3 3 3 3 4 4 5 5 6 7 8 9 9 10 11 11 11 11 11 12 12 13 13 13 13 13 14
14 14 15 15 15 14 13 10 11 10 8 8 7 5 4 4 5 5 4 4 4 3 3 2 2 2 3 4 5 6 6 7 8 9 10 11 12 12 12 12 12 13 13 13 14 14 14 14 15
13 13 14 14 14 15 11 7 8 9 8 9 8 7 6 5 5 4 4 5 4 3 2 1 1 1 2 3 4 6 7 8 9 10 11 12 13 13 14 13 14 14 14 15 15 15 16 16 16
13 13 12 12 13 12 8 5 7 7 9 10 9 8 8 6 5 4 4 4 2 2 2 2 2 1 2 3 4 6 7 9 10 11 12 13 13 14 15 15 16 16 17 17 17 17 17 18 18
12 11 10 10 11 10 5 4 6 7 8 10 9 8 7 6 5 4 3 2 1 1 2 2 1 1 2 3 5 6 8 9 11 11 12 13 14 15 16 17 17 18 18 18 19 20 20 20 21
12 12 11 10 10 10 6 3 4 6 7 8 8 7 7 6 5 4 3 2 2 2 2 2 2 2 3 4 5 7 8 10 11 12 13 14 15 16 17 18 19 19 20 21 21 22 22 23 23
11 13 12 12 11 11 7 2 2 4 5 6 6 6 5 5 4 4 3 2 1 2 2 2 2 3 4 5 6 8 9 10 12 13 14 14 15 17 18 19 20 21 22 23 24 24 25 25 26
13 13 13 13 11 10 7 3 2 1 3 4 4 3 3 3 3 2 1 0 1 2 3 3 3 4 5 7 8 9 10 11 12 13 14 15 16 17 19 20 22 23 24 25 26 27 28 28 29
14 14 14 14 13 10 5 2 3 3 1 1 1 2 2 2 2 2 2 2 2 3 4 4 4 5 7 8 9 11 12 12 14 15 16 17 18 19 21 23 24 25 26 27 28 29 30 31 31
17 18 17 15 14 12 10 8 7 7 5 3 1 1 2 2 3 3 3 3 3 4 4 5 6 7 8 10 11 12 13 14 16 17 18 19 20 21 23 25 26 28 29 29 30 32 32 33 33
18 18 17 16 16 15 14 11 9 9 8 6 4 5 5 4 4 4 4 4 4 5 6 7 8 9 11 12 13 14 15 16 17 18 19 21 22 23 25 27 28 29 30 31 32 33 34 34 34

GEFSSGP_500_meanwind_078.txt.gz
Wind_Speed
12 12 12 13 13 14 16 16 16 16 15 12 8 8 9 10 9 7 5 5 5 6 6 7 6 5 4 3 3 2 1 0 1 2 3 4 5 5 6 7 7 7 7 7 7 7 7 7 7
14 14 14 14 15 17 19 19 19 18 18 15 11 9 9 10 9 7 6 5 6 6 7 8 7 6 4 4 3 2 2 2 2 3 4 5 6 7 7 8 8 8 8 8 8 8 7 7 6
16 16 16 16 17 18 20 20 21 20 19 17 13 11 10 8 8 9 7 6 7 8 8 8 7 5 4 4 3 3 3 4 4 5 6 6 7 8 9 10 10 9 9 9 9 8 8 8 7
18 17 18 18 19 20 21 21 22 21 20 17 14 12 9 8 8 10 8 8 8 9 9 8 7 5 5 4 4 4 4 5 5 6 7 8 9 10 11 11 12 12 11 11 10 10 10 9 8
18 19 20 20 21 22 22 22 22 21 20 19 15 13 10 8 9 11 11 10 10 11 10 8 6 5 5 4 4 5 6 7 7 8 9 10 11 12 13 13 13 13 13 13 13 12 11 10 10
19 20 21 22 23 24 24 23 22 21 19 17 14 10 6 6 10 12 13 12 12 11 10 8 6 5 5 5 6 6 7 8 10 11 12 12 14 14 15 15 15 15 15 15 14 14 13 12 11
20 21 22 23 24 24 24 23 22 21 19 18 15 12 9 8 10 13 14 13 12 11 9 7 6 6 6 7 7 8 9 10 11 12 13 14 14 15 16 16 17 17 17 16 16 16 15 14 13
19 20 21 22 23 23 23 23 22 21 20 18 15 11 9 8 10 13 15 14 13 11 9 7 7 7 7 8 9 10 11 11 12 13 14 14 15 15 16 17 17 17 17 17 17 17 16 15 14
18 17 18 19 20 21 22 22 22 21 20 19 17 14 12 10 11 13 14 14 14 12 10 8 8 7 8 9 9 10 11 12 13 14 14 14 15 15 16 16 16 16 16 17 18 18 18 17 16
15 15 15 16 17 18 19 20 20 19 19 18 17 15 14 12 13 13 15 15 15 13 10 9 8 8 8 9 10 11 12 12 13 13 13 13 13 14 14 15 15 16 16 16 17 18 18 17 16
13 12 14 14 15 15 15 15 16 16 15 15 13 13 14 14 14 14 16 15 16 14 11 10 9 8 8 9 10 11 11 12 12 12 12 13 13 14 14 15 15 15 15 16 16 17 17 17 16
11 12 13 13 14 13 13 12 13 13 13 12 11 11 14 15 14 15 16 16 16 14 12 11 9 7 8 9 9 10 11 11 11 12 12 13 13 13 14 14 14 14 14 15 15 16 16 16 16
11 13 14 14 13 13 12 12 12 12 12 12 11 11 13 14 14 15 16 16 16 14 11 9 6 6 6 7 7 8 9 9 10 11 11 11 12 12 13 13 13 13 13 14 14 14 14 15 15
12 13 14 14 14 13 12 13 13 12 11 10 10 10 11 12 13 14 14 13 14 13 10 8 6 5 5 5 6 7 7 8 9 10 10 10 11 11 12 12 12 12 12 12 13 13 13 13 14
12 12 13 14 14 14 14 13 14 14 13 11 10 10 11 12 13 13 13 12 13 12 10 8 6 5 5 4 5 6 7 7 8 8 9 9 10 10 11 11 11 11 11 11 11 11 12 12 13
12 13 13 14 14 15 15 14 14 14 13 11 9 9 11 11 12 13 13 12 11 11 10 8 7 5 5 4 5 5 6 6 7 7 8 8 9 9 10 11 11 11 11 11 11 11 11 11 12
12 12 13 13 13 15 15 15 14 14 12 10 8 7 8 11 13 13 12 12 12 11 10 9 7 6 5 5 5 5 5 5 6 6 7 8 9 9 10 10 10 10 10 11 11 11 11 11 12
11 11 12 13 14 14 14 14 13 12 10 7 5 5 6 10 13 14 14 14 12 12 11 10 8 7 6 5 4 3 3 4 5 6 7 8 9 9 9 9 9 9 9 10 10 11 11 12 12
11 12 13 14 14 14 15 14 12 10 8 7 5 3 3 8 12 15 15 14 14 13 11 10 8 7 6 4 3 2 3 4 5 6 7 7 7 8 8 8 9 9 10 10 10 11 12 12 13
12 13 13 13 14 14 14 13 12 9 7 5 4 2 1 4 10 13 14 15 15 13 12 10 9 8 6 4 3 2 2 3 4 6 6 7 7 8 8 9 9 10 10 10 11 11 12 12 13
12 13 12 13 14 14 12 11 11 8 5 3 3 1 1 4 9 11 13 13 15 14 12 9 9 7 6 4 3 2 1 2 4 4 5 6 6 7 8 8 9 10 11 11 12 12 13 13 14
12 12 12 12 13 13 12 11 9 8 5 4 3 3 2 5 7 9 9 11 12 12 11 10 10 8 6 5 4 3 2 2 3 3 4 5 6 7 7 8 9 11 12 12 13 13 13 14 14
13 13 13 11 11 11 10 10 8 7 5 4 4 4 3 4 6 7 7 8 9 10 10 11 10 8 6 5 5 3 2 2 3 3 4 5 5 6 8 9 10 11 12 13 14 14 15 15 16
14 14 13 11 9 9 9 8 6 6 5 4 3 3 3 3 5 6 6 7 9 9 9 10 9 8 7 6 5 4 3 3 3 4 4 5 6 7 8 9 11 12 13 14 15 16 16 17 17
14 14 13 11 10 9 9 8 7 7 5 4 3 2 2 2 3 4 6 6 8 8 9 9 8 8 7 6 5 5 4 4 4 5 5 6 7 8 9 10 11 13 14 15 16 18 19 19 19
15 14 14 14 13 10 9 8 8 7 5 5 4 3 1 0 2 3 5 6 6 7 8 8 8 8 8 7 7 6 6 6 6 6 7 7 8 9 11 12 13 14 16 17 18 20 21 22 22
15 14 14 15 13 11 9 8 8 8 7 7 6 5 3 2 2 4 5 6 7 8 8 9 9 9 9 8 8 8 7 7 7 8 9 9 10 11 13 14 15 17 18 19 21 22 23 24 24
15 16 16 16 14 12 10 8 9 9 9 9 8 7 6 6 6 6 7 7 8 9 10 10 10 10 10 10 10 9 9 9 10 10 11 12 13 14 15 17 18 19 20 21 22 23 25 25 25
16 17 18 17 16 15 11 8 10 10 10 10 10 9 8 9 9 9 9 9 10 11 11 11 11 12 12 12 11 11 11 11 12 12 13 14 15 16 18 19 20 21 22 23 24 25 26 26 26
17 18 18 18 17 15 14 10 11 12 12 11 11 11 11 11 11 11 11 11 12 12 12 12 13 13 14 13 13 13 13 14 14 15 16 17 18 19 20 21 21 23 24 25 26 27 28 28 28

GEFSSGP_500_meanwind_084.txt.gz
Wind_Speed
12 12 13 13 13 13 14 15 15 15 15 14 13 12 12 12 13 14 14 14 13 11 10 9 8 8 8 8 7 6 6 5 4 3 2 1 1 1 1 2 2 2 2 2 2 2 2 2 2
12 12 13 13 13 14 16 16 16 15 15 15 14 11 11 10 13 13 13 14 13 11 10 9 8 8 8 8 8 7 6 5 4 4 3 3 3 3 3 3 3 3 3 3 2 2 2 2 2
13 13 13 14 14 14 17 17 17 16 15 14 13 11 10 10 11 13 13 13 13 12 10 9 8 8 8 8 8 7 6 5 5 4 4 4 4 4 4 4 4 4 4 4 4 3 3 3 3
13 13 14 15 15 16 17 17 17 17 15 14 11 10 10 10 12 15 14 13 13 12 10 9 9 9 9 9 8 7 6 5 5 5 6 6 6 6 6 6 6 6 6 6 5 5 5 4 3
14 14 14 15 16 17 17 17 17 17 15 13 10 9 9 11 12 14 15 14 14 12 11 10 10 10 10 9 8 7 6 6 6 6 6 6 6 7 7 7 8 8 8 8 7 7 6 5 5
14 14 13 14 16 17 17 17 16 16 14 12 10 9 9 11 12 13 15 15 15 13 12 11 11 10 10 8 8 7 7 6 6 6 6 7 7 7 8 8 9 9 9 9 9 8 8 7 7
13 13 12 13 14 16 16 15 15 14 13 12 11 10 9 10 11 13 15 16 15 14 12 12 11 11 10 9 8 7 7 7 7 7 7 7 8 8 8 8 9 9 8 8 9 9 8 8 8
13 12 12 12 13 14 14 14 14 13 12 12 11 9 9 10 11 13 15 15 15 15 14 13 12 11 10 9 8 8 8 8 7 8 8 8 8 8 8 9 9 8 8 8 9 9 9 10 10
13 12 11 12 12 13 12 11 11 10 10 10 10 10 10 11 13 15 15 16 16 16 15 14 12 12 11 10 9 9 9 8 8 8 8 8 8 8 8 9 9 9 9 9 9 8 9 9 10
13 12 11 12 12 12 10 10 10 9 9 10 10 10 12 13 14 15 16 17 18 17 16 15 14 13 12 11 10 9 8 8 8 8 7 7 7 8 9 9 9 9 9 9 8 8 8 9 9
13 12 13 13 12 12 10 10 10 9 9 9 10 11 13 15 16 17 19 20 19 19 18 16 15 14 13 12 11 9 8 8 7 7 7 6 7 7 8 8 8 8 8 8 8 8 8 9 9
13 13 14 13 12 11 11 10 10 10 10 9 10 11 13 15 17 19 20 22 21 20 20 18 16 15 14 12 11 9 8 7 6 6 6 6 6 6 7 7 7 8 8 8 8 8 8 8 9
13 14 14 13 12 12 12 12 11 10 10 10 9 11 15 16 19 21 21 22 21 21 20 17 16 14 13 12 11 9 7 6 5 5 5 5 6 6 6 7 7 7 7 7 7 7 7 7 7
14 15 15 14 13 13 13 13 12 12 10 9 8 10 14 17 19 20 20 21 20 19 20 18 16 13 12 11 9 7 6 5 4 4 4 4 5 5 5 5 6 6 6 6 6 6 6 6 6
14 15 15 14 14 14 14 14 13 12 10 9 9 9 11 14 17 18 19 20 21 19 19 19 16 14 12 11 9 7 6 5 4 3 3 3 4 4 4 5 5 5 5 6 6 6 5 5 6
13 15 15 15 15 15 15 15 14 12 11 9 9 9 10 12 15 17 18 19 20 19 20 19 16 14 13 11 9 7 5 4 3 3 2 2 3 3 4 4 5 5 5 5 6 6 5 6 6
14 13 14 16 15 16 16 16 15 13 12 9 8 8 9 11 14 16 17 18 20 19 19 18 17 15 13 11 9 7 5 4 3 2 1 2 2 3 3 4 4 5 5 5 5 6 5 5 5
11 12 14 15 16 16 17 17 16 14 12 10 7 7 8 10 12 16 17 18 19 19 19 19 17 15 13 11 8 7 5 4 3 2 1 1 1 2 3 4 4 5 5 5 5 6 6 6 6
12 13 14 15 15 15 16 16 16 14 12 9 5 5 6 7 10 14 16 17 19 20 19 19 16 15 13 10 9 7 6 4 3 2 1 0 1 2 2 3 4 5 5 6 6 6 6 6 6
12 13 14 14 15 16 15 15 15 13 12 9 6 4 3 5 7 11 15 16 17 18 19 19 17 15 13 11 9 8 6 5 4 3 2 1 1 2 2 3 4 5 6 6 6 6 6 7 7
11 13 14 14 15 15 15 14 14 12 12 10 7 4 3 4 6 9 13 15 17 17 18 18 15 15 13 11 10 8 7 5 4 4 3 2 1 2 2 2 4 5 5 6 6 7 7 7 8
12 13 14 14 14 14 14 13 13 12 11 10 9 5 3 2 3 7 12 14 16 17 17 17 16 14 13 12 10 9 8 6 5 4 3 2 1 1 1 1 3 4 5 5 6 7 7 8 9
12 13 14 13 13 13 13 12 12 12 11 10 9 7 4 2 1 5 10 13 15 16 16 16 15 14 13 11 11 9 8 7 6 5 4 3 2 2 1 1 2 3 4 5 6 7 9 10 11
13 13 14 13 13 12 12 10 10 11 10 9 8 7 5 3 1 2 6 11 13 15 15 15 15 14 13 12 11 10 9 8 6 6 5 5 4 4 4 3 4 4 5 6 7 8 10 11 12
13 14 13 12 12 12 13 10 9 9 9 8 6 5 5 4 3 1 3 7 10 13 15 15 15 14 13 12 11 10 9 8 8 7 7 7 6 6 6 6 6 6 7 8 9 10 12 13 14
14 13 12 11 11 12 13 10 10 9 8 7 6 5 4 4 3 2 2 5 7 10 12 13 14 14 13 13 12 11 10 10 9 9 9 9 9 8 8 8 8 9 9 10 11 12 13 14 15
15 12 11 12 12 10 10 12 12 11 9 8 7 6 5 4 4 3 2 4 6 8 10 12 13 13 13 13 13 12 12 11 11 11 11 11 11 11 11 11 11 12 12 13 13 14 15 15 16
14 13 12 11 11 10 10 11 11 12 10 9 9 8 6 6 5 4 4 5 6 8 9 11 12 13 13 13 14 14 13 13 14 14 14 14 14 14 14 15 15 15 15 16 16 16 17 17 18
14 13 12 12 12 9 9 10 13 12 10 10 9 9 8 7 6 6 6 6 7 9 10 11 12 12 13 14 15 16 16 16 16 16 17 17 17 17 18 18 18 18 19 19 19 19 19 19 19
14 13 13 12 12 11 10 11 14 12 11 11 10 10 10 10 9 8 8 8 9 10 11 12 12 13 15 16 17 18 18 18 19 19 19 20 20 20 21 21 21 21 22 22 22 22 22 22 22

GEFSSGP_500_meanwind_090.txt.gz
Wind_Speed
11 10 10 9 9 10 9 8 11 15 15 14 13 13 14 14 14 14 13 13 13 13 13 12 11 10 8 7 7 6 6 5 5 5 5 5 4 4 4 4 3 3 3 3 2 2 2 3 3
10 10 9 9 8 11 13 13 16 18 17 16 14 14 14 14 14 14 14 15 14 13 13 12 11 10 9 8 7 7 6 6 6 6 6 5 5 5 5 5 4 4 4 4 4 3 3 3 3
9 9 9 8 9 10 13 17 20 20 19 17 15 14 14 14 14 14 15 16 15 14 13 13 11 10 10 8 8 7 7 7 6 6 6 6 6 6 6 6 6 5 5 5 5 5 5 5 5
9 8 8 8 9 11 15 20 21 21 20 16 16 14 14 15 16 15 15 16 15 15 15 13 11 10 9 9 8 8 8 7 7 7 7 7 7 7 7 8 7 7 7 7 7 7 7 6 6
9 7 7 10 9 12 18 22 21 19 18 17 18 16 14 14 15 16 16 15 15 15 14 14 12 11 10 9 9 9 8 8 8 8 8 8 8 8 8 8 8 8 9 9 9 8 8 8 8
8 6 8 9 10 14 19 22 20 18 18 17 18 17 14 15 15 17 17 16 16 15 15 15 13 11 10 9 9 9 9 9 9 9 9 9 9 9 8 8 9 9 8 9 9 8 9 9 8
7 6 7 6 9 15 20 20 18 17 17 16 17 17 14 15 16 17 17 17 16 16 16 15 14 12 11 10 10 10 9 10 10 10 10 10 9 9 9 9 9 8 8 8 8 9 9 10 10
7 7 5 3 9 14 18 20 18 16 17 15 16 16 15 15 16 16 16 16 15 16 16 15 14 13 12 11 10 10 10 11 11 10 10 10 10 9 9 9 9 8 8 8 8 9 9 10 11
7 8 5 6 12 14 17 19 19 17 15 15 15 16 16 14 16 16 16 16 16 16 17 17 15 14 13 12 11 11 11 11 11 11 10 10 10 10 9 8 8 8 8 8 8 8 9 9 10
6 8 6 10 12 14 15 17 17 17 17 15 14 15 14 14 14 16 17 16 17 19 18 17 16 15 13 12 12 12 12 11 11 11 10 10 10 8 8 8 8 8 8 8 8 8 8 9 9
7 5 7 10 12 14 14 15 16 17 17 16 16 17 15 12 14 16 17 17 17 18 19 19 17 15 14 13 12 11 11 11 10 10 10 9 8 7 6 7 6 6 7 7 7 8 8 7 8
9 8 10 12 14 15 15 15 16 17 18 16 17 17 16 14 14 17 17 17 19 18 18 18 17 15 14 13 12 11 10 10 9 9 8 7 6 6 6 6 6 6 6 6 6 6 6 6 7
9 10 12 14 16 17 18 17 16 16 16 17 17 17 15 13 14 18 18 18 19 19 18 17 17 16 15 13 12 11 10 9 9 8 6 6 6 6 6 5 5 5 5 6 6 5 5 5 6
9 9 11 13 16 19 19 18 18 17 17 18 18 17 15 12 15 16 17 18 19 18 18 17 15 15 14 12 12 10 9 8 7 7 6 5 4 4 4 4 5 5 5 4 4 5 5 5 5
9 11 14 16 19 18 19 19 19 19 19 20 18 17 15 14 14 15 16 18 20 19 18 18 16 15 14 12 11 9 8 7 6 6 4 3 3 3 3 4 4 4 4 4 4 4 4 4 4
11 13 17 18 18 21 22 21 21 20 20 20 18 17 14 13 13 14 16 18 18 18 17 17 16 15 14 12 11 9 8 6 5 4 4 3 2 2 3 3 3 3 3 4 4 4 4 4 4
12 15 16 18 20 21 21 21 23 20 20 19 19 17 14 12 12 12 14 15 16 17 17 17 17 16 14 13 11 9 7 6 5 4 3 2 1 1 2 2 2 3 4 4 4 4 4 4 5
10 11 13 15 18 19 19 20 20 21 20 20 18 15 12 11 11 11 12 14 14 15 15 15 15 14 13 12 11 9 8 7 6 4 3 2 1 0 1 2 2 3 4 4 4 5 5 5 5
10 11 15 15 16 19 18 17 18 19 19 20 18 15 12 10 9 10 11 12 13 14 15 15 15 14 13 11 10 10 9 7 6 5 3 2 1 1 1 2 3 4 4 5 5 6 6 6 6
11 13 15 16 17 18 16 15 15 17 17 18 18 15 12 10 9 8 10 11 12 13 14 16 15 13 13 11 10 10 9 8 7 5 4 3 3 2 2 2 3 4 5 5 6 6 7 8 8
13 14 15 16 14 15 16 16 15 15 17 17 17 15 12 10 8 7 6 7 9 11 12 14 14 14 14 12 11 9 8 8 7 6 5 4 4 2 2 1 2 3 4 5 6 6 7 8 8
14 14 16 15 14 15 13 14 15 15 15 16 16 15 12 10 9 7 5 5 7 9 11 13 14 14 14 12 11 10 9 8 8 7 6 5 4 3 2 1 1 1 2 3 4 5 7 8 8
14 14 14 14 16 15 13 12 12 15 15 15 16 14 11 10 9 7 4 5 7 8 10 11 13 14 13 12 11 11 11 9 9 8 7 6 5 4 3 2 1 1 2 3 5 6 7 8 9
14 14 13 16 19 16 13 11 11 15 15 16 16 14 11 9 8 7 4 4 6 8 9 11 12 13 12 11 11 12 11 10 10 9 8 7 6 5 4 4 3 3 4 5 6 7 9 9 10
14 15 16 17 20 19 17 12 11 14 15 15 15 14 11 9 8 7 5 4 5 7 9 10 12 11 11 11 11 12 12 11 11 10 9 8 8 7 6 6 6 6 7 8 9 9 10 11 11
14 15 17 18 17 18 16 14 13 13 14 14 14 13 11 8 8 7 6 4 4 6 8 9 10 10 11 11 12 13 13 12 12 11 11 10 10 9 9 9 9 9 10 10 11 12 13 13 14
16 15 16 18 16 17 16 15 14 12 13 15 14 13 11 9 8 7 6 5 4 4 6 8 10 10 11 11 12 13 13 13 13 13 13 12 12 11 11 11 12 12 13 14 15 15 16 17 17
17 16 15 15 15 14 17 20 16 14 14 14 13 13 11 9 8 8 7 5 5 4 6 8 9 10 11 13 13 12 12 13 14 14 14 14 14 14 14 14 15 15 16 17 18 19 19 20 20
18 18 16 14 15 15 18 21 18 16 14 14 13 13 12 10 8 8 8 7 6 6 6 7 9 10 12 12 12 12 13 14 15 15 15 16 16 17 17 17 17 18 19 20 21 22 22 23 23
21 19 17 16 15 14 15 21 18 14 12 14 14 14 12 11 10 10 9 8 7 6 7 7 8 10 11 12 13 14 15 16 16 16 17 18 18 19 19 20 20 21 21 22 23 24 24 25 25

GEFSSGP_500_meanwind_096.txt.gz
Wind_Speed
7 7 7 6 6 6 7 9 11 14 15 16 16 16 16 14 13 10 11 10 10 9 9 10 10 9 7 6 5 4 5 5 5 5 5 6 6 6 7 7 7 7 7 7 7 6 6 6 5
8 7 6 6 7 8 9 10 12 15 17 18 17 16 15 14 14 12 12 10 11 12 11 10 11 10 9 7 6 6 5 5 5 5 6 6 7 7 7 8 8 8 8 8 8 8 7 7 6
8 7 6 6 6 8 10 12 15 17 19 20 19 17 17 14 13 12 11 11 11 12 12 12 12 11 10 8 8 7 6 6 6 6 6 7 8 8 8 8 9 9 9 9 9 9 8 8 7
7 7 6 6 7 9 11 15 17 20 22 21 19 19 18 15 12 11 11 10 10 12 13 13 13 12 11 10 9 8 7 6 6 6 7 8 8 9 9 9 10 10 10 10 10 10 10 9 9
5 5 4 7 9 11 13 17 20 21 23 21 19 19 18 15 11 10 10 11 10 11 13 15 15 13 12 10 9 8 7 6 6 7 8 8 9 9 9 10 10 10 10 11 11 11 10 10 10
3 3 6 7 9 12 15 18 22 23 22 20 19 17 17 14 11 10 11 11 11 12 13 15 16 14 13 12 9 8 7 7 7 8 9 9 9 10 10 10 10 10 10 10 10 10 10 9 9
3 5 6 6 9 11 16 19 20 22 21 21 19 16 16 15 12 11 11 11 12 13 13 14 16 15 14 12 10 9 8 8 8 9 9 9 10 10 10 10 10 10 10 10 10 10 10 10 10
4 5 5 6 9 11 15 19 20 20 20 19 18 17 17 17 14 11 11 12 11 12 13 14 15 16 15 13 11 10 9 8 9 9 9 10 10 10 10 10 10 10 10 10 10 10 10 10 10
4 4 6 8 10 13 16 18 19 19 18 17 18 17 17 17 15 12 11 11 12 13 14 15 15 16 15 14 12 10 10 9 9 9 9 10 10 10 9 9 9 9 9 9 9 9 10 10 10
3 4 6 9 10 13 15 17 19 20 18 17 17 17 17 17 14 12 10 11 12 12 13 14 16 16 16 15 12 11 10 10 9 9 9 9 9 9 9 8 7 8 8 8 9 9 9 9 9
3 4 6 8 10 11 13 17 19 20 19 18 18 19 18 16 13 11 9 9 11 13 13 14 15 16 16 16 14 13 11 10 10 9 9 8 8 8 7 7 7 7 7 7 7 8 8 8 8
2 4 6 8 10 12 14 16 18 20 20 20 19 19 17 14 11 9 8 8 10 12 13 14 16 16 16 16 16 14 11 10 9 9 7 6 6 6 6 6 5 5 6 6 6 6 7 8 8
4 5 6 8 11 12 14 16 18 19 19 20 19 18 16 14 10 7 6 7 9 11 13 14 16 15 15 15 15 13 10 9 8 7 6 6 5 5 5 4 5 5 5 5 5 5 6 6 6
4 5 7 10 12 13 14 17 19 21 20 21 19 17 14 13 10 7 5 5 8 10 12 13 13 14 13 13 13 12 10 8 8 7 7 6 5 4 4 3 3 3 4 4 4 3 4 5 5
3 5 8 11 13 14 15 17 19 22 22 22 19 16 15 13 10 9 7 6 8 10 12 12 11 12 12 12 12 11 10 9 8 7 7 6 5 4 3 2 1 1 1 1 1 1 2 3 3
3 6 9 12 15 15 16 18 19 21 21 20 18 17 14 12 10 9 8 6 8 10 11 10 11 12 12 12 12 11 10 9 8 7 7 6 5 4 3 2 2 1 1 1 1 1 1 2 2
5 7 11 14 16 18 18 19 18 19 18 17 16 16 14 11 9 8 8 8 9 11 11 11 12 13 13 13 12 11 10 9 8 8 7 6 5 4 3 3 3 2 2 2 2 2 2 2 3
5 8 11 14 16 18 19 20 21 19 18 16 15 15 13 11 10 9 6 7 8 11 12 11 12 13 13 13 13 12 11 10 8 8 7 6 6 5 4 4 4 3 3 3 3 3 3 4 4
6 9 13 15 16 18 19 20 20 19 18 15 14 14 13 12 10 9 6 4 6 9 11 12 12 13 13 13 13 12 11 10 9 9 8 7 7 6 6 5 5 4 4 4 5 5 5 5 5
7 11 14 15 16 19 19 19 19 17 15 13 12 12 12 12 10 9 6 3 6 7 10 13 12 12 13 13 13 12 12 11 10 10 9 8 8 7 7 6 6 5 5 5 5 5 5 6 6
7 12 15 16 17 18 20 18 18 15 12 12 11 11 11 11 10 8 6 2 4 7 10 11 11 12 13 13 13 13 13 12 11 11 10 10 9 8 8 7 6 6 5 4 4 4 4 4 5
9 12 15 16 17 17 17 16 15 15 10 9 9 10 10 10 9 8 6 3 3 7 8 10 11 11 13 13 13 13 14 13 13 12 12 11 10 9 9 8 7 6 5 4 3 2 3 3 4
10 13 15 16 18 18 17 17 15 12 7 5 8 9 8 8 8 8 6 4 1 5 7 9 10 11 12 13 13 13 14 14 14 14 13 12 11 10 9 8 8 7 6 4 3 1 1 1 2
12 14 16 16 18 19 18 16 15 11 7 5 6 8 7 6 7 7 6 4 1 3 5 8 10 11 11 13 14 14 14 15 15 15 14 13 12 11 10 9 9 8 7 5 4 3 2 2 3
14 15 17 18 17 18 18 17 13 9 7 5 5 6 6 6 7 7 6 4 1 1 5 7 10 11 11 13 14 15 16 15 15 15 15 14 13 12 11 10 10 9 8 7 6 5 5 5 5
12 15 18 19 18 17 17 17 13 9 8 6 5 6 6 5 5 5 5 4 2 1 4 7 9 10 11 13 14 16 17 16 16 16 16 15 14 13 13 13 12 12 11 10 10 9 8 8 8
12 14 16 18 18 18 18 17 13 10 10 7 7 6 6 4 3 3 3 3 2 1 3 6 9 10 11 12 13 15 15 16 16 16 17 17 16 15 15 15 14 14 14 13 13 12 12 12 12
16 15 16 18 19 20 19 18 16 13 10 7 6 6 5 4 4 3 3 3 3 2 2 5 7 8 11 12 13 14 16 17 17 17 18 18 17 17 17 17 17 17 17 16 16 16 16 16 15
18 19 19 19 20 21 21 19 18 16 11 8 7 5 5 5 4 4 3 3 4 3 2 4 6 8 10 11 13 14 16 17 18 18 19 19 19 19 19 19 19 19 19 19 19 19 19 19 19
22 21 21 22 22 23 22 19 19 16 13 10 9 7 6 5 4 4 4 4 4 4 3 4 5 8 11 12 14 15 17 18 19 19 20 20 21 21 21 21 21 22 22 22 21 22 22 22 22

GEFSSGP_500_meanwind_102.txt.gz
Wind_Speed
10 10 10 9 8 8 8 9 11 11 11 10 10 10 9 8 8 7 6 7 8 9 10 11 11 11 10 8 7 6 4 3 1 1 2 3 4 5 6 7 8 8 8 9 9 9 8 8 7
10 10 10 9 8 9 9 10 11 11 11 11 11 12 11 10 10 8 8 8 9 11 12 13 13 12 11 9 8 6 5 3 2 0 1 3 4 5 6 7 8 9 9 9 9 9 8 8 7
11 10 9 9 8 9 10 11 11 11 12 12 11 12 12 11 11 9 9 9 10 11 13 15 14 13 12 10 9 7 5 4 2 1 2 3 4 5 7 8 9 9 9 9 9 9 8 8 7
11 10 9 9 9 10 10 11 11 12 12 12 12 12 13 12 11 11 9 9 9 11 13 15 16 15 13 11 9 7 6 4 3 2 3 4 5 6 7 9 9 9 9 9 9 9 8 7 6
11 10 10 10 10 10 11 12 12 13 13 13 14 13 14 13 12 11 10 9 9 11 13 14 15 16 15 13 10 8 7 5 4 3 3 4 5 6 7 9 9 9 9 9 9 8 7 7 6
10 11 11 11 10 10 10 12 13 13 13 14 15 15 15 13 12 12 10 9 9 11 14 15 16 16 15 13 12 10 8 7 5 5 4 5 5 6 8 9 9 9 9 8 8 8 7 7 6
10 11 11 11 10 10 11 12 13 14 14 15 15 15 14 14 12 11 10 10 11 13 15 15 15 15 15 14 13 11 9 8 6 6 5 5 6 7 8 9 9 9 8 8 8 8 7 6 6
11 11 10 10 10 10 11 13 14 15 15 15 15 14 14 14 13 12 11 10 12 14 15 15 15 15 15 15 14 12 10 9 7 6 6 6 6 7 8 9 9 9 8 8 7 6 6 6 6
11 10 10 10 10 10 12 13 15 15 16 16 15 16 15 14 13 12 12 10 12 13 14 15 15 15 15 15 14 13 11 9 8 8 7 7 7 7 8 9 8 8 7 7 7 5 5 5 5
10 10 11 11 11 11 12 14 16 16 17 16 16 16 16 16 14 12 11 10 10 13 14 16 16 16 16 15 14 13 11 10 9 8 7 7 7 8 8 8 7 7 7 6 6 5 4 4 4
10 10 11 11 11 11 12 15 16 17 17 16 16 16 17 16 14 11 10 9 9 12 15 17 17 16 16 15 15 14 12 11 9 8 8 8 8 8 7 7 6 6 6 6 6 5 4 4 3
10 10 9 10 10 11 13 15 16 17 17 17 17 17 17 15 12 10 8 9 10 12 15 17 17 16 16 15 15 14 13 11 10 9 8 8 8 6 6 5 5 5 5 5 5 4 4 3 3
8 8 7 8 9 11 13 15 16 17 18 18 18 18 16 14 11 8 5 6 8 11 14 16 17 17 16 16 16 15 13 12 10 10 9 8 7 5 5 4 4 4 4 4 4 4 3 3 3
8 6 6 7 8 10 12 14 14 16 17 18 19 17 17 14 11 8 4 3 7 10 13 15 16 17 16 16 16 15 14 13 11 10 9 8 6 5 4 4 4 3 3 3 3 3 2 1 1
8 6 7 7 8 10 12 14 14 16 17 18 18 18 16 13 10 7 4 4 6 8 12 15 16 16 15 16 16 15 15 13 12 10 9 7 6 5 4 3 3 2 2 2 2 1 1 1 1
9 8 8 8 9 11 13 14 15 17 18 19 18 17 15 12 9 5 4 6 7 9 11 14 15 16 15 15 15 15 14 13 12 10 8 7 6 5 4 3 2 2 1 1 1 1 1 1 1
12 10 10 10 11 13 13 14 16 17 19 19 18 16 13 11 8 6 4 5 7 10 11 13 14 15 14 15 16 15 14 13 12 10 8 8 7 6 5 4 3 2 1 1 1 2 2 2 2
13 12 12 12 12 12 13 15 16 17 18 18 17 15 13 10 8 6 5 5 7 10 12 13 14 15 15 15 15 15 15 13 12 11 10 9 8 7 6 5 4 3 2 1 2 2 3 3 3
15 14 13 13 13 13 14 15 17 17 17 16 15 14 14 11 9 7 6 5 6 8 12 15 15 15 16 16 16 16 15 13 13 12 11 10 9 8 7 6 5 4 3 2 2 2 3 3 3
17 16 15 14 14 14 14 16 17 17 17 15 13 13 13 12 9 7 5 5 6 7 10 13 15 16 16 16 16 16 15 14 14 13 13 11 10 9 8 7 6 5 4 3 2 2 3 3 3
17 17 17 16 15 14 14 15 16 16 15 14 13 12 12 12 10 7 5 5 5 8 9 14 15 16 15 16 17 16 15 15 15 15 13 12 11 10 9 8 7 6 5 4 3 2 2 2 3
18 18 18 16 15 14 14 15 14 16 15 14 13 11 11 11 10 8 6 4 6 8 9 12 14 15 14 14 15 16 14 14 15 15 14 13 12 11 10 9 8 7 6 5 4 3 2 2 2
18 18 18 16 15 14 15 15 14 15 14 13 12 11 11 10 9 8 6 3 3 7 10 11 14 15 14 13 15 16 15 15 15 15 15 14 13 12 12 11 10 9 8 7 6 5 4 3 3
17 18 18 16 15 14 14 14 13 14 14 12 11 11 10 9 8 7 6 4 2 5 8 11 14 15 15 14 16 16 15 15 15 15 15 15 14 14 13 12 11 10 9 9 8 7 6 6 5
17 17 18 16 14 12 13 12 13 12 12 11 11 10 10 9 8 7 6 4 2 4 6 10 13 14 16 15 16 17 16 16 16 15 15 15 16 15 14 14 13 12 11 11 10 10 9 9 9
17 18 18 17 14 12 11 11 12 10 10 11 11 11 9 8 8 7 5 3 2 3 5 8 11 14 15 14 15 16 16 16 16 16 16 17 17 16 16 15 15 14 14 14 13 13 12 12 11
17 17 17 18 16 14 12 11 9 8 10 11 11 11 10 8 7 6 5 4 3 2 5 7 11 13 14 14 15 15 16 17 17 17 18 18 18 18 17 17 17 17 17 17 16 16 16 15 15
18 17 18 18 18 16 13 11 10 10 10 10 11 11 9 8 7 7 6 5 4 3 4 7 10 12 14 15 15 16 16 17 18 19 19 19 19 19 19 19 19 19 19 19 20 20 19 19 19
20 20 19 19 19 18 16 12 12 12 10 10 11 11 10 8 8 8 7 6 6 5 5 7 9 12 13 14 16 17 17 18 19 20 20 20 20 21 21 21 21 21 22 22 23 23 23 23 23
24 23 22 21 19 18 17 13 13 12 12 11 11 11 10 8 8 8 8 8 8 7 6 6 8 10 12 14 15 17 18 19 20 21 21 21 22 22 23 23 23 24 25 25 26 26 26 26 27

GEFSSGP_500_meanwind_108.txt.gz
Wind_Speed
10 10 9 9 9 9 8 8 8 7 6 5 4 3 2 2 3 4 6 8 9 11 11 13 14 13 13 12 11 10 9 8 7 6 6 5 4 3 3 3 3 3 3 3 4 4 4 4 4
10 9 9 9 9 8 9 9 9 9 7 6 5 4 3 4 4 5 6 8 10 11 13 14 14 14 14 13 12 11 10 8 7 6 5 4 3 3 2 3 3 3 2 3 3 3 3 3 3
10 9 9 9 9 7 8 10 10 9 8 7 6 5 4 5 5 6 7 9 11 12 13 15 16 16 15 14 13 12 11 9 8 6 5 4 3 2 2 2 2 2 2 2 2 2 2 2 2
9 9 9 9 8 8 9 9 9 9 8 7 6 6 5 6 6 6 7 8 11 13 13 15 17 17 16 15 14 13 12 10 9 7 5 4 3 2 1 1 2 2 2 1 1 1 1 1 2
9 9 9 9 8 9 9 9 9 9 8 8 8 8 7 7 7 7 7 8 10 13 13 15 17 17 17 16 15 14 13 11 9 7 6 4 3 2 1 1 1 1 1 1 1 1 1 1 2
9 9 8 6 8 10 9 9 9 9 10 10 9 9 9 9 9 8 7 8 10 13 15 15 17 18 17 17 16 15 13 12 10 8 6 5 3 2 1 0 1 1 1 1 1 0 1 1 2
9 8 8 7 9 10 10 10 10 10 10 11 11 11 10 10 10 9 8 8 10 13 16 17 17 17 18 17 16 16 14 13 10 8 7 5 4 3 1 1 1 1 1 1 1 1 1 2 2
9 8 8 8 9 10 10 10 10 11 11 12 12 12 11 11 11 10 9 9 10 12 15 17 17 18 18 18 17 16 15 13 11 9 7 6 4 3 2 2 2 2 1 1 2 1 1 2 2
8 7 6 7 8 9 10 10 11 12 13 13 13 12 12 12 11 10 10 10 10 12 14 16 17 18 19 18 17 16 15 14 12 10 8 6 5 3 2 2 2 2 2 2 2 2 2 2 3
7 6 6 7 8 9 10 11 12 13 14 14 14 13 13 13 11 11 10 9 11 13 14 15 17 19 20 19 17 17 16 14 12 10 8 7 5 4 3 3 2 2 2 2 2 2 2 2 3
7 6 7 8 9 10 10 12 13 14 14 15 15 15 14 13 13 12 10 9 10 12 14 16 17 18 20 19 18 17 16 15 13 11 8 7 5 4 3 3 2 2 2 2 3 3 3 3 3
8 7 8 9 9 10 11 13 14 14 13 14 15 15 15 14 14 12 11 9 10 12 13 16 18 18 19 19 17 16 15 14 13 11 9 7 5 4 3 3 2 2 2 3 3 3 3 3 4
9 9 9 9 10 11 13 13 15 14 14 14 14 14 15 14 14 12 10 9 10 11 13 16 18 19 20 20 18 17 15 15 13 11 9 7 6 4 4 3 2 2 2 2 3 3 3 3 4
9 10 10 11 11 12 14 14 15 15 15 15 15 15 14 14 14 11 9 8 9 11 13 15 17 18 19 19 18 17 15 15 14 11 9 8 7 5 4 3 2 2 2 2 2 2 2 3 3
10 10 11 12 12 13 14 14 16 16 15 15 15 15 14 13 13 11 10 8 9 11 13 15 17 18 19 19 18 17 16 14 13 11 9 8 7 6 5 4 3 2 2 2 1 1 2 2 2
10 9 10 12 12 13 13 13 16 15 16 15 15 14 13 12 12 10 8 7 8 10 13 15 16 17 19 19 18 17 15 15 13 11 10 8 7 6 5 4 3 3 2 2 1 1 1 1 1
10 10 10 12 13 13 14 14 16 16 16 15 15 14 12 11 10 9 7 6 7 10 12 14 16 17 17 18 18 17 16 14 13 11 10 9 7 7 6 5 4 3 2 2 2 1 1 0 0
12 11 11 12 12 13 14 15 16 16 15 15 14 12 11 10 9 8 6 5 6 8 11 13 15 17 17 17 18 17 16 14 13 11 10 10 8 7 7 6 5 4 3 2 2 1 1 1 1
13 12 11 12 12 12 14 15 16 15 15 14 12 11 11 9 9 7 5 5 6 7 10 13 15 16 16 17 17 16 16 15 14 12 11 10 10 9 8 7 6 5 4 3 3 2 1 1 1
13 12 12 12 12 12 13 14 14 14 15 14 12 11 11 10 8 7 7 6 7 7 9 11 14 15 15 17 17 16 16 16 13 12 11 11 11 10 9 8 7 6 4 4 3 2 2 1 1
13 13 12 12 11 12 12 12 14 14 14 13 12 12 11 10 8 7 7 6 6 6 8 11 13 15 15 16 16 16 16 15 14 12 11 12 11 11 10 9 8 7 5 4 4 3 2 2 1
14 14 13 11 10 10 11 10 13 13 13 13 13 11 10 9 8 7 6 5 5 5 6 10 12 13 15 15 15 15 15 15 15 13 13 13 12 12 12 10 9 8 7 6 5 5 4 3 2
16 15 13 12 11 10 11 10 11 12 13 13 12 10 9 9 8 6 6 5 5 5 6 9 11 13 14 14 14 14 15 15 15 14 14 13 13 13 13 12 11 9 8 7 6 6 5 5 4
16 14 13 11 11 11 11 11 9 11 11 11 10 9 10 9 7 6 5 5 5 5 6 8 11 13 14 15 15 14 15 16 15 14 14 13 13 13 14 13 12 11 10 9 8 8 8 7 6
16 14 12 11 11 11 12 11 9 10 10 10 9 9 10 9 7 6 5 5 5 6 6 7 11 14 14 15 15 14 15 16 16 15 14 14 14 14 15 15 13 13 12 11 11 10 10 10 9
17 15 14 12 11 11 13 11 10 10 11 10 9 9 9 9 8 6 5 5 5 5 6 7 10 13 14 15 16 15 16 17 16 16 15 15 15 15 16 16 15 15 14 14 13 13 13 13 12
18 16 15 14 13 11 11 12 11 10 10 10 10 9 9 9 7 6 6 6 6 5 5 7 8 10 13 14 15 16 16 16 17 16 16 16 16 16 16 16 17 16 16 16 16 16 16 16 16
18 17 16 14 13 11 11 11 11 11 10 10 10 10 10 9 8 6 6 6 6 5 5 5 6 8 11 14 15 16 16 16 17 17 17 18 17 17 17 18 18 18 19 18 19 19 19 19 19
19 18 17 16 14 12 11 11 12 11 11 10 10 10 10 9 8 7 6 6 6 5 5 5 6 8 10 13 15 16 16 16 16 16 17 18 18 19 19 19 20 20 21 21 21 21 21 22 22
20 19 19 18 17 15 13 12 13 12 11 11 11 11 11 10 9 7 7 7 7 6 6 6 7 8 10 12 14 16 17 17 17 17 18 19 19 20 21 21 22 22 22 23 23 24 24 25 25

GEFSSGP_500_meanwind_114.txt.gz
Wind_Speed
11 10 10 8 11 13 12 11 12 12 12 11 9 9 9 9 10 10 10 10 11 12 12 13 13 12 12 11 10 10 9 8 8 7 7 6 5 4 3 2 1 1 1 1 1 1 1 1 1
10 9 9 9 11 14 12 12 13 13 13 11 10 9 10 10 11 11 12 12 12 12 13 14 14 14 14 12 11 11 10 9 8 8 7 6 5 4 3 3 2 1 1 1 1 1 1 2 2
9 7 9 9 13 12 11 13 13 13 13 12 11 10 11 11 12 12 13 13 12 13 14 14 14 15 15 14 12 11 10 10 9 8 7 7 6 5 4 3 2 2 2 2 2 2 2 2 2
7 7 8 11 11 8 11 13 13 13 13 13 13 12 12 12 13 13 13 12 12 13 14 14 15 15 15 14 13 12 12 11 10 9 8 7 6 5 4 3 3 3 3 3 2 2 3 3 3
6 6 8 9 7 7 13 14 14 14 14 14 15 15 13 13 13 13 14 13 12 13 14 15 16 16 16 16 15 14 13 12 11 10 9 8 6 5 4 4 3 3 3 3 2 3 3 4 4
6 8 9 8 7 8 13 14 15 14 14 15 15 16 13 14 13 13 14 14 12 12 14 16 17 17 17 16 16 15 15 13 12 11 10 8 7 6 5 5 4 4 3 3 3 3 3 4 4
5 7 7 6 7 11 12 14 15 16 16 16 17 18 15 13 13 14 14 14 13 12 14 16 17 17 17 18 17 16 15 14 12 11 10 8 7 6 6 5 5 4 3 3 3 3 3 4 4
4 4 4 3 5 10 12 13 14 15 17 17 17 18 17 17 15 15 15 15 13 12 13 15 16 17 17 18 17 17 16 14 13 12 10 9 8 7 6 5 4 4 4 4 3 3 4 4 4
4 3 4 5 7 10 12 13 15 16 16 17 16 17 18 18 17 16 16 15 12 12 14 15 16 17 18 18 18 17 16 15 13 12 10 9 9 8 6 5 5 5 4 4 4 4 4 4 4
2 2 3 4 8 10 11 13 14 16 17 19 19 16 18 19 18 17 16 15 12 11 12 12 14 16 17 18 18 18 17 15 15 13 11 10 9 7 6 5 5 5 5 4 4 4 4 4 5
2 1 3 6 9 10 11 12 14 15 18 20 20 20 19 19 18 17 16 14 13 13 12 12 14 15 16 17 18 17 16 16 15 14 12 10 8 6 5 5 5 5 4 4 4 3 3 4 4
5 4 5 7 9 11 12 12 13 15 18 20 20 21 20 20 19 17 16 16 14 14 13 14 15 15 16 17 18 16 16 15 14 13 10 8 7 6 5 5 4 4 3 3 3 2 3 3 4
7 6 7 9 10 11 13 13 14 14 16 20 20 20 21 20 20 18 15 15 14 15 14 13 14 14 15 17 17 16 16 14 13 12 10 8 7 6 4 4 4 3 3 2 2 2 2 2 3
6 7 9 9 9 11 12 13 16 16 16 20 20 20 21 21 20 18 16 14 14 13 13 13 14 13 14 15 15 15 14 13 12 11 9 8 8 6 4 4 3 3 2 2 1 1 1 2 2
5 7 8 8 7 11 13 15 18 17 18 20 20 20 20 20 20 17 15 14 13 12 11 12 13 13 13 14 14 15 14 13 12 11 10 9 8 7 5 4 4 3 2 1 1 1 1 1 1
5 7 10 11 7 10 13 15 19 17 18 20 20 20 20 19 19 16 15 14 12 11 10 12 11 12 12 13 13 14 14 13 12 11 10 9 8 7 6 5 4 3 2 1 0 1 1 1 1
5 9 11 12 9 11 13 15 19 16 18 21 20 19 18 17 17 15 13 12 10 9 9 9 10 11 11 11 13 14 15 14 12 12 10 9 8 7 7 6 5 4 3 1 0 1 2 2 2
9 9 11 12 9 12 14 14 17 17 18 20 21 20 18 17 16 14 12 11 9 8 7 8 9 10 11 11 12 12 13 13 12 12 11 9 8 8 7 6 5 4 3 2 1 2 2 2 3
12 12 13 13 11 13 15 14 15 17 17 19 20 20 19 17 15 13 10 8 7 6 5 7 8 9 10 11 11 11 11 12 12 12 11 10 9 9 9 8 6 5 4 3 2 2 2 2 3
15 16 14 13 13 14 14 14 16 17 17 18 19 19 19 17 13 11 10 7 6 5 5 5 7 8 9 11 11 11 11 11 11 11 11 10 9 9 10 9 7 6 5 4 2 1 1 1 2
16 15 14 14 14 14 15 15 16 17 16 16 17 18 17 15 12 10 8 7 6 5 4 4 6 8 9 10 10 10 11 11 11 11 11 10 10 10 10 9 8 7 6 5 3 2 0 0 0
15 13 14 15 15 16 16 17 17 16 15 16 15 16 15 13 11 10 8 7 6 6 5 4 5 8 9 9 10 10 11 11 11 12 12 11 10 10 10 10 9 8 7 6 5 4 3 2 2
15 14 15 15 16 15 15 16 15 15 15 15 17 16 15 13 12 10 8 7 6 6 5 4 5 7 8 9 10 10 11 12 12 12 12 11 11 11 11 11 10 9 8 7 7 6 5 4 4
15 15 16 15 14 15 15 16 13 14 16 16 16 16 15 13 12 11 10 8 7 6 5 4 4 6 8 9 10 10 11 11 12 13 13 12 11 11 12 12 11 10 10 9 9 8 7 7 7
15 15 14 13 15 16 14 12 10 12 15 16 16 15 14 12 12 10 10 8 6 6 5 5 5 6 7 9 10 11 11 12 13 13 13 13 12 12 12 13 12 11 11 11 11 10 10 10 10
15 15 15 15 17 18 15 13 9 11 12 14 16 15 13 12 11 10 9 8 6 6 5 5 5 7 9 10 11 11 12 13 13 14 13 13 14 14 14 14 14 13 12 13 13 13 13 13 13
15 15 14 16 17 18 17 14 11 12 10 13 15 15 13 12 11 10 10 8 7 6 6 6 6 7 9 11 12 12 12 13 14 14 14 13 14 14 15 15 15 15 15 15 15 15 16 16 16
16 15 15 16 17 17 17 18 17 10 8 11 14 15 13 12 11 9 9 8 7 7 6 6 6 7 8 10 12 13 13 13 14 14 14 14 14 15 15 16 16 17 17 17 17 18 18 19 19
14 16 18 17 17 17 18 20 18 12 8 12 15 15 14 13 10 9 9 8 8 7 7 6 6 6 7 9 11 12 13 14 14 14 15 15 16 16 16 17 17 18 19 19 19 20 20 21 21
15 16 16 19 19 18 17 19 19 14 11 11 14 15 15 14 12 11 9 9 8 8 7 6 6 6 5 6 8 11 13 14 15 15 15 17 17 18 18 18 19 19 20 21 21 22 22 23 24

GEFSSGP_500_meanwind_120.txt.gz
Wind_Speed
8 8 8 7 8 10 13 16 16 15 14 13 11 10 10 10 9 8 6 5 4 3 4 5 6 7 8 8 8 8 7 7 5 5 5 5 6 6 6 6 5 5 5 4 4 4 3 3 2
7 7 8 9 8 10 14 16 16 15 15 14 12 11 11 10 9 8 7 6 5 4 4 5 7 7 8 9 9 9 8 7 6 6 6 6 6 6 6 6 6 6 5 5 4 4 3 3 3
6 6 7 8 9 11 13 15 17 17 15 15 14 13 13 12 9 8 7 7 5 5 5 5 7 8 9 10 10 10 9 8 7 7 6 6 6 7 7 7 6 6 6 5 5 4 4 3 3
5 4 5 5 7 10 13 15 17 17 17 15 15 15 13 13 11 10 8 7 6 6 6 6 7 8 10 10 11 11 10 9 8 7 7 6 7 7 7 7 6 6 5 5 5 5 4 4 4
3 4 4 4 7 10 12 15 16 18 18 17 16 16 15 14 12 11 9 8 7 7 6 6 8 9 10 11 11 11 11 10 10 8 7 7 7 7 7 7 6 6 6 5 5 5 4 4 4
1 1 3 4 6 9 11 13 16 18 18 16 17 17 16 15 13 12 11 8 8 7 6 6 8 9 10 11 12 12 12 12 11 9 8 7 7 7 7 7 6 6 6 5 5 5 5 4 4
1 1 1 4 6 9 12 14 17 18 18 18 18 17 16 15 14 13 11 10 8 8 6 6 7 9 10 12 12 13 12 12 11 10 9 9 8 8 7 6 6 6 5 5 5 5 4 4 4
2 1 0 2 6 9 11 14 16 17 18 19 18 17 17 16 14 13 13 11 9 8 7 6 8 10 11 12 13 13 13 12 12 11 10 10 9 8 7 7 6 6 6 6 6 5 4 4 3
3 2 1 1 5 7 9 12 15 18 18 18 18 18 17 17 15 14 13 11 9 8 8 8 8 10 11 13 14 14 14 13 12 12 11 10 9 8 8 7 6 6 6 6 5 5 4 3 3
5 5 4 3 4 6 8 11 15 17 18 18 17 18 18 17 17 15 12 11 10 8 7 8 9 10 11 12 14 15 14 13 13 12 11 11 10 9 8 7 6 6 5 5 5 4 4 3 3
7 7 7 6 5 7 8 10 13 15 17 18 18 18 18 18 18 17 14 12 10 7 8 8 10 11 11 12 13 14 14 13 13 12 12 10 10 9 8 7 6 5 5 4 4 4 3 3 2
9 9 9 7 6 7 8 10 12 14 17 19 18 18 18 19 19 19 16 12 10 8 7 8 9 10 11 12 13 14 14 14 14 12 12 11 10 9 8 6 5 4 4 4 4 3 3 2 2
11 12 11 9 7 8 9 10 11 14 17 18 18 19 19 19 19 19 17 13 10 8 8 8 8 10 11 12 14 14 14 14 13 12 12 11 10 9 8 6 5 4 4 3 3 3 2 2 1
12 12 10 8 7 9 9 9 11 14 17 17 18 19 19 19 19 18 16 13 10 8 9 9 10 11 11 12 13 15 15 14 14 13 12 11 11 10 8 6 5 4 4 3 2 2 1 1 1
10 10 8 7 7 9 9 9 10 13 16 18 19 20 19 18 19 18 14 12 11 9 9 9 9 10 9 11 12 14 15 15 15 14 12 12 11 10 9 7 5 5 4 3 2 1 1 1 1
10 9 7 7 7 8 9 9 10 13 17 19 20 20 19 18 18 17 14 11 11 9 7 6 8 8 9 10 11 12 14 14 15 14 13 12 11 10 9 8 7 6 5 3 3 2 2 2 2
10 10 9 7 8 8 11 11 11 14 17 19 20 20 18 18 18 16 13 10 9 7 6 4 6 6 7 9 10 11 13 14 15 14 13 12 11 10 9 9 8 7 6 5 4 3 2 2 2
13 12 11 9 9 9 11 12 12 14 18 20 20 21 18 17 16 15 12 9 8 7 4 3 5 5 7 9 10 12 13 14 15 15 14 13 12 10 10 10 9 8 7 6 5 4 4 3 3
15 15 13 11 10 11 12 13 13 15 18 21 20 20 18 17 15 13 10 7 6 5 2 3 4 5 7 9 10 12 13 15 16 16 16 14 12 11 11 11 10 9 8 7 6 5 4 4 4
16 15 13 12 11 14 15 15 15 17 18 19 19 17 16 15 14 12 8 5 4 4 1 4 4 5 7 8 10 12 13 16 17 17 16 15 13 12 12 12 11 9 9 8 7 6 5 5 4
16 14 12 12 14 17 17 17 17 18 18 18 17 15 14 12 12 10 6 4 4 3 1 2 2 4 7 9 10 11 11 12 15 17 16 15 14 13 13 13 12 10 10 9 8 7 6 5 4
16 14 13 14 16 18 18 18 17 19 19 18 15 13 12 10 10 8 5 4 4 3 2 0 2 4 6 9 10 11 12 13 14 15 16 15 14 14 13 13 12 11 10 10 9 8 7 5 5
14 14 15 17 18 18 18 19 17 17 16 15 13 10 9 9 9 7 6 5 3 3 2 1 2 4 6 8 10 11 12 14 14 14 14 14 14 14 14 13 13 12 11 10 10 9 8 7 6
15 15 17 19 18 17 16 17 16 16 16 13 9 7 7 8 8 7 6 5 4 3 2 1 2 4 6 8 10 11 12 13 14 14 14 14 15 14 14 14 14 13 12 12 11 10 9 9 8
15 16 17 18 17 14 13 14 13 15 14 11 7 6 6 6 7 7 6 5 4 4 3 1 2 4 6 7 10 11 12 12 13 14 15 15 14 15 15 15 15 14 14 13 12 12 11 11 10
14 15 16 17 16 14 14 14 12 12 11 9 7 4 5 5 6 6 5 4 4 4 3 2 2 4 6 8 9 12 13 13 14 14 15 15 15 15 15 15 15 15 15 15 14 13 13 13 13
13 14 15 16 16 16 14 14 12 10 8 8 6 4 5 5 5 5 5 4 4 4 3 2 2 3 5 8 10 11 13 15 15 15 16 16 16 16 16 16 16 17 17 16 16 16 15 15 15
12 11 15 16 17 17 15 14 14 12 10 9 8 6 5 4 4 5 4 4 4 3 3 3 3 3 5 7 10 12 13 15 15 16 16 16 16 16 16 16 17 17 17 17 17 18 18 18 18
14 15 16 17 18 19 18 16 14 14 13 11 9 7 5 4 4 4 4 5 4 4 4 4 4 4 5 6 8 12 13 14 16 17 17 17 17 17 17 17 17 17 18 19 19 19 19 19 19
17 16 16 18 18 19 20 19 16 15 13 11 10 8 8 7 5 4 4 5 5 4 4 5 5 5 5 6 8 10 12 14 16 17 17 18 17 18 18 17 18 19 19 20 20 20 21 21 21

GEFSSGP_500_meanwind_126.txt.gz
Wind_Speed
8 8 7 8 9 11 13 15 16 16 16 15 15 14 13 12 10 7 5 3 1 1 2 4 5 6 5 5 4 3 3 3 3 3 3 3 4 5 6 6 7 7 7 6 6 6 5 5 5
7 7 6 7 9 11 13 14 16 16 15 15 15 14 13 13 11 8 6 4 2 2 3 4 5 6 7 6 5 4 4 3 3 2 2 2 3 4 5 6 6 6 6 6 5 5 5 5 4
6 5 6 7 8 10 12 13 15 16 16 16 16 14 14 13 11 9 7 5 3 3 4 4 5 6 7 7 7 6 5 4 3 2 1 1 2 4 4 5 6 6 6 5 5 5 5 4 4
3 4 4 5 7 9 10 12 14 15 16 16 16 15 14 13 11 10 9 6 4 4 4 5 6 7 8 8 8 7 6 5 4 2 1 0 2 3 4 5 5 6 6 5 5 5 4 4 3
3 3 3 5 5 7 9 11 12 14 15 16 15 15 15 14 12 11 9 7 6 5 5 6 6 8 9 9 9 8 7 6 5 4 3 2 2 2 4 5 5 5 5 5 5 4 4 3 3
3 3 3 4 4 6 8 11 12 14 15 16 16 16 15 14 14 12 10 8 6 5 5 6 7 8 9 10 10 9 9 7 6 5 4 3 2 2 4 5 5 5 5 5 5 4 4 3 3
4 4 3 3 3 5 7 10 11 13 14 15 16 16 16 16 15 14 12 9 8 6 6 6 7 9 10 10 10 10 9 8 7 6 5 4 3 2 3 4 5 5 5 5 5 4 3 3 3
5 5 5 5 5 5 7 9 11 12 14 14 15 16 16 18 17 16 13 12 9 7 6 6 6 9 10 10 9 10 10 9 9 7 6 5 4 3 3 4 4 4 5 6 5 4 3 3 2
7 6 6 7 7 7 8 10 11 12 12 14 16 16 16 18 17 16 15 13 11 9 7 7 7 9 11 11 10 10 11 10 9 8 6 5 4 4 4 3 4 4 5 5 5 4 3 3 2
8 8 8 8 9 10 11 11 11 11 11 13 15 16 16 18 17 18 16 13 11 9 8 8 8 9 11 12 11 11 11 11 10 9 7 6 5 4 4 4 4 4 4 4 4 4 3 2 2
10 10 10 10 11 11 12 12 11 12 11 12 14 15 17 18 19 18 17 15 12 10 9 10 10 11 12 12 12 11 12 12 12 10 9 8 6 5 5 4 4 3 4 4 3 3 3 2 2
11 12 11 11 12 12 13 12 11 12 12 12 13 15 17 18 19 19 19 16 13 11 10 10 10 11 11 12 12 13 13 13 13 11 10 9 7 6 5 5 5 4 3 3 2 2 2 2 1
10 11 11 11 12 13 12 12 12 12 12 13 14 15 17 18 19 20 18 15 12 9 8 9 10 12 13 13 13 13 14 14 13 12 11 10 8 7 6 5 5 4 3 2 2 1 2 2 1
10 10 10 11 13 14 14 12 12 12 12 13 14 16 17 19 20 20 18 14 12 8 7 9 10 12 12 12 13 14 15 15 14 13 12 10 9 8 7 6 5 4 3 2 2 2 2 2 1
11 10 10 12 13 14 14 12 11 12 12 14 14 16 18 19 20 20 17 14 12 10 10 10 10 12 11 12 13 15 16 16 15 14 13 11 10 8 7 6 5 4 3 3 2 2 2 2 1
12 12 11 12 14 14 14 12 13 13 13 14 14 16 18 19 20 19 17 14 13 10 8 8 9 11 11 11 14 16 17 17 16 15 14 13 11 9 8 7 6 5 4 3 2 1 1 1 1
14 13 12 13 15 16 15 14 13 14 14 14 15 16 17 18 19 18 16 13 11 9 6 7 8 10 11 13 14 16 17 17 17 16 15 14 12 11 9 9 7 6 5 3 2 2 2 2 1
15 14 13 15 17 17 16 15 15 15 15 15 15 16 17 18 19 17 15 14 10 7 4 5 7 10 12 14 14 15 16 17 17 16 15 14 13 12 10 9 8 7 6 4 3 3 3 3 2
17 15 14 16 18 18 18 17 16 16 16 16 16 16 17 18 19 17 15 12 8 6 3 3 6 9 12 13 14 14 15 17 17 17 15 15 14 13 11 10 9 8 7 6 5 4 4 3 3
17 16 16 17 19 20 19 19 17 17 17 16 16 17 18 18 18 15 15 11 6 4 2 3 5 8 11 12 14 15 14 15 16 16 15 14 15 14 12 11 10 9 8 7 6 5 5 3 2
18 17 17 19 20 21 21 18 17 17 17 16 15 17 18 17 16 13 13 9 5 3 2 2 5 8 9 11 13 14 13 12 14 14 14 14 14 14 13 12 11 11 9 8 7 6 5 4 3
18 18 19 20 21 21 21 19 16 17 16 15 16 16 16 15 13 12 9 6 3 1 1 2 5 7 8 10 12 13 11 12 14 14 14 14 13 13 14 13 12 11 11 10 9 8 7 6 5
18 20 20 20 21 20 20 19 15 15 14 14 15 15 13 11 11 10 8 4 2 2 2 3 5 6 8 10 12 12 12 12 13 14 14 14 14 14 15 15 13 13 12 11 10 10 9 8 7
19 20 20 20 20 19 17 16 14 13 13 13 12 12 11 10 9 8 7 4 2 2 2 2 4 6 8 9 10 10 11 12 13 14 14 14 14 14 15 15 14 14 13 12 11 11 10 10 9
20 20 21 20 19 17 15 15 12 11 12 11 10 11 10 9 8 8 7 5 3 1 2 2 3 5 7 9 9 9 10 10 13 14 14 14 14 14 15 15 15 15 14 13 13 13 12 12 11
20 19 19 18 16 15 14 13 11 10 10 9 9 9 8 7 8 7 6 5 3 1 2 2 3 4 6 8 10 10 10 11 12 14 15 15 15 16 16 15 15 15 15 15 14 15 14 14 14
21 19 18 18 16 15 15 13 10 9 9 9 8 8 7 6 7 7 6 5 4 3 3 2 3 4 5 7 9 11 12 12 13 15 15 15 15 16 16 16 16 16 17 17 17 17 16 16 16
22 20 19 18 16 16 14 12 10 9 9 9 8 7 7 6 7 6 6 4 4 4 4 4 4 5 6 7 9 11 12 13 14 15 16 16 16 16 17 17 17 17 18 18 18 18 18 18 18
21 21 20 19 17 16 15 12 10 10 10 9 7 7 7 7 7 7 7 6 5 5 5 5 6 6 6 7 9 10 12 14 15 16 16 16 17 17 17 17 17 18 18 19 19 19 20 20 20
22 21 20 19 18 17 15 12 11 10 10 10 8 8 8 7 7 8 8 7 6 6 6 6 6 7 7 8 9 11 12 13 14 16 16 16 17 17 18 18 19 20 20 20 20 21 21 22 23

GEFSSGP_500_meanwind_132.txt.gz
Wind_Speed
11 11 11 11 12 13 10 10 10 10 10 10 9 9 9 8 6 5 3 2 2 3 5 7 8 9 9 9 8 8 8 8 8 8 8 7 7 6 6 6 6 6 5 5 5 4 5 5 5
10 10 10 10 13 9 9 10 10 10 10 9 9 9 8 8 6 5 3 1 1 2 4 6 8 9 10 10 10 8 8 8 8 8 7 6 6 6 6 6 5 5 5 5 4 4 4 5 5
9 9 8 9 9 7 8 9 10 10 10 9 9 9 8 8 6 5 4 2 1 2 4 5 7 9 10 10 11 10 9 8 8 7 7 6 6 5 5 5 5 5 4 4 4 4 4 4 4
8 8 8 8 6 7 8 9 10 10 10 10 9 9 9 8 8 6 4 3 2 2 4 5 7 9 10 10 11 10 10 9 8 7 6 6 6 5 5 4 4 4 4 4 4 3 3 3 4
7 7 8 6 5 6 7 9 10 10 10 10 9 9 9 8 8 7 5 4 3 3 4 5 7 8 10 11 11 11 10 10 9 8 6 5 5 5 4 4 3 3 3 3 3 3 3 3 3
6 6 6 3 4 6 7 8 9 10 10 9 9 9 9 9 9 8 6 6 5 4 5 5 7 8 9 11 12 12 12 11 10 8 7 5 5 5 4 3 3 3 3 3 3 3 3 3 3
4 5 3 3 4 5 7 8 9 9 9 9 9 9 9 9 10 9 8 7 6 6 6 6 7 8 9 11 13 13 12 12 11 9 8 6 6 5 4 3 3 3 2 2 3 3 3 2 2
4 4 4 4 4 5 7 8 8 8 9 9 9 9 10 10 11 11 10 9 8 7 7 7 8 9 10 12 13 13 12 12 11 10 9 8 6 5 4 3 3 2 2 2 3 3 2 2 1
4 3 2 3 4 4 6 7 8 8 9 9 10 10 11 12 12 12 11 10 9 7 8 8 8 10 12 12 13 13 13 13 12 11 10 8 7 6 4 3 3 2 2 2 2 2 2 2 1
3 2 3 4 4 5 6 7 8 8 9 9 10 11 12 12 13 12 12 11 10 8 8 8 9 11 13 13 14 14 14 14 13 11 10 9 7 5 4 3 3 2 1 1 2 2 2 1 1
3 3 4 4 4 5 6 7 7 8 9 10 10 11 13 13 14 13 13 12 12 10 9 9 10 11 13 13 14 15 15 14 13 12 11 9 8 6 5 4 3 3 1 1 2 2 1 1 1
4 5 5 5 6 6 7 7 7 8 8 10 11 12 13 15 14 15 15 14 13 12 10 10 11 12 13 13 14 15 16 15 13 12 11 10 8 6 5 4 4 3 2 1 2 2 1 1 1
5 5 6 7 7 7 7 8 8 8 9 10 11 12 13 15 15 15 16 16 14 12 10 10 11 12 12 14 14 15 16 16 14 13 12 11 9 7 6 5 4 3 3 2 2 2 2 1 1
7 7 7 8 7 7 7 8 8 9 10 11 12 13 14 15 16 17 17 16 13 10 9 10 11 13 13 13 14 14 16 16 15 14 13 12 10 8 7 6 5 3 3 3 2 2 2 2 2
8 8 9 9 9 8 7 8 9 9 10 11 13 14 15 16 17 18 17 15 12 9 9 8 10 12 12 13 14 14 16 17 16 15 14 13 11 9 8 6 6 4 4 3 3 2 2 2 2
9 9 10 11 9 8 7 8 10 10 11 12 14 15 15 16 17 18 16 15 12 9 9 8 9 12 13 13 14 15 16 16 16 15 14 13 11 10 9 8 6 5 4 4 4 3 3 2 2
10 10 11 12 10 9 8 8 11 11 12 13 14 15 16 17 17 18 16 13 11 10 9 9 9 12 13 13 14 15 16 16 16 16 15 13 12 11 10 9 7 6 5 5 4 4 3 3 2
11 11 12 12 11 10 9 10 11 12 13 14 15 16 16 16 17 17 15 12 10 9 8 8 10 11 13 13 14 15 16 16 16 16 15 14 13 12 11 10 9 7 7 6 5 5 4 4 3
12 13 13 13 12 11 10 11 12 14 15 15 15 16 16 15 15 15 14 12 10 8 7 6 8 9 11 12 14 15 15 16 16 16 15 15 14 13 12 11 10 9 8 8 7 6 5 4 4
13 13 14 14 13 12 11 12 13 14 15 15 15 15 15 14 14 14 13 11 8 7 5 4 5 8 11 12 13 13 14 15 15 15 16 15 14 13 12 12 11 9 9 9 8 7 6 5 4
14 14 14 14 13 13 12 12 13 14 14 14 14 14 14 13 13 12 11 9 8 6 4 3 4 7 10 11 12 13 13 14 14 14 14 15 14 13 13 12 11 10 10 10 9 7 7 6 5
16 16 15 14 13 13 11 10 13 13 13 12 13 13 12 12 11 10 9 8 7 5 3 2 3 6 8 10 11 12 12 13 14 14 14 14 14 13 13 12 12 12 11 11 10 9 8 8 7
18 17 15 14 13 12 12 10 11 12 11 11 11 11 12 11 9 8 7 8 6 5 3 2 2 5 7 9 11 12 12 13 13 13 13 14 14 13 13 12 12 13 12 12 11 11 10 9 9
18 17 15 14 13 13 12 11 10 10 10 9 9 9 10 9 8 7 6 7 5 3 2 2 2 3 5 8 9 10 12 12 12 13 14 14 14 14 14 13 13 13 13 13 13 12 12 11 10
18 16 14 13 13 13 13 11 10 10 9 9 9 9 9 7 6 5 4 5 3 1 1 2 3 3 5 6 7 9 11 12 12 13 13 13 14 14 15 14 14 14 14 14 14 14 13 12 12
18 17 15 13 11 12 13 11 10 9 9 9 9 9 8 6 4 4 4 3 3 2 1 2 2 3 4 5 6 7 9 11 12 13 13 14 14 14 15 15 15 15 15 15 15 15 15 14 14
20 18 16 16 14 11 12 11 9 9 9 9 8 6 5 5 5 4 4 4 3 2 2 3 3 3 4 5 6 7 9 10 12 13 13 14 15 15 15 15 16 16 16 16 17 16 16 16 16
21 19 19 16 14 11 11 10 9 9 8 8 7 6 5 5 5 5 4 4 4 3 3 3 4 5 5 6 7 8 9 11 13 13 14 15 16 16 15 15 16 17 18 18 18 18 18 18 19
21 20 19 17 16 11 10 11 11 9 8 7 6 6 6 6 5 5 5 4 4 4 4 4 5 6 7 7 8 9 10 11 12 14 15 16 16 17 17 17 17 18 19 19 19 19 20 20 21
20 20 19 17 15 13 10 12 12 10 10 8 7 7 6 6 5 5 5 5 5 5 5 5 6 7 8 9 9 9 11 12 12 13 15 16 17 18 18 18 18 18 19 20 20 20 21 21 21

GEFSSGP_500_meanwind_138.txt.gz
Wind_Speed
15 15 15 15 18 17 14 10 9 9 8 8 6 5 6 5 4 3 3 2 3 3 4 5 6 7 7 8 8 7 8 7 7 7 7 6 5 5 4 3 3 3 3 3 3 3 3 3 3
14 13 14 16 18 14 12 10 10 10 10 8 7 7 7 6 5 4 3 3 3 4 4 5 6 7 8 8 8 8 8 8 8 7 7 6 5 4 3 3 3 3 3 3 2 2 2 3 2
13 11 14 15 16 12 11 10 11 11 10 10 8 8 8 7 6 5 4 4 4 4 5 6 7 7 8 9 9 8 8 8 8 7 7 6 5 4 3 3 3 3 3 2 2 2 2 2 2
11 12 14 15 12 10 10 10 11 10 10 10 9 8 8 8 7 7 6 5 4 4 5 6 7 8 9 9 10 10 9 10 9 8 7 6 5 4 3 3 3 3 2 2 2 2 2 2 2
9 9 16 13 9 8 9 10 11 11 10 11 10 10 9 9 8 8 7 6 5 4 5 6 7 8 9 10 10 10 10 10 9 8 7 6 5 4 4 4 3 2 2 2 1 2 2 2 2
8 11 12 10 7 7 8 10 10 9 10 10 11 10 10 9 9 9 8 7 5 5 5 6 7 7 8 9 10 10 11 11 9 8 7 6 5 4 4 3 3 2 2 2 2 2 2 2 2
7 8 8 7 4 5 7 9 8 8 9 10 10 10 10 10 11 11 10 9 8 6 6 7 7 8 8 9 10 11 11 11 10 9 8 7 6 5 4 4 3 2 2 2 2 2 2 2 2
6 7 8 7 4 5 6 8 9 9 8 9 10 11 12 11 12 12 12 11 10 8 7 7 7 8 9 10 10 12 12 12 11 10 9 8 7 6 5 4 4 3 2 2 2 2 2 2 1
6 7 7 5 2 5 6 7 9 10 8 7 9 11 13 13 13 13 13 12 11 9 8 7 8 8 9 10 11 12 12 12 11 10 9 9 8 6 5 5 4 3 3 2 2 2 2 2 1
5 5 4 1 3 6 8 7 8 10 13 10 9 11 12 13 13 13 13 13 12 10 9 8 9 8 9 10 10 11 12 12 11 11 10 9 8 7 6 5 4 4 3 3 2 2 2 1 1
3 1 1 3 7 7 7 7 7 9 13 14 13 13 13 13 15 15 15 14 12 12 11 9 9 9 9 10 10 11 12 12 12 11 10 9 8 7 6 5 4 4 3 3 2 2 2 1 1
3 4 5 6 7 7 6 7 8 9 12 14 15 14 14 14 15 16 16 15 14 14 13 11 9 9 9 10 10 12 12 13 12 11 11 10 8 7 6 5 5 4 4 3 3 2 2 2 2
4 4 6 7 7 8 8 6 8 10 12 13 15 15 14 15 16 16 17 16 16 16 15 12 11 11 10 10 10 11 12 12 11 10 11 9 8 7 6 5 5 4 3 3 2 2 2 1 1
6 6 7 7 8 8 9 8 8 11 12 13 15 15 16 16 17 17 18 18 18 18 16 14 12 11 10 11 10 10 11 12 11 10 11 10 9 7 6 5 5 4 3 3 3 2 2 1 2
5 5 6 6 7 8 10 10 11 12 13 14 16 16 17 17 17 17 18 19 18 17 15 12 10 10 10 11 11 10 10 12 11 11 11 10 9 8 7 6 5 4 3 3 3 2 2 1 2
5 5 6 7 8 9 10 11 13 14 14 16 17 17 17 17 18 18 18 19 18 17 13 10 9 8 8 9 10 10 11 11 12 11 12 10 10 9 8 7 6 4 4 3 3 2 1 1 1
5 6 7 8 11 10 10 12 14 14 15 17 17 17 17 17 18 18 18 18 17 15 11 8 7 7 7 8 8 10 11 11 11 12 12 12 11 10 9 8 7 5 4 4 4 3 2 1 1
5 7 9 9 11 12 12 12 14 14 17 18 18 18 17 17 18 18 17 16 16 13 9 7 6 7 8 8 8 9 10 10 11 12 12 13 12 11 10 9 8 7 6 5 4 3 3 2 1
10 10 10 11 12 14 13 12 14 15 16 18 19 19 18 18 18 17 16 15 14 11 8 6 5 5 6 8 8 10 10 10 11 12 12 13 12 11 11 10 9 8 7 6 5 5 4 3 2
13 12 11 12 13 15 13 12 14 17 15 17 19 18 18 18 16 15 15 14 12 10 8 6 3 4 5 7 8 10 11 10 11 11 12 13 12 12 12 10 9 9 8 7 7 6 5 5 4
14 14 12 12 13 14 13 13 15 19 16 16 18 17 18 18 16 15 15 14 11 9 7 5 3 3 5 6 8 9 10 10 10 11 12 12 12 13 13 12 10 9 9 8 8 8 7 6 6
15 14 14 14 15 13 12 13 16 18 17 15 16 18 18 17 16 15 13 11 9 8 6 5 4 3 4 5 6 8 9 10 11 10 11 11 12 13 12 12 11 10 10 9 9 9 9 8 7
16 14 15 16 15 13 11 12 15 17 17 15 16 18 17 16 16 14 11 9 8 7 6 5 3 3 3 3 5 8 9 10 10 10 11 12 13 13 13 13 12 11 11 10 10 10 10 10 9
17 16 16 14 13 13 12 12 14 16 17 17 18 17 17 16 14 11 9 8 8 6 5 5 4 3 2 3 4 6 8 9 10 10 11 12 12 13 14 14 14 13 12 12 12 11 12 11 11
18 16 14 13 12 13 11 11 15 17 18 18 18 17 15 15 12 9 8 8 7 7 6 4 4 3 2 3 5 6 7 8 9 10 11 12 12 13 13 14 14 14 14 13 13 13 13 13 13
18 16 14 12 13 13 11 10 16 17 19 18 17 16 15 13 10 8 7 7 7 7 6 4 4 4 3 3 4 5 6 6 7 9 10 12 12 12 13 14 14 14 14 15 14 14 14 15 15
18 18 15 15 14 13 10 11 17 18 18 18 16 14 14 11 9 7 7 7 7 7 5 4 4 3 3 3 4 5 5 5 6 8 9 11 12 13 13 14 15 15 15 16 16 15 15 16 16
19 17 17 18 17 15 14 16 18 19 14 16 15 14 13 11 9 8 8 7 7 5 4 4 4 4 4 4 4 5 6 6 7 8 10 11 12 13 14 14 14 15 15 16 17 17 17 16 17
19 20 19 18 17 15 16 18 19 15 13 15 15 14 13 11 10 9 8 7 7 6 4 4 4 4 4 5 5 5 6 7 8 9 10 12 13 13 14 15 16 17 17 17 17 18 18 18 18
19 19 20 20 20 19 18 19 16 15 15 15 15 14 14 11 10 9 8 7 7 7 6 6 5 5 5 6 7 7 7 8 9 10 11 12 14 14 15 15 16 17 18 18 18 18 19 19 20

GEFSSGP_500_meanwind_144.txt.gz
Wind_Speed
15 15 14 14 15 16 18 17 16 14 14 14 13 12 12 11 9 7 6 5 4 2 1 1 1 2 2 3 3 2 2 3 3 4 4 4 4 4 4 3 2 2 2 2 1 1 1 1 1
14 15 15 14 15 17 18 17 15 14 14 14 13 12 12 10 9 8 6 5 4 2 1 0 1 2 3 3 3 3 3 3 3 4 4 4 4 4 4 3 3 2 2 2 1 1 0 0 1
12 13 14 15 16 16 17 16 16 16 15 14 13 13 12 10 10 9 7 5 4 3 1 0 2 3 4 4 4 4 4 4 4 4 5 4 4 4 4 4 3 3 2 2 2 1 0 0 1
10 11 12 14 16 16 16 15 15 15 14 14 14 14 13 12 11 10 9 7 6 4 2 1 2 3 4 5 5 5 5 5 5 4 5 4 4 4 4 4 3 3 3 3 2 1 1 1 1
8 8 9 12 15 15 15 14 14 14 15 15 14 14 14 13 12 11 10 9 7 5 3 2 3 4 4 5 6 6 6 6 5 4 4 4 4 4 4 4 4 3 3 3 2 1 1 1 1
5 5 8 11 13 13 12 13 15 15 15 14 14 14 13 12 12 11 11 10 8 6 4 3 4 5 6 6 6 6 6 6 5 5 5 5 4 4 4 4 4 4 3 3 2 1 1 1 1
6 6 8 10 11 12 11 13 14 15 15 14 14 15 13 11 11 12 11 10 9 7 6 4 4 5 6 6 6 7 7 6 6 5 5 5 4 3 3 4 4 4 3 3 2 1 1 1 1
5 5 7 9 10 10 11 12 14 14 14 15 14 15 13 11 11 12 11 10 9 8 6 5 4 5 5 6 6 7 7 7 6 6 6 5 4 4 4 4 4 3 3 3 2 1 1 1 1
4 5 5 7 8 9 9 11 13 14 15 15 15 15 14 12 12 12 12 11 9 8 7 5 4 4 6 6 6 7 8 8 7 7 7 6 5 5 4 4 4 3 3 3 2 1 1 1 0
4 3 4 5 6 7 8 10 13 14 15 15 15 15 14 13 12 11 12 11 9 9 8 6 5 5 5 7 7 8 9 9 9 8 8 7 6 5 5 4 4 3 3 2 2 1 1 1 1
4 2 1 2 4 5 7 9 11 13 14 14 14 15 15 14 12 11 11 11 11 10 9 8 7 6 6 7 8 9 9 9 9 9 9 8 7 6 5 5 4 4 3 2 2 1 1 1 1
7 5 4 2 3 4 6 8 11 13 13 14 14 14 15 14 13 12 11 11 12 11 10 9 8 6 6 7 8 9 9 9 10 10 10 9 8 6 6 6 5 4 3 3 2 2 1 1 1
8 7 6 4 4 5 7 9 10 12 13 14 14 13 14 14 14 13 13 12 13 11 10 8 8 6 6 7 8 9 10 10 10 10 10 9 8 7 7 6 5 4 3 2 2 2 1 1 2
8 8 6 5 5 6 7 9 11 12 13 15 17 15 14 14 14 14 14 13 13 13 11 9 7 6 6 7 7 9 10 10 10 10 9 8 8 8 7 7 6 4 3 3 2 2 1 2 2
6 5 4 4 4 5 7 8 11 14 15 16 18 18 14 14 14 15 16 16 15 14 12 10 8 7 6 6 7 8 10 10 10 10 9 9 8 8 8 7 6 5 4 3 3 3 2 2 3
5 4 3 2 3 5 7 9 12 15 16 17 19 18 15 14 14 15 16 16 16 14 12 10 7 6 5 5 6 7 9 10 10 10 10 10 9 9 9 8 7 6 5 4 4 3 3 3 3
6 5 4 3 5 6 8 10 13 16 17 18 19 17 16 15 15 16 16 16 16 14 11 7 4 4 5 5 5 8 9 10 11 11 11 10 10 10 10 9 8 7 6 5 5 4 3 3 3
9 7 6 5 6 7 9 11 13 15 16 18 19 18 17 17 17 16 16 16 15 12 10 6 4 3 4 4 5 7 9 10 11 12 11 11 11 11 10 9 8 8 7 6 6 5 4 4 4
11 8 6 6 7 9 10 12 15 15 16 18 19 20 17 18 18 17 16 15 13 10 7 6 3 3 3 3 4 6 8 9 11 11 12 12 12 12 11 11 10 8 8 7 6 6 5 5 4
12 10 8 6 8 11 12 14 15 15 15 17 18 18 17 18 18 17 15 14 12 10 7 4 2 2 2 3 4 5 7 8 9 11 11 12 12 12 12 12 11 9 8 7 7 7 7 6 6
13 12 10 10 11 13 15 15 15 14 15 14 15 17 18 18 17 16 15 13 11 9 7 4 1 1 2 4 4 5 6 8 9 10 11 12 12 12 12 12 12 11 9 9 8 8 8 7 7
13 12 13 13 14 15 16 16 14 15 15 14 15 16 17 17 17 15 14 12 9 8 5 2 0 1 2 4 4 6 6 8 9 10 12 12 13 12 12 12 12 11 11 10 9 9 9 9 8
14 14 15 15 16 15 15 16 14 15 15 14 15 15 16 16 16 14 12 9 7 6 4 3 1 1 2 3 5 6 7 8 9 10 11 12 12 12 13 13 13 12 11 11 11 10 10 10 10
15 16 17 17 16 14 14 15 14 16 15 14 13 14 15 15 14 13 10 8 6 5 4 3 2 1 2 3 4 5 7 8 9 10 11 12 12 12 14 14 14 13 13 12 12 11 11 11 11
16 17 17 17 15 12 13 15 14 15 13 13 12 13 15 14 12 11 9 8 6 4 3 3 1 0 1 2 3 5 5 7 8 10 12 12 12 13 14 14 14 14 14 13 13 13 13 13 13
16 17 17 16 14 13 13 13 13 13 12 11 11 12 14 13 10 9 9 7 6 4 3 2 1 1 1 2 3 4 5 6 8 10 11 12 12 12 13 14 14 14 14 14 14 14 14 14 14
16 16 17 17 16 15 14 14 12 11 11 10 10 12 13 11 10 10 8 6 5 4 3 3 2 2 2 2 2 3 4 5 7 9 10 11 11 12 13 14 14 15 14 14 14 15 15 15 15
16 16 18 19 18 16 15 13 12 12 13 11 12 11 10 10 10 10 8 7 6 4 3 4 3 3 2 2 3 3 4 4 6 7 8 10 11 12 13 14 15 15 15 15 15 15 16 16 16
17 16 18 20 20 18 17 15 15 15 14 13 14 12 10 9 9 9 8 6 5 5 4 4 4 3 2 3 3 4 4 5 6 6 7 8 10 12 13 14 14 14 15 16 17 18 17 17 17
19 17 17 20 20 20 21 18 17 16 15 14 13 12 11 9 9 9 8 7 6 6 5 5 5 4 3 4 4 4 5 6 6 7 8 9 10 11 13 14 14 15 16 17 18 18 19 19 19

GEFSSGP_500_meanwind_150.txt.gz
Wind_Speed
13 13 13 14 16 17 19 20 21 20 19 18 17 16 15 13 11 9 7 7 6 4 3 3 3 4 4 5 5 5 5 5 5 5 6 5 5 5 5 5 5 6 6 6 5 5 4 4 4
12 12 13 14 16 16 19 20 20 19 19 18 18 17 16 14 11 9 7 6 6 4 2 2 3 2 3 3 3 4 4 4 5 5 5 5 5 5 5 5 5 6 6 5 5 5 4 4 4
11 12 13 15 15 16 19 20 20 20 19 19 18 17 16 14 12 10 7 6 6 4 2 1 2 2 1 2 2 3 2 3 3 4 4 4 4 4 5 5 5 5 5 5 5 4 4 3 3
10 10 11 13 14 16 18 19 20 20 19 19 18 17 16 15 13 11 8 6 5 4 3 1 1 1 0 1 1 1 1 2 2 2 3 3 3 3 4 4 4 5 5 4 4 4 3 2 2
8 8 9 10 13 14 16 18 19 20 19 18 18 17 16 15 13 11 10 7 5 4 3 1 0 1 2 2 2 1 1 1 1 1 2 2 3 3 3 3 3 4 4 4 4 4 3 2 2
7 7 7 8 11 13 14 16 18 18 18 18 18 17 16 15 13 11 10 8 7 5 3 2 1 1 2 3 3 2 2 2 1 1 1 1 2 2 2 3 3 4 4 4 4 3 3 2 2
6 5 6 7 9 11 13 14 16 17 17 17 17 17 16 15 13 12 11 10 9 7 5 3 2 2 3 3 4 3 3 3 3 2 1 0 1 1 2 2 2 3 4 4 4 3 3 2 2
3 3 4 6 8 10 11 13 14 15 16 17 17 18 17 16 14 13 12 11 9 8 6 5 3 2 3 4 5 5 4 4 4 3 2 1 1 1 1 1 1 2 3 3 4 3 3 2 2
2 2 4 5 6 8 10 11 13 14 15 16 17 18 18 17 15 14 13 12 9 8 6 5 4 3 3 4 5 6 5 5 5 4 3 2 2 2 1 1 1 2 2 3 3 3 3 2 2
1 2 4 5 6 8 9 11 12 13 14 16 17 18 18 17 16 15 14 12 10 9 7 6 4 4 3 4 5 6 6 6 6 6 5 4 3 2 1 1 1 1 1 2 2 2 2 2 2
3 4 5 6 6 8 9 10 11 12 13 14 16 17 19 18 17 16 15 14 12 10 8 6 5 4 3 4 5 6 6 6 7 7 6 5 4 3 2 2 1 1 0 1 1 2 2 2 1
4 5 6 7 7 8 9 10 10 11 12 13 15 16 18 19 18 16 16 15 13 11 9 7 6 5 4 4 5 6 7 7 7 7 6 6 5 4 3 2 1 1 1 0 0 1 1 1 1
5 5 6 6 6 7 8 10 11 11 12 13 14 16 17 18 17 16 15 14 13 12 9 7 6 6 5 5 5 6 8 8 8 8 7 6 6 5 4 3 2 2 2 1 1 0 1 1 1
4 4 5 5 6 6 7 9 10 10 11 12 13 16 17 18 17 15 15 14 13 12 10 9 7 6 5 5 5 6 7 9 9 8 7 7 6 5 5 4 4 3 2 2 1 1 0 1 0
4 4 4 5 5 6 6 7 8 9 10 11 13 15 16 17 17 16 15 14 13 12 11 9 7 5 5 6 6 7 7 9 9 9 8 7 7 6 6 5 5 4 3 2 2 2 1 0 0
5 5 6 6 6 6 7 7 8 8 9 11 13 14 15 17 16 16 15 15 14 12 11 8 6 5 5 6 6 7 8 9 10 10 9 8 8 7 7 6 6 6 4 3 2 2 2 1 1
7 7 8 8 8 8 9 8 8 8 10 11 13 14 15 16 16 16 16 15 14 12 11 8 6 6 6 6 6 7 8 9 10 10 10 9 9 8 7 7 7 7 5 5 3 2 2 2 1
9 9 9 10 11 10 9 8 8 9 11 12 13 14 15 15 15 15 15 14 13 12 10 8 5 6 6 6 6 7 7 8 9 10 10 10 9 8 8 8 8 7 7 6 4 3 3 3 2
11 11 11 12 13 11 10 9 9 10 12 13 13 14 15 15 15 15 14 14 13 12 10 6 3 2 3 4 5 6 7 7 9 10 10 10 10 9 9 9 9 8 8 7 6 5 5 5 4
13 13 13 14 15 13 12 11 10 11 12 12 13 14 15 15 15 14 14 13 13 11 9 5 2 3 3 3 4 5 6 7 8 9 10 10 9 9 10 11 10 9 8 8 7 6 6 6 5
14 15 15 16 16 15 15 12 11 11 12 12 13 14 14 15 15 14 13 13 12 10 7 4 2 3 4 4 4 5 6 7 8 9 10 11 11 10 10 10 11 11 10 9 8 7 7 7 7
16 17 17 17 17 16 16 14 12 12 12 12 13 14 14 14 14 13 12 11 10 8 6 3 1 2 4 5 5 5 6 6 8 8 9 10 11 11 11 11 11 11 11 10 10 9 9 8 9
17 18 18 17 17 17 17 16 13 13 13 11 13 13 14 14 14 13 12 11 9 7 5 2 0 1 3 5 5 6 6 7 7 8 9 11 11 11 11 11 11 11 11 11 11 11 10 10 10
19 19 18 18 18 18 17 16 14 13 11 11 11 12 13 13 13 12 11 10 7 6 4 2 1 1 2 3 4 5 6 7 8 9 10 10 11 11 11 11 11 11 12 12 12 13 12 12 12
20 19 19 19 18 18 17 16 14 12 11 11 11 11 13 12 12 11 10 10 7 4 3 2 1 1 2 3 3 4 6 7 8 10 10 10 11 11 12 12 12 12 13 13 13 14 14 13 14
21 20 20 19 19 17 17 16 13 12 11 11 11 11 11 11 10 10 9 9 7 5 3 2 1 0 1 2 3 3 5 6 7 9 10 11 12 12 12 13 13 13 14 14 15 15 15 15 16
22 21 20 20 19 17 16 14 13 12 10 10 10 11 11 10 10 9 8 7 6 5 3 2 1 1 1 1 2 3 3 5 6 8 9 10 11 12 13 13 14 14 14 15 15 16 16 16 17
23 22 21 20 19 17 16 14 11 11 11 10 10 10 10 10 10 9 7 7 6 5 4 3 2 3 3 3 4 4 5 5 6 8 9 10 11 12 13 14 14 15 15 15 17 17 17 18 18
24 23 22 21 20 18 16 13 11 11 11 10 10 10 10 10 9 9 8 7 6 5 4 4 4 4 5 5 5 5 6 6 7 8 9 10 11 12 12 14 14 15 15 16 17 18 19 19 20
25 23 22 20 18 17 16 13 12 12 12 11 10 10 10 9 9 9 9 7 6 5 5 5 5 6 6 6 6 6 6 7 7 7 8 9 10 12 13 14 15 16 16 17 17 19 20 20 20

GEFSSGP_500_meanwind_156.txt.gz
Wind_Speed
18 18 17 16 19 17 16 17 17 16 16 16 15 15 14 13 11 9 8 8 7 6 6 6 6 5 5 6 7 7 7 7 8 8 8 7 7 7 7 7 6 6 6 5 5 4 4 4 5
17 17 17 18 18 14 16 16 17 16 16 15 16 15 14 13 11 9 8 7 6 6 5 5 5 5 5 6 6 6 6 7 7 7 7 7 7 6 7 6 6 6 5 5 5 4 4 4 5
15 16 17 18 15 14 15 16 16 16 16 16 16 16 15 13 11 9 8 7 6 5 5 4 4 4 4 5 6 6 6 6 6 6 6 6 6 6 6 6 6 6 5 5 5 4 4 4 5
14 15 16 16 14 13 13 15 16 17 17 17 16 16 15 14 12 10 8 7 5 4 4 3 3 3 4 4 5 6 6 6 6 6 6 6 6 5 5 5 5 5 5 5 5 4 4 4 4
14 14 15 13 12 13 13 14 15 17 17 16 16 16 15 14 13 11 9 8 6 4 2 2 2 3 3 4 5 5 5 6 6 6 6 6 5 5 5 5 5 5 5 5 5 4 4 4 4
13 13 12 10 11 12 13 13 14 15 15 15 15 15 14 14 13 11 9 8 7 5 3 1 1 2 3 4 5 5 5 5 6 6 5 5 5 4 4 4 4 5 5 5 5 5 4 4 4
12 11 9 9 10 11 12 12 13 13 14 14 14 14 14 14 13 11 10 9 8 6 4 2 1 2 4 5 5 5 5 6 6 6 5 5 4 4 4 4 4 5 5 5 5 5 5 4 4
10 11 9 9 9 10 11 11 12 12 13 13 13 14 15 14 12 11 11 9 8 7 5 3 1 2 3 4 5 6 6 6 6 5 5 5 4 3 3 4 4 5 5 5 5 5 5 5 4
9 9 7 7 8 9 10 10 11 11 12 12 13 13 14 14 12 11 11 10 9 7 5 3 2 2 3 5 6 7 6 6 6 5 5 5 4 3 3 4 4 5 5 5 5 5 5 4 4
6 6 5 6 7 8 9 9 9 10 11 11 12 13 14 14 13 12 11 10 9 8 6 4 2 2 3 4 6 7 6 7 7 6 6 5 4 3 3 3 4 4 4 4 4 4 4 4 4
4 4 4 6 6 7 8 9 8 9 10 10 11 12 14 14 14 12 11 10 9 8 7 5 3 3 3 4 5 6 6 7 7 7 6 5 5 4 4 3 4 4 3 3 3 4 4 4 3
2 3 3 4 5 6 6 7 8 8 8 9 10 12 13 14 13 12 11 10 9 8 7 5 4 3 4 4 5 6 7 7 8 8 7 6 5 5 4 3 4 4 4 3 3 3 4 4 3
1 1 2 3 4 5 5 6 6 7 8 8 10 11 13 13 13 12 11 10 9 8 7 6 4 3 4 5 5 6 7 8 8 8 7 7 6 6 5 4 4 4 4 3 3 3 3 3 3
0 0 1 2 3 4 5 5 6 7 8 9 9 10 12 13 13 12 11 10 10 8 7 7 5 4 4 5 6 7 7 8 8 8 7 7 7 6 6 5 5 4 4 4 3 2 3 3 3
1 1 2 3 4 5 5 6 7 7 8 9 9 10 11 13 13 12 11 10 10 8 7 7 6 5 6 6 6 7 7 9 8 8 8 7 7 6 6 6 5 5 4 4 3 3 3 3 3
3 3 3 4 4 5 5 5 7 7 8 9 10 10 11 12 13 13 12 11 10 9 8 8 7 6 6 5 5 6 7 8 8 8 8 8 8 7 6 6 6 5 5 5 4 4 3 2 2
4 4 4 5 5 5 5 5 7 8 8 10 11 12 12 13 13 13 13 12 11 10 9 9 8 6 6 5 5 6 6 7 8 8 8 9 9 8 7 6 6 6 5 5 5 4 3 2 2
6 5 5 6 6 6 6 7 8 9 9 10 11 12 12 13 13 14 14 13 12 11 10 9 8 7 6 7 6 7 7 7 8 8 9 9 9 8 7 7 6 7 6 7 6 4 4 3 2
7 6 7 7 6 6 7 8 9 9 10 11 11 12 13 13 14 14 14 14 13 12 10 8 7 6 6 7 7 7 7 7 7 8 9 9 9 8 7 7 7 7 7 7 7 6 5 4 4
8 8 8 8 7 7 7 8 9 10 11 11 11 11 12 13 14 14 14 14 13 12 10 9 7 6 6 6 6 7 8 7 8 8 8 9 9 8 8 8 8 8 8 8 7 7 6 5 5
10 10 10 9 8 8 8 8 10 11 11 11 11 11 12 13 14 14 14 14 13 11 10 9 6 5 6 6 6 7 8 7 8 8 9 9 9 9 9 9 8 8 8 8 8 8 8 7 7
13 12 11 9 9 10 8 7 12 11 11 11 11 11 12 13 14 14 14 13 13 12 10 8 4 4 5 5 6 7 7 7 8 9 8 8 9 10 10 10 10 9 9 9 9 9 9 9 8
15 13 12 10 10 10 11 8 10 11 11 12 12 12 12 13 13 14 13 12 11 10 9 7 4 4 5 5 6 7 7 7 7 8 8 8 9 10 11 10 10 10 10 10 10 10 10 10 9
15 14 13 12 11 11 11 9 9 11 11 12 12 12 12 13 13 13 13 11 10 9 8 5 2 2 3 4 5 6 6 6 6 7 8 8 8 9 10 11 11 10 10 10 11 11 11 11 11
16 14 12 11 11 12 12 10 10 11 11 11 12 11 12 12 13 13 12 11 10 8 7 4 2 2 2 4 5 5 6 6 7 7 7 8 9 9 10 11 11 11 11 11 12 12 12 12 13
17 15 13 11 10 12 13 10 11 11 11 11 11 12 12 12 12 11 11 11 9 8 6 4 3 3 3 4 5 5 5 5 6 7 7 9 9 9 9 11 12 12 12 12 13 13 14 14 14
19 17 15 15 14 12 12 11 11 10 11 11 11 11 11 10 10 11 11 10 8 7 5 4 4 4 3 4 4 4 4 5 5 6 7 8 10 10 11 12 13 13 12 13 14 14 15 16 16
21 19 18 15 13 11 12 11 11 11 10 11 10 10 9 9 9 9 10 9 7 5 4 4 5 4 4 4 4 4 5 5 6 6 7 7 8 10 11 12 13 13 13 13 14 14 15 17 17
21 20 19 17 15 11 10 11 12 11 10 10 9 9 9 9 9 9 9 8 7 5 4 5 5 4 4 3 4 5 6 7 7 8 8 9 9 10 11 13 13 14 15 15 16 16 17 17 18
22 21 19 18 17 14 11 13 13 12 11 10 10 9 9 9 9 9 9 8 7 6 6 6 5 5 5 5 5 6 7 8 9 10 10 10 10 11 12 13 14 14 15 16 16 17 18 18 19

GEFSSGP_500_meanwind_162.txt.gz
Wind_Speed
22 22 21 22 23 16 11 9 8 8 8 8 8 7 6 5 4 4 4 4 4 4 3 3 2 1 1 1 0 1 1 1 2 2 2 3 4 4 5 4 4 4 4 4 4 4 5 5 4
22 19 23 24 18 12 11 11 10 9 8 8 8 7 7 6 5 4 4 4 3 3 2 2 1 1 0 1 1 1 1 1 2 2 2 2 3 3 4 4 4 4 4 3 4 4 4 4 4
20 20 24 20 12 11 11 11 11 10 10 8 8 8 7 7 6 4 4 3 3 2 2 1 1 0 1 1 2 2 2 1 1 2 2 2 2 3 3 3 3 3 3 3 3 4 4 4 3
20 25 23 15 12 12 11 11 10 9 9 9 9 9 8 8 7 5 4 3 2 2 1 0 0 1 1 2 3 2 2 1 1 2 2 1 2 2 2 2 3 3 3 3 3 3 3 3 3
22 23 18 13 12 11 11 11 11 11 10 10 9 10 10 9 8 6 5 4 3 2 1 1 1 2 2 3 3 3 2 2 2 1 1 1 1 1 2 2 3 3 3 3 3 3 2 2 3
20 20 14 11 10 10 10 11 10 10 10 10 10 10 10 10 9 7 6 6 5 4 2 2 3 3 3 4 4 3 3 3 2 2 2 1 1 1 1 1 2 2 3 3 3 3 3 3 3
15 15 12 10 10 10 10 9 9 10 10 10 10 10 10 10 9 8 8 7 6 6 4 3 3 3 4 4 4 4 4 3 3 2 2 2 1 1 1 1 1 2 3 3 3 3 3 4 4
14 13 12 8 7 8 9 9 10 11 12 12 13 13 12 11 10 9 9 8 8 7 5 4 4 4 4 5 5 5 4 4 3 3 3 2 2 1 1 1 1 2 2 3 3 3 4 4 4
12 12 10 5 5 6 7 8 9 10 10 11 13 14 13 12 11 11 10 10 9 8 6 6 4 4 4 5 5 5 5 4 4 4 3 3 2 2 1 1 1 2 2 3 3 3 3 4 4
8 9 7 3 3 5 8 9 10 10 9 11 13 14 14 13 13 12 11 11 10 9 8 6 5 4 5 5 5 5 5 5 5 5 4 4 3 2 2 1 1 2 2 2 3 3 3 3 4
4 4 4 2 3 4 6 8 9 11 12 13 14 14 14 13 14 13 13 12 11 10 10 8 6 5 5 5 5 5 6 6 6 6 5 5 4 3 3 2 1 2 2 2 2 2 3 3 4
2 3 2 1 4 5 6 7 8 9 12 14 15 15 14 14 14 14 14 13 12 12 11 10 7 7 6 5 5 5 6 6 6 6 5 5 4 3 2 2 2 2 2 2 2 2 3 3 3
1 2 1 2 4 5 5 6 6 9 12 14 14 15 15 15 15 15 14 14 13 12 11 10 9 8 7 5 5 5 6 6 6 5 5 4 4 3 3 2 2 2 2 2 2 2 3 3 3
3 1 1 3 4 6 7 8 8 10 12 14 14 15 15 15 16 16 15 14 14 13 12 10 10 9 8 6 5 6 5 6 6 5 5 4 4 3 3 3 3 3 3 2 2 3 3 2 3
3 1 2 4 6 7 7 7 9 11 13 14 15 15 15 15 16 16 16 15 14 14 12 11 11 10 9 7 6 5 5 5 5 5 5 4 4 4 4 4 3 3 3 3 2 2 2 2 2
2 3 6 7 8 8 9 10 11 13 14 14 15 16 15 16 16 16 16 15 14 14 12 12 11 10 9 8 6 5 5 5 5 5 5 5 4 5 5 4 4 4 4 3 2 2 2 2 2
3 4 4 7 10 9 7 8 12 13 13 14 15 15 16 16 16 16 16 16 15 14 13 12 11 10 9 8 6 4 5 4 5 6 6 6 5 5 5 4 5 4 4 4 3 3 2 2 2
1 3 5 6 10 9 7 8 10 13 13 13 15 15 15 16 16 16 17 17 16 15 15 14 12 10 9 7 6 5 4 4 4 5 6 7 6 6 6 5 5 5 5 4 4 3 3 2 2
6 7 7 7 10 8 7 8 10 12 13 14 16 16 16 16 16 16 16 17 16 16 16 14 14 11 9 7 6 5 5 4 4 5 6 6 6 7 7 6 5 5 5 5 5 4 4 4 4
8 6 6 6 10 8 7 7 10 12 15 15 16 17 16 15 16 15 16 16 17 17 16 15 13 11 9 7 6 5 5 5 4 5 6 6 6 7 7 6 6 6 6 6 6 5 5 5 5
8 7 8 8 8 7 8 10 13 13 13 15 15 17 16 16 16 16 16 17 17 17 16 15 12 10 6 6 5 5 4 4 4 5 6 6 6 7 7 8 7 7 7 7 7 6 6 7 7
8 8 9 8 7 7 6 10 15 16 15 14 15 16 18 17 16 16 17 17 16 17 16 13 11 8 4 4 5 4 4 5 5 5 6 6 7 7 8 9 9 9 8 8 8 8 8 8 8
10 10 10 8 7 7 6 7 13 15 15 15 17 16 18 17 16 16 16 16 16 16 14 11 10 6 4 2 3 4 4 5 5 5 6 7 7 7 8 8 9 10 10 9 9 9 10 10 10
12 11 9 7 7 9 6 6 10 14 16 16 18 17 17 17 16 15 15 15 15 15 13 11 9 6 4 3 3 4 4 5 5 5 6 7 7 7 7 7 9 10 10 10 10 11 10 11 12
12 10 8 7 9 9 6 8 12 16 17 17 18 17 15 15 15 15 15 15 15 15 13 11 9 6 5 4 3 3 4 5 5 6 7 7 8 8 8 9 10 10 10 11 12 12 12 12 12
13 12 9 7 8 9 9 9 13 16 17 16 16 16 15 15 15 14 14 14 14 14 13 11 9 7 5 4 4 4 5 5 5 6 7 7 8 9 9 10 10 11 11 11 12 11 12 12 13
15 13 11 12 11 11 12 12 16 18 15 15 15 15 15 15 13 13 13 14 14 13 11 10 8 7 6 6 5 4 4 5 5 5 6 7 7 8 9 10 11 11 12 12 12 12 13 14 14
16 15 14 14 14 13 12 13 16 16 15 16 16 15 15 14 13 14 13 13 13 12 10 9 9 8 8 6 5 4 5 5 5 5 6 7 8 8 8 10 11 12 12 12 14 15 15 15 15
17 17 16 16 15 12 13 16 16 17 17 17 16 15 14 14 14 14 13 13 13 11 10 10 10 9 9 7 6 6 6 6 6 7 7 8 9 9 9 10 11 12 13 14 16 16 15 16 17
18 18 18 18 17 15 14 16 17 16 17 17 16 15 15 14 14 14 14 13 12 11 11 11 11 10 10 9 8 7 7 7 7 8 9 9 10 11 11 11 12 13 13 14 15 15 15 17 18

GEFSSGP_500_meanwind_168.txt.gz
Wind_Speed
20 19 19 19 20 19 21 22 20 17 16 16 15 14 13 11 9 8 7 5 5 6 5 5 5 4 4 4 4 4 4 4 3 2 2 2 2 2 2 2 2 2 2 2 3 3 3 3 3
18 18 19 20 20 21 22 22 20 18 17 16 15 14 13 10 9 8 6 5 5 5 5 4 4 3 3 4 4 4 4 3 3 2 2 1 1 1 2 2 2 2 2 2 2 2 3 3 3
16 16 19 20 20 21 22 22 21 21 19 17 15 15 13 11 10 8 7 6 6 5 4 4 3 3 3 3 4 3 3 3 2 2 2 1 1 1 1 2 2 2 2 2 2 2 3 3 3
15 16 19 19 20 21 21 20 21 21 19 18 18 15 13 12 11 10 9 8 7 5 4 3 2 2 2 3 3 3 3 2 2 2 2 2 1 1 2 2 3 2 2 2 2 2 3 3 3
14 16 18 20 21 21 21 20 20 19 19 19 18 16 14 14 13 11 10 9 8 6 5 3 2 2 2 2 2 2 2 2 2 2 2 2 1 1 2 2 3 3 3 2 2 2 2 3 3
13 16 18 19 20 19 19 20 19 18 19 18 18 17 16 15 13 12 11 10 8 7 6 5 3 2 2 1 1 1 1 2 2 2 2 2 2 1 2 2 3 2 3 2 2 2 3 3 3
13 16 18 18 18 18 18 18 18 19 20 19 19 18 17 15 14 13 12 11 9 8 7 6 5 3 2 1 1 1 1 1 1 1 1 1 1 1 1 2 2 2 2 2 3 3 3 3 3
13 16 17 17 16 17 17 17 18 19 20 19 19 19 18 16 15 14 13 11 10 9 8 6 5 4 2 1 1 1 1 1 1 0 0 1 1 1 1 1 1 2 2 2 3 3 4 4 4
12 14 14 14 14 14 15 16 17 19 19 19 19 18 17 17 16 15 14 12 11 10 8 7 6 5 3 2 1 1 1 1 2 1 1 1 1 1 1 1 2 2 2 2 3 3 4 4 4
10 12 12 12 11 12 14 14 15 17 19 18 18 18 17 17 16 15 14 13 12 11 10 9 7 6 4 2 2 2 2 2 2 2 2 2 1 1 0 1 1 2 2 2 3 3 3 3 3
8 9 9 9 10 12 12 13 14 16 17 18 18 18 17 17 16 15 14 13 12 12 11 10 8 6 5 4 3 3 2 2 2 3 2 2 2 1 0 1 1 1 2 2 2 2 3 3 3
6 6 5 7 9 10 11 12 14 15 17 18 18 18 17 17 15 15 14 13 12 12 11 10 9 7 6 5 3 2 2 2 2 3 3 2 2 2 1 1 1 1 1 1 2 2 3 3 3
4 5 5 7 7 9 10 12 14 15 17 19 19 18 18 17 16 15 14 12 12 11 10 9 8 7 7 5 4 2 2 2 2 2 3 3 3 3 2 2 2 2 1 1 2 2 2 3 3
6 5 6 6 7 9 11 12 14 16 17 18 19 19 18 18 18 17 15 13 12 11 10 9 8 7 7 6 4 2 1 2 3 3 4 4 4 3 3 3 3 2 1 1 2 2 2 2 2
6 6 6 6 8 10 12 12 14 15 17 17 18 19 19 19 18 17 16 15 13 12 11 10 8 7 6 5 4 2 1 2 3 3 4 4 4 4 4 3 3 2 2 1 1 2 2 2 1
6 5 4 5 7 10 11 12 14 15 16 17 18 19 20 20 18 17 16 15 14 13 12 11 10 8 6 5 4 2 2 3 4 4 4 4 5 5 4 3 3 3 3 2 2 2 1 1 1
5 3 2 4 7 9 11 12 14 14 16 17 18 19 20 20 18 17 16 15 14 13 12 12 11 10 7 5 3 2 2 3 4 4 5 4 5 5 4 4 4 4 3 3 3 3 2 2 2
4 2 1 2 5 8 11 12 13 14 16 17 18 18 20 20 19 18 17 16 15 14 13 12 12 10 7 5 4 1 3 3 4 5 5 5 5 5 5 5 5 4 4 4 4 4 3 3 3
4 3 2 3 6 8 9 10 13 14 15 17 19 19 19 19 19 18 17 17 16 15 14 13 11 9 6 5 3 2 3 4 5 5 5 5 5 5 5 5 5 5 5 4 4 4 4 4 4
6 5 5 7 9 9 8 8 11 14 15 16 18 19 19 19 18 17 16 16 16 16 15 14 11 7 4 4 2 3 4 4 5 5 6 6 6 6 6 6 6 6 6 5 5 5 5 5 5
9 8 7 8 9 9 9 7 9 11 13 15 17 19 19 18 17 16 15 15 16 16 14 13 11 7 4 3 2 3 4 5 6 6 6 5 6 6 6 7 7 7 7 7 6 6 7 7 6
8 9 8 8 8 9 10 9 10 11 12 15 16 18 19 18 18 17 15 16 16 14 12 12 10 6 4 3 2 3 4 5 6 6 5 5 5 6 7 7 7 7 7 7 7 8 8 8 8
9 10 9 9 7 7 9 10 10 11 12 14 17 19 19 18 17 17 16 16 15 14 12 11 10 6 5 3 1 2 3 4 5 5 6 6 7 7 8 8 8 8 8 8 8 8 9 9 9
11 11 10 9 7 6 8 10 11 12 13 14 16 18 17 17 16 17 16 16 15 13 11 10 9 7 6 4 2 0 2 4 5 5 5 6 6 7 8 9 9 10 9 9 9 9 10 10 11
13 12 12 11 8 6 8 10 12 12 12 14 16 16 16 15 15 15 16 15 15 13 10 9 8 7 6 4 3 1 1 3 5 6 6 6 6 7 7 8 9 10 10 10 10 11 11 12 13
13 14 13 13 10 9 9 11 12 12 12 15 15 15 14 13 14 15 15 14 14 11 9 8 8 8 7 5 3 2 1 2 3 5 5 6 6 7 7 7 8 9 10 11 11 12 12 13 14
14 14 14 14 13 11 11 11 12 13 15 16 15 14 13 13 13 13 13 13 12 10 9 8 8 7 7 5 5 3 2 2 3 4 5 6 6 6 7 7 8 9 10 11 12 13 13 13 14
15 15 15 15 15 14 13 13 14 15 16 16 16 15 13 13 13 13 13 12 11 10 8 8 8 8 7 6 6 5 3 3 4 4 4 5 6 6 6 8 9 10 10 11 12 12 13 14 15
15 15 16 16 16 16 16 16 16 16 16 16 16 15 14 13 13 13 12 11 10 9 7 8 8 9 8 7 6 5 4 3 3 4 4 5 6 6 7 8 9 10 11 11 12 13 13 14 15
15 16 17 17 17 17 18 18 18 18 17 17 17 17 16 14 15 12 11 11 10 9 8 8 9 9 8 7 7 6 5 4 4 4 5 6 7 7 8 8 9 11 12 12 12 13 15 16 17

GEFSSGP_500_meanwind_174.txt.gz
Wind_Speed
19 19 20 21 21 20 21 24 24 22 20 18 18 17 16 14 12 11 10 9 7 6 5 5 6 7 7 8 8 9 9 8 7 7 7 6 6 6 6 6 6 5 5 5 5 5 5 4 4
18 18 19 20 21 20 22 24 24 22 20 20 20 18 17 14 13 11 10 9 7 5 5 5 5 6 6 7 7 8 8 7 7 7 6 6 6 6 6 6 6 6 5 5 5 5 5 5 4
17 17 19 20 21 22 24 24 24 22 21 21 20 19 16 14 12 11 10 9 7 5 5 5 5 5 5 6 6 6 6 6 7 7 6 6 6 6 6 6 6 6 6 6 5 5 5 4 4
16 17 18 19 21 23 24 24 24 23 23 22 21 19 16 14 12 11 10 9 7 6 5 5 4 4 4 5 5 5 6 6 6 7 6 6 6 6 6 6 6 6 6 6 5 5 5 5 4
14 16 17 19 21 23 24 25 25 24 23 22 21 19 17 15 13 12 10 9 7 6 6 5 4 4 4 4 4 4 5 5 5 6 6 6 6 6 6 6 6 5 5 6 5 5 5 5 5
14 15 17 20 22 23 25 25 25 24 23 22 21 19 18 16 14 13 11 9 8 6 6 5 4 4 3 3 3 3 4 4 4 5 5 5 5 5 6 5 6 5 5 4 4 5 5 5 5
14 14 17 20 22 23 24 24 24 22 22 21 20 19 19 17 15 14 12 10 9 7 6 6 5 4 3 2 2 2 3 3 4 4 4 4 5 5 5 5 5 5 4 4 4 5 5 5 5
12 14 17 20 21 21 22 23 22 22 22 21 21 20 19 18 16 15 13 11 10 9 7 6 5 4 3 3 2 2 2 2 2 3 3 4 4 4 5 5 4 4 4 4 5 4 5 6 5
10 12 15 17 19 20 20 21 21 21 22 22 21 20 19 18 17 15 13 12 11 10 9 7 6 4 3 3 2 2 2 2 2 2 3 3 3 4 4 4 5 4 4 5 5 5 5 5 5
9 11 13 15 17 18 19 20 20 21 21 22 22 21 20 19 17 15 13 12 12 11 10 8 6 5 4 2 1 1 1 1 1 1 2 2 3 3 4 4 4 4 4 5 5 4 5 5 5
8 10 11 14 16 17 19 19 19 20 20 21 21 21 20 19 17 15 13 12 11 11 11 9 7 5 4 3 1 1 1 1 1 1 1 1 2 3 3 3 4 4 4 4 4 4 4 4 5
6 9 10 13 14 16 18 18 18 19 19 20 20 21 20 18 17 15 13 12 12 11 11 9 7 6 5 3 2 2 1 2 2 2 2 2 2 2 3 2 2 3 3 4 4 4 4 4 4
5 7 9 11 12 14 16 17 18 18 18 19 20 20 20 18 17 16 14 13 12 12 11 9 7 5 5 4 2 2 1 1 2 3 3 3 2 2 2 2 2 2 3 3 3 3 3 3 4
4 5 7 9 11 12 13 14 16 17 17 18 19 19 20 18 18 16 14 14 13 12 11 10 8 6 5 4 2 2 1 0 2 3 3 3 3 2 2 2 2 2 3 3 3 3 2 3 2
2 4 5 7 9 10 11 13 14 15 16 17 18 19 19 18 18 17 15 14 13 11 10 10 9 7 5 3 2 2 0 1 1 2 3 4 3 2 2 2 3 2 2 2 2 1 1 1 1
1 1 3 5 7 9 11 13 13 14 14 16 18 19 19 18 18 18 16 15 14 12 11 9 9 8 5 4 3 2 2 2 2 2 3 3 3 2 2 3 3 2 2 2 1 0 0 0 0
3 1 1 2 4 6 9 11 12 13 14 15 16 17 18 18 18 18 17 16 14 13 11 10 9 8 5 4 3 3 3 2 3 3 3 3 3 3 4 4 3 3 2 2 2 2 2 1 1
5 4 2 3 4 5 8 9 11 12 13 14 15 16 17 18 18 18 17 17 15 13 11 10 9 7 5 3 3 4 5 4 4 4 4 4 4 4 5 5 5 4 4 3 3 3 3 3 2
7 5 4 4 5 6 7 8 10 11 12 13 15 16 16 17 18 18 17 17 17 15 13 11 10 7 5 4 4 3 4 5 4 4 5 5 5 5 5 6 6 5 5 4 4 4 4 4 4
7 7 6 6 7 7 7 8 9 11 12 12 14 15 16 17 17 18 17 17 17 15 13 11 11 8 6 4 4 3 4 5 5 4 4 5 4 5 6 6 6 6 5 5 5 5 5 5 5
9 8 8 8 8 7 8 9 10 10 11 12 14 15 15 16 16 17 17 17 16 15 14 12 10 9 6 4 3 3 3 4 5 5 5 5 5 5 5 7 7 7 6 5 5 5 6 6 6
11 10 10 10 9 8 8 8 9 10 12 12 14 15 15 15 15 16 16 17 16 15 14 12 9 8 6 4 2 2 3 4 5 5 5 5 5 5 5 7 8 8 8 7 7 7 7 7 8
13 12 11 10 10 9 9 8 9 10 12 12 13 13 14 15 15 15 16 16 15 14 13 11 9 8 7 5 3 2 3 3 5 6 6 6 6 6 6 7 9 9 9 9 9 9 9 9 9
15 13 12 12 11 11 10 9 9 9 10 11 12 13 14 15 15 16 15 16 15 14 12 9 8 7 6 5 3 2 3 4 5 6 7 7 7 7 8 7 8 10 10 10 10 10 10 11 11
15 14 13 13 12 12 11 10 9 8 9 11 12 13 14 16 16 16 16 16 15 13 11 9 7 6 5 5 5 3 3 3 4 6 7 8 8 9 9 9 9 9 10 11 12 12 12 12 13
16 15 15 14 13 12 12 11 9 9 10 11 13 14 15 16 16 16 17 16 15 13 10 9 7 6 5 5 5 4 4 4 5 6 7 8 9 9 10 10 10 10 11 11 12 13 13 14 14
17 16 15 16 15 14 13 12 10 10 11 11 13 14 16 16 15 16 17 16 14 12 10 9 7 6 6 6 6 6 6 5 6 6 7 8 9 9 9 10 10 11 11 12 13 13 14 14 15
20 18 17 17 17 16 14 13 12 11 11 12 13 14 15 16 16 16 17 16 13 11 9 9 8 7 7 7 7 7 7 6 6 7 7 8 8 9 10 10 11 12 12 12 12 13 14 14 15
20 19 19 19 18 17 16 14 13 13 13 13 13 13 14 15 16 16 15 16 13 11 10 9 9 8 8 8 8 8 7 7 7 7 7 7 8 9 9 10 10 11 12 13 13 14 15 16 17
21 20 19 19 18 18 17 14 13 13 13 14 14 13 13 15 16 16 15 15 14 12 10 10 9 9 9 9 8 8 8 7 7 7 7 8 8 9 10 11 12 12 12 13 14 15 16 16 17

GEFSSGP_500_meanwind_180.txt.gz
Wind_Speed
18 18 17 18 20 17 18 19 19 18 17 16 15 15 14 13 12 11 10 9 8 7 6 5 5 6 6 7 7 8 8 8 9 9 8 8 8 8 7 7 7 6 7 6 6 5 6 5 5
18 18 18 19 18 17 18 19 20 19 18 18 16 15 14 13 12 11 10 9 8 7 5 4 4 4 5 6 7 8 8 8 8 8 8 7 7 7 7 8 8 7 7 7 6 6 6 5 5
18 18 18 18 17 18 19 20 20 20 19 19 18 17 15 13 12 11 10 9 8 6 5 4 3 4 4 5 6 7 7 8 8 8 7 7 7 7 7 8 8 8 7 7 6 6 6 6 5
18 18 18 17 17 19 20 21 21 22 21 20 20 19 17 15 13 11 10 9 8 6 5 4 3 3 4 4 5 6 6 7 7 7 7 7 7 7 8 8 7 7 7 7 7 7 7 6 6
16 18 16 16 18 19 20 21 22 22 22 21 20 19 17 16 14 12 10 9 7 6 5 4 3 3 3 4 4 5 5 6 7 7 7 7 7 8 7 7 7 7 7 6 6 6 6 6 6
16 16 14 16 18 19 20 21 22 23 22 22 21 19 18 16 15 13 11 9 7 6 4 3 3 2 3 3 4 5 5 5 6 7 7 7 7 7 7 7 7 6 6 6 6 6 6 6 5
16 14 14 15 17 18 19 20 21 22 21 21 20 19 18 17 15 13 12 10 8 6 5 4 3 2 2 3 3 4 5 5 6 6 6 7 7 6 6 6 6 5 6 6 7 6 6 6 6
15 14 13 14 15 16 18 19 20 20 20 20 19 18 17 16 15 14 12 11 9 7 6 4 3 2 2 3 3 4 4 5 5 5 6 6 6 6 6 6 6 6 7 7 7 6 6 6 7
15 13 12 14 14 15 17 18 18 19 19 19 19 18 17 15 14 14 13 11 10 8 6 5 4 2 1 2 3 3 4 4 5 5 5 5 6 6 6 7 7 7 7 7 7 7 7 6 7
13 11 12 13 14 14 16 17 18 18 19 19 18 18 17 15 14 13 12 11 10 9 8 6 4 3 1 1 2 3 4 4 4 4 4 5 6 6 6 6 7 7 7 7 7 7 7 7 7
11 10 11 12 13 13 14 16 17 18 18 18 17 17 17 16 14 13 11 10 9 8 8 7 6 4 1 1 2 3 3 3 3 3 4 4 5 5 6 6 7 6 7 7 7 7 7 7 6
9 10 10 11 12 13 14 15 16 17 17 17 17 17 17 16 15 13 11 10 9 8 7 7 5 4 1 1 2 3 3 3 4 3 3 4 4 5 5 5 5 6 6 6 6 6 6 6 6
7 9 10 10 11 12 12 14 14 15 16 16 16 16 17 16 15 13 11 10 10 9 8 7 5 3 1 1 1 2 3 3 3 3 3 3 4 4 5 5 5 6 6 6 6 6 5 5 5
6 7 8 9 10 10 11 12 13 14 14 15 15 15 16 16 15 15 12 11 10 9 8 7 6 4 2 1 2 2 3 3 3 3 3 4 4 5 5 5 5 5 5 5 5 5 5 4 4
5 6 6 7 8 9 10 11 12 12 13 14 15 15 15 15 16 16 14 12 10 9 8 8 7 5 3 1 1 2 3 3 3 3 4 4 4 5 5 6 5 5 4 4 4 4 3 3 2
3 4 4 5 7 7 9 9 10 11 13 14 14 15 15 15 15 16 15 13 11 9 8 8 8 6 4 2 1 3 3 4 3 4 4 4 4 5 5 6 5 5 5 4 4 3 3 2 2
1 2 1 3 5 7 8 8 10 11 12 13 14 15 15 14 15 16 16 14 12 10 9 9 8 6 5 3 2 2 3 4 4 4 5 5 5 5 5 6 6 5 5 4 3 3 2 2 2
3 1 1 2 4 6 7 8 9 10 11 12 13 14 14 14 15 15 16 15 13 12 10 10 9 7 6 4 2 1 2 3 4 4 5 5 5 5 5 6 6 6 5 5 4 3 3 3 3
5 3 1 1 3 5 6 6 8 9 10 11 12 13 14 14 15 15 15 15 13 12 11 11 10 8 7 5 3 1 2 4 4 4 5 5 6 6 6 6 6 7 6 5 5 5 4 4 4
5 3 3 2 2 3 5 6 8 9 10 11 11 12 13 13 14 14 15 15 14 13 12 11 11 10 7 5 3 2 2 4 4 4 5 6 6 6 6 7 7 7 7 7 6 6 5 5 5
7 5 4 3 2 3 5 6 7 9 10 10 11 12 12 13 14 14 15 15 14 14 13 11 11 10 8 5 3 3 2 3 4 4 5 6 6 6 6 7 7 8 8 8 7 7 6 6 6
8 7 5 4 3 4 4 5 7 8 9 10 11 11 12 13 14 14 15 15 14 14 14 11 10 9 8 6 4 3 2 2 3 4 5 6 6 6 6 7 7 8 8 9 9 8 8 8 8
10 7 6 5 4 4 4 3 7 8 9 10 11 11 12 13 14 14 15 14 14 14 13 11 9 8 8 7 5 3 1 2 2 3 5 6 7 7 7 7 7 8 8 9 9 9 9 9 9
11 9 7 6 5 6 5 3 6 8 9 9 10 11 12 13 14 15 15 14 14 14 12 10 8 8 7 6 5 4 3 3 3 4 5 5 6 7 7 7 7 8 8 9 10 11 11 11 11
12 10 8 7 6 7 6 5 6 8 8 9 10 12 12 13 14 15 15 15 15 13 12 9 8 7 7 6 6 5 4 4 4 5 5 6 7 8 8 9 9 9 9 10 11 12 12 13 13
13 12 10 8 8 8 8 6 7 8 8 9 10 12 13 13 14 15 15 15 15 13 11 9 7 7 6 6 6 6 5 5 5 6 6 7 7 8 9 10 10 10 11 12 12 12 13 14 14
15 14 12 11 9 8 9 9 9 9 9 10 11 12 12 12 13 14 14 15 14 12 10 9 8 8 7 6 6 6 6 6 6 7 7 7 8 9 10 10 11 11 12 13 14 14 14 15 15
17 15 14 12 10 9 10 9 9 10 10 11 11 12 12 12 13 14 14 15 14 12 11 10 9 8 8 7 7 7 7 7 7 7 7 8 9 10 10 11 11 11 12 13 14 15 15 15 15
19 18 16 13 12 9 9 11 11 11 11 11 11 11 12 12 14 14 15 14 14 13 12 12 11 11 10 8 8 7 7 8 8 8 8 9 10 10 11 11 11 12 12 13 13 14 15 16 16
21 19 17 15 14 11 9 12 12 12 12 12 11 12 12 13 14 14 15 15 15 14 13 13 12 12 10 9 9 8 9 9 10 10 10 10 11 11 12 12 12 12 13 14 14 15 15 16 17

GEFSSGP_500_meanwind_186.txt.gz
Wind_Speed
21 21 22 24 22 14 13 12 11 11 10 10 8 7 7 7 7 6 5 6 6 6 6 5 5 5 4 3 3 3 3 3 3 4 4 4 4 4 4 5 6 6 6 6 7 7 7 6 6
21 21 24 23 15 12 13 13 13 13 12 11 10 8 8 7 7 6 6 6 6 6 6 5 5 4 4 3 3 2 2 2 3 3 3 4 4 4 4 5 6 7 7 6 6 6 6 6 5
22 22 23 16 11 12 12 13 13 13 13 12 11 10 9 8 7 7 6 6 6 5 5 5 5 5 4 3 3 2 2 1 2 2 2 3 3 4 4 5 5 7 7 6 6 6 6 5 5
23 25 20 11 12 13 13 13 14 13 13 13 12 11 10 9 8 8 7 6 6 5 5 5 5 4 4 3 3 2 2 1 1 2 2 3 3 4 4 5 6 7 7 7 7 6 6 6 6
26 23 14 12 13 12 13 14 14 13 13 13 13 12 12 11 10 8 8 7 6 6 5 4 4 4 3 3 3 2 2 2 1 2 2 3 3 4 5 5 6 7 6 7 7 7 6 6 5
24 17 11 11 12 12 13 13 13 13 13 14 14 14 14 13 11 10 9 8 7 7 6 5 4 4 3 3 3 3 2 2 1 2 2 2 3 4 4 5 6 7 6 6 6 7 6 6 6
18 10 9 10 11 12 12 13 13 14 15 14 15 15 15 14 13 12 10 9 9 8 7 7 5 4 3 3 2 3 2 2 1 1 2 2 3 3 4 4 5 5 5 5 6 6 6 6 6
14 10 9 9 10 11 11 12 13 13 15 15 15 15 15 14 14 13 12 10 9 9 8 7 6 5 3 2 2 2 2 2 1 1 2 2 2 2 3 3 4 5 5 6 6 6 6 6 7
11 9 8 8 9 10 11 12 12 13 15 15 16 16 16 15 14 13 13 11 10 10 9 8 6 5 3 2 1 1 1 2 1 1 2 2 1 2 3 3 4 5 5 5 6 6 6 7 7
9 7 6 7 8 9 10 12 13 15 16 17 17 17 16 15 14 14 13 12 11 11 10 9 8 6 4 3 2 1 1 1 0 0 1 1 2 3 3 4 4 5 5 6 6 6 7 7 7
8 6 6 7 7 9 11 13 14 16 16 17 17 17 16 15 14 14 13 13 12 12 11 10 9 6 4 3 2 1 1 1 1 0 1 1 2 3 4 4 5 5 5 6 6 6 7 6 6
6 6 7 7 8 10 10 11 12 14 15 16 17 17 17 16 16 16 15 13 12 11 11 11 10 7 4 4 3 2 2 2 1 1 0 1 1 2 3 5 5 5 5 5 5 6 6 5 5
4 6 7 8 9 9 10 10 12 14 15 16 17 18 18 18 18 17 17 14 12 11 12 11 9 7 6 5 4 3 2 2 2 2 1 1 1 2 2 4 4 4 5 5 5 5 4 4 4
4 5 7 8 8 8 9 11 13 15 17 17 17 18 18 19 18 18 16 14 13 12 11 11 10 8 6 5 4 3 3 3 3 3 2 2 2 2 2 3 3 3 4 5 5 4 4 4 3
5 5 7 8 8 8 8 11 14 15 16 17 18 18 19 19 18 17 16 15 13 12 12 12 10 9 8 6 4 3 3 3 3 3 3 2 2 2 2 3 4 3 3 4 3 3 3 3 2
4 5 4 7 8 8 10 11 13 15 15 17 18 18 19 18 18 17 17 16 14 13 13 12 11 9 8 6 5 3 3 3 3 3 3 3 3 3 3 3 4 3 3 3 3 2 2 1 1
2 2 2 6 8 7 8 10 13 14 15 17 17 17 18 18 18 18 17 16 15 15 14 13 12 10 8 6 5 4 3 3 3 3 3 3 3 3 3 4 5 4 3 3 3 2 2 2 1
2 2 3 5 6 5 6 9 11 13 14 16 17 17 17 18 18 18 18 17 16 15 15 14 13 11 8 7 5 3 3 3 3 3 3 4 4 4 4 4 5 4 3 3 3 3 3 3 2
5 4 4 4 4 4 5 7 10 14 15 16 16 17 17 18 18 18 18 18 17 16 15 15 14 12 10 8 5 3 2 3 4 3 4 4 4 5 4 5 6 5 5 4 4 5 4 4 4
7 5 5 6 5 4 7 7 8 12 14 16 16 17 17 16 17 17 18 17 18 17 16 15 14 13 11 8 6 4 2 3 3 4 4 4 5 5 5 6 6 6 6 6 6 6 6 6 5
8 7 7 6 6 4 9 10 10 12 13 15 17 17 17 17 17 18 18 18 18 18 17 16 15 13 11 9 7 6 4 3 3 4 4 5 5 6 6 6 7 8 8 8 8 8 8 8 8
7 8 7 6 5 5 7 11 11 11 13 15 15 16 16 17 17 18 18 18 18 18 17 16 15 13 11 9 7 6 5 4 4 4 4 4 5 5 6 7 7 8 9 9 9 10 10 9 9
10 9 7 6 5 5 6 9 11 11 12 13 14 15 17 17 17 18 18 18 18 17 17 16 15 13 12 9 8 7 6 5 5 5 5 6 6 6 6 7 8 9 9 10 10 11 11 11 11
11 9 6 5 5 8 8 9 10 11 12 13 14 15 16 16 17 18 18 18 17 17 16 16 15 13 12 10 9 8 7 6 5 5 5 6 7 7 7 8 9 9 10 10 11 11 11 12 12
12 9 5 6 8 10 10 10 12 13 14 14 14 15 15 16 17 18 18 18 18 17 17 16 15 14 12 10 10 8 9 7 6 6 6 6 7 7 8 9 9 9 10 11 11 11 12 12 13
13 11 8 8 9 9 9 11 12 12 14 15 14 14 15 16 17 17 17 18 18 18 17 16 15 14 13 12 11 10 10 8 7 7 7 7 8 8 9 9 9 10 10 11 11 12 13 13 14
14 13 11 11 11 10 11 14 14 12 12 13 13 14 14 15 15 16 17 18 18 18 18 18 16 15 14 13 12 12 11 8 7 7 8 7 8 9 9 9 9 10 10 11 12 12 13 14 15
16 14 13 12 11 10 11 14 15 12 11 13 14 14 14 15 15 16 17 18 18 18 18 18 17 16 15 14 13 12 10 9 8 8 8 8 9 10 10 10 11 11 12 12 13 13 14 15 16
18 16 15 14 12 11 13 16 16 15 13 14 15 14 14 14 15 16 16 18 18 19 19 19 18 17 16 15 14 12 10 9 9 9 10 10 11 11 11 11 12 13 13 14 15 15 15 15 16
19 18 17 16 15 14 14 18 14 14 15 15 15 15 15 15 15 16 17 18 18 19 20 19 18 18 17 16 15 14 12 11 11 11 11 12 12 12 13 13 13 14 14 15 15 16 17 17 17

GEFSSGP_500_meanwind_192.txt.gz
Wind_Speed
20 20 21 21 22 21 22 22 20 18 17 17 16 15 14 12 11 9 9 8 9 9 8 8 8 7 7 7 6 6 6 5 5 5 5 4 3 3 3 3 4 5 5 5 6 7 7 7 6
20 21 21 21 22 22 22 22 20 19 18 17 15 14 13 12 11 10 9 8 9 9 9 8 8 7 7 7 6 5 5 5 5 4 4 4 4 3 3 3 3 4 5 6 6 6 6 6 6
20 21 22 22 21 23 22 22 22 20 19 18 16 14 12 11 11 10 9 9 9 9 9 8 8 7 7 7 6 5 5 4 4 4 4 4 4 4 4 4 5 5 5 5 6 6 6 6 6
19 22 23 22 22 23 23 23 23 21 20 19 18 14 13 12 11 10 10 10 10 9 9 8 8 7 7 6 6 5 5 5 4 4 4 4 4 4 4 5 6 6 5 5 6 5 6 6 6
19 22 22 21 22 23 22 23 22 21 19 19 19 16 15 14 12 10 10 11 10 9 9 8 7 7 7 6 6 5 5 4 4 4 4 4 4 5 5 5 6 6 5 5 5 5 6 6 7
18 21 21 21 22 22 22 22 21 20 20 20 18 17 16 15 13 12 11 11 10 9 9 8 8 7 7 6 6 5 4 4 4 4 4 4 4 4 5 5 5 5 5 6 5 6 6 6 7
16 18 20 20 21 21 22 22 20 19 21 20 20 18 18 16 15 13 12 11 10 9 8 8 7 7 6 6 5 5 5 4 4 4 4 4 4 4 4 5 5 5 5 5 6 6 6 6 7
16 16 17 19 19 21 21 20 20 21 21 20 20 20 19 17 16 15 13 12 11 10 9 8 7 6 6 5 5 4 4 4 4 4 4 3 4 4 4 4 4 5 5 6 6 7 7 7 7
14 14 16 17 17 18 18 18 20 21 21 21 21 21 19 18 17 16 13 12 11 10 9 8 7 6 5 4 4 4 4 4 4 3 3 3 3 3 3 3 4 5 5 6 6 6 7 8 8
12 12 15 16 16 16 17 18 20 22 22 22 21 20 19 18 17 16 14 12 12 11 9 8 8 6 5 4 4 3 4 3 3 3 3 3 2 3 2 3 4 5 5 6 6 7 7 8 8
11 12 14 15 15 15 17 19 20 21 21 21 21 20 20 19 18 16 15 13 12 11 10 9 8 7 5 4 4 3 3 3 3 2 2 2 2 3 3 3 4 5 5 5 6 6 6 7 7
10 11 12 14 16 17 19 19 20 20 20 21 21 20 20 20 19 17 16 14 13 12 11 10 9 7 6 4 3 3 2 2 2 2 2 2 3 3 3 3 4 4 5 5 5 6 6 6 5
9 11 12 13 15 18 18 18 20 19 19 20 20 20 20 19 19 18 17 15 14 13 12 11 9 7 6 4 3 3 2 2 2 2 2 2 2 2 3 3 3 4 5 5 5 5 5 5 4
8 9 11 12 14 17 17 18 19 20 20 19 19 20 20 19 19 19 18 16 16 14 13 12 10 8 6 4 3 2 2 2 2 2 1 1 2 2 2 3 4 4 5 5 4 4 4 4 4
7 8 9 10 12 15 16 18 19 20 20 19 18 19 19 19 19 19 18 17 15 14 14 13 12 9 7 5 3 2 1 1 1 1 1 1 2 2 2 3 4 4 4 4 4 4 4 3 3
6 6 7 8 10 14 15 16 17 19 21 20 19 19 19 20 20 19 18 17 16 14 14 13 12 10 8 6 4 2 1 1 1 1 1 1 2 2 3 3 4 4 5 5 4 3 3 3 3
6 4 4 5 9 12 14 15 15 17 19 20 20 20 20 20 20 19 19 17 17 15 14 14 13 11 9 7 4 2 1 0 1 1 1 1 2 2 4 4 4 5 5 4 4 4 4 4 3
6 3 2 2 6 9 13 13 14 15 17 19 20 19 20 20 20 20 19 18 17 17 15 14 13 11 10 8 6 3 1 0 1 1 1 1 2 2 4 4 5 5 5 5 5 5 5 5 4
6 3 1 0 4 8 11 11 12 14 15 17 18 18 19 20 20 19 18 18 17 17 16 14 14 12 11 9 6 5 3 1 1 2 2 2 2 2 3 5 5 5 5 5 5 6 6 6 6
8 5 3 2 4 8 10 10 10 13 13 14 16 17 18 19 19 19 18 17 17 17 16 15 14 13 11 10 8 5 4 2 2 3 3 3 3 3 3 5 6 6 6 6 7 7 7 7 7
9 7 6 5 5 8 10 10 10 13 14 13 15 17 17 18 18 18 17 16 16 16 16 15 13 12 11 10 8 7 5 4 2 2 3 3 4 4 4 5 6 7 7 8 8 8 8 9 9
10 8 8 7 7 8 8 9 10 12 12 13 14 15 16 17 17 17 17 16 15 16 15 15 13 13 12 10 9 7 6 5 3 3 4 4 4 5 5 5 6 7 8 8 9 10 10 10 11
11 10 10 9 8 8 8 9 9 11 12 13 15 15 15 17 16 16 16 16 15 15 15 14 13 13 12 11 10 8 7 6 4 4 4 4 4 5 6 6 7 7 8 9 9 10 11 11 12
13 13 12 11 10 9 9 10 10 11 12 13 14 15 15 16 15 14 15 15 15 15 15 14 13 13 12 11 10 8 7 6 5 4 4 4 5 6 7 7 8 9 9 10 11 11 11 11 12
15 15 14 12 10 8 9 11 11 10 11 11 13 14 14 15 14 14 14 16 16 15 15 14 14 13 13 12 10 9 8 6 6 5 5 5 6 8 8 8 9 10 11 11 11 11 12 12 13
16 16 15 13 10 9 10 11 10 9 10 10 11 12 13 14 14 15 15 15 15 15 15 15 15 14 13 13 12 10 8 7 6 6 6 6 7 8 9 9 10 10 11 11 12 12 12 13 13
17 16 15 14 12 11 11 11 10 9 9 10 10 11 12 12 14 15 14 15 15 15 15 16 15 14 14 13 12 11 9 7 7 7 7 6 7 7 8 10 10 10 11 11 12 13 13 14 14
17 17 17 16 14 13 12 11 10 9 9 11 11 11 11 12 13 14 14 15 15 15 15 16 16 15 14 13 13 12 11 10 8 8 8 7 8 8 8 9 9 10 11 11 12 13 14 14 14
18 19 20 19 17 16 14 13 11 9 10 11 11 10 10 12 13 14 14 15 15 15 16 16 15 15 15 14 14 14 13 12 10 9 9 9 9 9 9 10 10 10 10 11 12 12 14 14 15
20 20 20 19 18 17 16 14 13 11 11 11 11 11 11 12 13 13 14 15 15 15 16 16 16 15 15 15 15 14 13 12 12 11 10 11 12 11 11 11 11 11 11 12 12 13 14 15 15

GEFSSGP_500_meanwind_198.txt.gz
Wind_Speed
23 22 21 22 22 21 21 22 22 21 19 18 17 16 15 14 12 11 10 9 8 8 8 8 8 8 9 9 9 9 9 8 8 8 7 7 7 7 7 7 7 6 6 5 5 4 4 4 4
22 21 21 21 22 21 22 23 23 21 20 19 18 17 15 13 12 10 9 8 8 7 8 8 8 8 8 9 9 8 8 8 8 8 8 8 8 7 7 7 7 6 5 5 5 4 4 4 4
21 20 20 21 21 22 23 24 23 22 20 20 19 18 16 13 12 10 9 8 7 7 7 8 8 8 8 8 8 8 8 8 8 8 8 8 8 8 7 7 7 6 5 5 5 4 4 4 4
20 20 20 21 21 22 23 23 24 23 21 20 20 19 17 14 12 10 9 8 7 7 8 8 8 8 8 8 8 8 7 8 8 8 8 8 8 7 7 7 7 6 5 5 4 4 4 4 4
19 19 20 20 21 22 23 24 24 23 21 20 20 19 17 15 12 10 9 8 7 7 8 8 8 8 8 8 7 7 7 7 7 8 8 8 7 7 8 7 7 6 5 5 4 5 4 5 5
19 19 20 21 22 23 24 24 24 23 21 20 20 19 17 15 13 11 10 8 7 8 8 8 7 7 7 7 7 7 7 7 7 7 8 7 8 7 7 6 6 5 5 4 4 5 5 6 6
18 18 20 22 23 23 24 24 24 22 20 20 19 19 17 15 14 12 10 9 8 8 8 7 7 7 6 6 6 6 7 7 7 7 8 8 7 6 6 5 5 5 5 5 5 5 5 5 5
17 18 20 22 23 23 24 24 23 23 21 20 19 19 18 16 14 12 11 10 9 9 8 7 6 6 5 6 6 6 6 6 7 7 7 7 6 6 6 5 5 4 4 4 5 5 5 5 5
16 18 20 22 22 23 23 23 22 22 21 19 19 19 18 16 14 12 11 11 10 10 8 6 5 5 5 5 6 5 6 6 6 6 6 5 6 5 5 5 5 4 4 4 4 5 5 5 5
15 18 19 20 21 22 22 23 22 22 21 20 19 19 18 17 15 13 12 12 11 10 10 8 6 5 5 5 5 5 5 6 6 5 5 5 5 5 5 5 5 4 4 4 5 5 6 5 5
14 17 18 20 21 22 22 23 23 22 22 21 20 19 18 17 15 14 13 12 12 11 10 9 7 6 5 4 4 5 5 5 5 5 5 5 5 5 5 4 4 4 4 4 4 5 5 5 5
12 15 17 19 20 21 22 22 23 23 22 21 20 20 19 18 16 15 14 13 13 12 11 9 8 6 5 4 4 4 4 4 5 5 4 4 4 4 4 4 4 4 4 4 4 4 4 4 4
10 13 15 17 19 20 21 22 22 22 22 21 20 20 19 19 18 16 15 15 14 13 12 10 8 6 6 5 4 3 3 4 4 4 4 3 4 3 3 3 3 4 4 4 3 3 4 3 3
8 11 13 15 17 18 19 20 21 22 22 21 20 20 20 20 19 17 17 16 14 13 12 11 10 8 7 5 3 3 3 3 3 3 3 3 3 2 2 2 3 4 4 4 3 3 3 3 3
5 7 10 12 14 16 18 19 20 20 20 20 19 19 20 21 20 18 17 16 14 13 12 11 9 9 7 5 4 3 2 2 3 2 2 2 2 2 3 3 3 4 3 3 3 3 3 3 2
3 4 6 9 11 13 15 17 17 18 18 18 18 19 19 20 20 18 17 16 15 13 12 10 9 8 7 6 5 3 2 2 2 1 1 1 2 2 3 3 3 3 4 3 3 3 3 3 3
1 2 3 6 9 10 12 15 16 16 16 16 17 18 19 19 20 19 17 16 15 14 12 11 9 8 7 6 5 4 2 1 0 0 1 1 2 2 3 4 4 4 4 4 4 4 4 4 4
3 2 2 4 6 8 10 12 13 15 15 15 16 17 18 18 18 18 17 16 15 14 13 12 11 9 8 7 5 4 2 1 1 1 2 2 2 2 3 4 5 5 5 5 5 5 6 6 6
6 4 2 1 4 6 7 9 11 13 14 15 15 16 17 18 18 17 17 16 15 15 14 12 11 10 9 7 6 4 3 1 1 1 2 3 3 3 3 4 5 6 6 6 6 6 7 7 8
9 7 4 2 3 4 6 7 10 12 13 14 15 15 16 17 18 17 17 16 15 15 14 13 12 10 9 8 7 5 3 2 2 2 3 4 4 4 5 5 6 6 6 7 7 8 8 9 9
11 10 8 6 5 6 7 7 9 11 12 13 14 14 15 15 17 16 16 15 15 14 14 14 13 11 10 8 7 6 5 3 2 2 3 4 4 5 5 6 6 6 7 7 8 9 10 11 11
14 12 11 9 8 7 8 7 8 10 11 12 13 13 13 14 15 16 15 15 14 14 14 13 13 12 10 9 8 7 5 5 3 3 3 3 4 5 5 6 7 7 8 8 9 10 11 11 12
15 14 13 12 11 9 9 8 8 9 10 10 11 11 12 13 14 15 14 14 14 14 14 13 13 12 11 10 9 8 7 6 5 5 4 5 5 6 7 8 9 9 10 10 11 12 12 12 12
16 15 15 14 13 11 10 10 9 8 9 9 10 11 12 13 14 14 13 13 14 14 14 14 14 13 12 12 11 9 7 7 6 6 6 6 6 7 8 9 9 10 11 11 11 12 13 13 14
18 16 16 15 14 13 11 11 10 8 9 9 10 10 11 12 13 13 13 13 14 14 14 14 14 14 13 12 12 11 9 8 7 7 7 7 7 8 9 10 10 11 12 12 12 12 13 14 15
19 18 17 17 16 15 13 13 11 9 10 10 9 9 10 10 11 11 12 12 13 13 14 15 14 14 13 13 12 12 11 9 8 7 7 8 8 9 9 11 12 12 13 14 14 14 14 15 16
21 20 19 18 18 17 15 13 12 11 11 10 9 9 9 9 10 11 11 11 12 13 14 14 15 14 14 13 13 12 12 10 9 8 8 8 8 9 10 11 12 12 13 14 14 15 16 16 16
22 22 21 20 19 17 16 14 13 12 10 10 9 8 8 9 10 11 11 11 12 13 13 14 14 14 14 14 13 13 13 12 10 10 9 9 10 10 11 12 12 13 13 14 15 15 16 16 17
23 23 22 22 21 19 18 15 13 12 10 9 9 8 9 10 11 11 11 11 12 13 13 14 15 14 14 14 14 14 14 13 11 11 11 11 11 11 11 12 12 13 13 14 15 15 15 16 16
25 24 24 24 22 20 19 17 14 13 12 12 11 11 11 11 12 12 12 12 13 13 13 14 15 14 14 15 15 15 15 14 14 12 12 12 12 12 12 13 13 13 14 14 15 16 17 17 18

GEFSSGP_500_meanwind_204.txt.gz
Wind_Speed
21 20 19 19 20 17 15 16 16 16 14 14 14 13 13 12 10 10 10 9 8 8 8 7 7 7 7 8 8 8 9 9 9 9 9 8 8 8 8 8 8 7 7 7 6 7 7 7 7
20 20 20 20 19 16 17 17 17 16 16 15 14 14 13 12 11 10 10 9 8 8 7 7 7 7 7 8 8 9 9 9 9 9 9 9 9 9 9 9 9 8 8 8 7 7 7 7 7
20 20 20 21 18 17 18 19 18 17 16 15 15 14 13 12 11 10 10 9 8 8 7 7 7 6 6 7 8 9 9 9 10 10 10 9 10 10 10 10 9 9 9 8 8 7 7 7 7
20 21 21 20 19 19 19 19 19 19 17 16 15 14 14 12 11 10 9 9 8 7 7 7 6 6 6 6 8 9 9 9 9 9 10 10 10 10 10 10 9 9 9 8 8 8 7 7 6
19 21 20 18 19 20 20 19 20 19 18 17 16 15 14 13 12 11 9 8 8 7 6 6 5 5 5 6 8 8 8 8 9 9 9 9 10 10 9 9 9 9 9 9 8 7 7 7 7
19 20 17 18 19 20 20 20 20 20 19 18 16 15 14 13 12 11 9 8 7 6 6 5 5 5 5 6 7 7 8 8 9 9 10 9 9 9 9 9 8 8 8 8 7 7 7 7 7
18 17 17 18 19 20 20 21 21 21 19 18 17 16 14 13 12 10 9 8 7 6 5 5 5 5 5 5 6 7 7 8 9 9 10 9 8 8 8 8 8 7 7 7 7 7 7 7 6
16 17 16 17 18 20 21 21 21 21 20 18 18 17 15 13 12 11 9 8 7 6 6 5 5 5 5 6 6 7 7 8 8 9 9 9 8 7 7 7 7 7 7 7 7 7 7 7 6
16 16 15 16 18 20 21 21 22 22 21 20 19 18 16 14 13 11 9 8 7 7 6 6 5 5 5 6 6 7 7 8 7 8 9 8 8 7 7 7 7 7 7 7 7 7 6 6 6
16 14 15 16 18 19 20 21 22 22 21 21 20 19 18 16 14 12 10 9 8 7 6 6 5 5 5 5 5 6 6 6 6 7 7 7 7 7 7 7 7 7 7 7 7 7 6 6 6
13 13 14 16 18 19 20 21 21 21 21 21 20 20 19 17 16 13 11 10 9 7 6 5 5 5 5 5 5 5 5 5 6 6 6 6 6 6 6 6 6 6 6 6 6 6 6 5 5
11 12 13 15 17 18 20 20 20 20 20 20 21 21 20 18 16 15 13 11 9 8 7 6 6 5 5 5 4 4 4 4 5 5 5 6 6 6 6 6 6 5 6 5 5 5 5 5 5
9 10 12 14 15 17 18 19 20 20 19 19 20 21 20 19 17 15 14 12 10 9 8 7 6 5 5 5 4 3 4 4 4 4 4 5 5 5 5 5 5 5 5 5 5 5 5 5 5
7 8 10 12 14 15 17 18 19 19 19 19 19 20 20 19 17 16 14 13 11 9 8 7 6 5 4 4 3 3 3 3 3 3 4 4 4 4 4 4 5 4 4 4 4 4 4 4 4
5 6 8 10 11 13 15 17 17 17 18 18 19 19 20 19 17 16 15 13 12 10 8 8 6 5 4 3 3 3 3 2 2 3 3 4 3 3 3 4 4 4 4 4 4 3 3 3 3
2 5 6 8 10 11 14 15 15 16 17 18 18 18 18 19 18 17 16 14 12 11 9 8 7 6 5 4 3 2 2 2 2 2 3 3 3 2 2 4 4 4 4 4 4 4 3 3 3
1 1 3 5 8 9 11 12 13 14 16 16 17 17 17 18 18 17 16 15 13 11 10 9 8 8 6 5 3 2 1 1 2 1 2 2 2 2 3 4 4 4 4 4 4 4 4 4 5
3 1 2 4 6 7 9 10 11 12 14 15 16 17 17 16 17 17 16 14 13 12 11 10 9 9 8 7 5 4 2 1 1 1 1 1 2 2 3 4 4 4 4 5 5 5 5 6 6
5 3 2 3 4 5 7 9 10 11 12 14 15 16 16 16 16 16 15 14 12 11 11 10 10 9 8 7 6 5 4 2 1 1 2 2 2 3 3 4 5 5 6 6 6 7 7 7 7
8 5 5 4 3 4 5 7 9 9 11 13 14 14 15 15 15 15 14 13 12 12 11 11 11 10 9 8 6 5 4 3 2 2 3 3 3 4 4 5 6 6 6 7 7 8 8 9 9
10 8 7 6 5 5 5 8 8 8 10 12 13 13 14 14 13 13 13 12 12 12 11 11 10 10 10 9 7 6 5 4 4 3 3 3 4 4 4 5 6 6 7 7 8 9 9 10 10
11 10 9 8 6 6 6 6 8 9 9 10 11 12 13 12 12 12 12 11 11 11 11 11 10 10 10 10 9 7 6 6 5 5 5 5 5 5 5 6 7 7 8 8 9 10 10 11 12
13 12 11 9 8 7 7 6 8 9 9 9 10 11 11 11 11 11 11 10 11 11 11 11 11 10 9 9 10 9 8 7 6 6 6 6 6 6 7 8 8 8 9 9 10 11 12 13 13
14 12 11 10 9 9 8 6 7 8 8 9 9 10 11 11 11 10 10 10 11 11 11 11 11 11 11 10 11 11 10 9 8 8 8 8 6 7 8 9 9 9 10 11 12 13 14 14 14
15 13 10 10 10 10 10 8 7 8 8 8 8 8 10 10 9 9 10 10 10 11 11 11 11 11 11 11 12 12 12 11 10 9 9 8 6 7 8 9 10 10 11 12 13 14 15 15 15
18 15 12 11 10 11 12 10 8 8 8 8 7 8 8 9 9 9 9 10 10 11 11 11 10 11 12 12 12 12 11 12 11 10 10 8 7 8 9 10 10 11 12 13 14 15 15 16 16
19 18 15 13 12 11 12 11 9 8 8 8 7 7 8 8 8 8 9 10 10 11 11 11 11 11 12 12 12 13 12 12 11 10 10 9 9 9 9 10 11 12 12 13 14 15 15 16 17
20 18 17 15 14 13 13 12 10 8 8 8 7 7 7 8 9 9 10 10 11 11 10 10 11 12 12 12 13 13 13 12 12 12 11 10 10 10 10 11 11 12 12 13 13 15 16 16 17
23 21 19 17 16 14 12 12 11 9 9 9 9 8 8 8 9 10 10 10 11 10 10 10 11 12 12 12 13 13 13 13 13 13 12 12 12 12 12 12 13 14 14 14 15 15 16 16 17
24 23 21 19 18 16 14 13 13 11 10 10 10 10 10 9 10 11 11 11 11 11 10 11 12 12 12 12 13 14 14 14 14 14 14 14 14 14 14 13 14 14 15 15 15 16 17 17 17

GEFSSGP_500_meanwind_210.txt.gz
Wind_Speed
20 20 21 21 23 17 14 13 12 11 10 10 9 8 8 8 7 7 6 6 7 6 6 6 5 4 4 4 4 4 3 4 5 5 6 6 6 6 5 5 5 6 6 6 6 5 6 7 8
21 19 21 23 18 13 13 12 11 11 11 10 10 9 8 8 7 7 7 7 7 7 6 6 5 5 5 5 4 4 3 3 4 4 5 5 6 5 6 6 6 6 5 5 5 5 6 7 7
21 21 24 20 12 13 13 13 12 12 11 11 10 9 9 9 8 8 7 7 7 7 7 6 4 5 5 5 5 4 4 3 3 3 4 5 6 6 6 6 6 6 5 5 5 6 7 7 7
19 24 22 14 13 14 14 14 14 13 12 12 11 10 10 9 8 8 8 7 7 7 7 7 5 5 5 5 5 5 4 4 4 4 5 6 6 6 6 6 7 6 6 6 6 7 7 7 7
24 25 15 12 13 14 15 15 14 14 13 13 12 11 10 10 9 8 8 8 7 8 8 8 7 6 5 5 5 5 5 5 5 5 6 6 7 6 5 6 6 6 7 7 7 7 7 7 6
24 19 12 12 13 13 14 14 14 15 15 14 14 13 11 10 10 9 9 8 7 8 8 8 8 7 6 6 5 5 5 5 5 6 6 6 6 6 5 6 6 7 6 6 6 6 6 6 5
19 14 11 11 13 13 14 14 15 15 16 16 16 14 12 12 11 9 9 8 7 7 8 7 6 6 6 6 6 5 5 5 5 5 5 6 6 5 5 5 6 7 6 6 5 5 5 5 5
16 12 11 10 13 13 13 14 14 15 16 17 17 16 14 13 12 11 10 9 8 7 7 7 6 5 5 5 5 5 5 4 5 5 5 5 5 5 5 6 6 6 6 6 5 5 4 5 5
13 11 10 10 12 13 14 15 16 17 17 17 17 17 15 13 13 12 11 10 9 8 7 7 6 6 5 5 5 5 5 4 4 5 5 5 5 5 5 5 5 5 5 6 6 5 5 5 5
9 9 10 10 11 13 15 17 18 18 19 19 19 18 17 15 13 13 12 11 10 9 8 8 7 6 5 4 4 4 5 5 4 4 5 5 5 5 5 5 5 4 4 5 5 5 5 5 5
7 9 9 10 11 13 16 17 18 18 19 20 20 19 17 17 16 15 13 13 11 9 8 8 7 6 5 4 4 4 4 4 4 4 4 4 4 4 4 4 4 4 4 4 4 4 4 4 4
7 10 10 10 12 13 15 16 16 17 18 20 21 20 18 18 17 16 15 13 12 10 9 8 7 7 6 5 4 4 4 4 4 4 3 3 3 3 3 3 3 3 3 4 4 4 4 3 3
6 9 10 11 12 12 12 14 15 18 19 20 21 21 20 20 19 18 17 14 12 11 10 9 8 7 6 5 4 3 3 3 3 3 3 2 2 2 2 2 2 3 3 3 4 4 3 3 3
5 8 9 10 11 13 12 12 14 17 19 20 20 21 21 21 20 19 17 15 13 12 10 9 8 7 6 6 4 3 3 3 2 2 1 2 1 1 1 1 2 2 2 2 2 3 3 3 2
6 7 6 9 10 11 13 13 15 16 18 19 20 20 20 20 20 19 17 15 14 12 11 10 9 8 7 6 6 4 3 3 3 2 1 1 1 1 0 2 2 1 1 1 1 2 2 2 2
4 4 5 7 10 11 12 13 14 14 16 18 19 20 20 20 20 19 19 16 15 13 12 11 11 9 8 7 6 5 4 3 3 2 2 1 1 2 1 1 2 3 2 2 2 2 2 2 2
1 4 5 5 7 10 11 13 14 15 16 17 18 19 19 19 19 19 18 18 16 13 12 11 11 10 9 8 7 6 6 4 3 2 2 2 3 3 3 3 3 3 4 3 3 3 3 3 4
4 4 3 5 6 7 9 12 13 14 15 16 17 18 18 18 19 18 18 17 16 14 12 12 12 11 10 9 8 7 6 5 4 3 3 3 3 4 4 4 4 4 5 5 5 5 5 5 6
7 4 2 4 5 5 6 9 12 13 14 15 16 16 17 17 17 17 17 17 16 15 12 12 12 11 11 10 9 8 6 6 5 4 3 4 4 4 5 5 5 5 5 6 6 7 7 7 7
7 6 4 4 5 5 6 7 8 11 13 14 14 15 16 16 16 16 16 16 15 14 13 12 11 11 10 10 10 9 8 7 6 6 5 5 5 6 6 6 6 5 6 7 7 7 7 8 9
8 8 7 5 6 7 8 10 10 9 10 13 14 14 15 16 15 15 15 15 14 13 13 13 12 11 11 11 11 10 9 8 8 7 7 6 6 7 7 7 6 7 7 8 8 9 9 10 10
9 8 9 8 7 6 9 12 11 10 9 11 13 13 14 15 14 14 14 14 13 13 13 13 12 11 11 11 11 11 10 9 8 9 8 8 8 8 8 8 8 8 9 9 10 10 11 11 11
11 10 9 8 7 7 9 12 13 11 10 10 11 12 12 14 14 13 13 13 13 13 13 13 12 12 11 11 12 11 10 10 10 10 9 8 9 9 9 9 9 10 10 10 11 12 12 13 13
13 11 10 7 8 11 10 10 13 12 10 10 9 9 10 11 12 13 12 12 13 13 13 13 13 13 12 12 13 12 12 11 11 11 11 10 10 10 10 10 11 11 11 11 12 13 13 14 14
13 11 9 9 11 14 12 10 12 14 13 11 11 10 9 10 11 11 12 12 12 13 13 13 13 13 13 13 14 13 13 12 12 12 12 11 12 11 11 11 11 11 12 12 13 14 14 14 15
15 12 12 12 12 13 12 11 13 12 13 12 12 10 9 10 10 11 11 11 12 12 13 13 14 13 14 14 15 14 13 13 12 13 13 13 13 13 12 12 12 12 13 13 14 14 14 15 16
15 15 14 15 15 15 13 14 14 12 11 12 12 10 9 9 9 10 11 12 12 12 12 12 13 13 14 14 15 15 14 14 13 13 13 13 13 13 13 14 14 14 14 14 14 14 14 15 16
19 15 15 17 15 15 14 15 15 12 11 12 12 12 10 10 9 10 11 12 12 13 13 13 13 13 14 15 15 15 15 15 15 15 15 14 14 14 15 14 14 14 13 13 13 14 14 15 16
19 18 18 17 17 14 16 17 18 11 10 11 13 12 12 10 10 10 11 12 12 13 13 13 13 13 14 15 15 16 16 16 16 16 16 16 16 16 16 15 15 15 15 15 15 15 15 16 17
19 19 19 19 17 15 16 19 18 15 14 13 13 13 13 12 12 12 12 13 13 13 13 13 12 13 14 15 15 16 16 17 17 17 17 17 17 17 17 17 16 16 16 16 17 17 17 17 17

GEFSSGP_500_meanwind_216.txt.gz
Wind_Speed
21 21 21 21 22 21 21 20 19 18 16 16 15 13 12 11 9 8 8 8 7 7 6 5 5 6 5 5 5 5 5 4 4 4 4 5 5 5 5 5 5 5 6 6 6 7 7 8 9
22 22 22 23 23 22 21 21 19 18 17 16 14 13 12 11 10 9 9 9 8 7 7 7 6 6 5 4 5 5 5 4 3 4 5 5 5 4 5 5 5 5 6 5 5 7 7 8 8
21 22 22 24 24 23 23 21 20 20 18 16 15 13 12 11 11 10 10 10 9 8 7 6 6 6 6 5 5 4 4 3 4 4 5 5 4 4 4 5 5 5 6 6 5 6 7 8 8
20 22 23 24 23 23 22 21 21 20 18 17 16 14 12 12 12 10 11 11 10 10 8 7 6 6 6 5 5 5 4 4 4 5 6 5 4 4 4 5 5 5 6 6 6 6 8 9 9
19 22 24 24 23 23 22 21 20 19 18 17 16 15 14 13 12 11 10 11 11 10 9 8 7 6 6 6 6 5 5 5 5 6 6 6 5 5 5 5 5 5 5 6 6 7 7 8 8
18 21 22 23 23 23 22 22 20 19 19 18 17 15 14 13 13 12 11 11 11 10 10 10 8 7 6 7 7 6 6 6 7 7 7 6 6 5 5 5 5 5 5 6 7 7 7 7 7
19 20 20 22 22 22 22 21 20 20 19 19 18 16 15 14 13 12 12 11 11 10 10 10 10 8 8 8 8 8 8 8 8 8 7 6 6 5 5 5 5 5 5 5 6 6 7 7 7
18 19 19 20 20 21 22 20 21 21 20 19 19 18 16 15 14 13 12 12 11 10 10 9 10 9 8 8 8 8 8 9 8 8 7 6 5 5 5 5 5 5 5 5 5 6 7 6 6
17 17 19 20 19 20 20 20 21 21 21 20 20 19 17 16 15 14 13 12 11 10 10 10 10 9 9 9 9 8 9 9 8 7 7 6 6 5 5 5 5 5 4 5 5 5 6 5 5
15 15 18 19 19 19 19 19 21 22 21 20 20 19 18 17 16 15 14 12 12 11 10 9 9 9 8 8 8 8 8 8 7 7 7 6 6 5 5 5 5 5 4 4 4 5 5 5 5
12 13 16 17 19 19 19 19 20 21 21 20 20 19 18 17 16 15 15 14 13 12 11 10 9 9 8 8 8 8 7 7 6 6 6 6 5 5 4 4 4 4 4 4 4 4 4 4 5
10 12 14 15 17 18 19 19 20 21 21 21 20 18 17 17 17 16 15 14 13 12 11 11 10 9 9 8 8 8 7 7 6 6 6 5 4 4 4 4 4 4 4 4 4 4 4 4 4
9 11 12 13 15 18 19 19 19 20 21 21 20 19 17 17 17 17 15 14 14 12 12 11 10 9 9 8 8 7 6 6 6 5 5 4 4 3 3 3 4 4 4 4 4 3 3 4 4
8 8 9 11 12 15 16 17 18 20 21 21 20 19 19 18 18 18 16 15 14 12 11 11 10 9 8 8 7 6 5 5 5 4 4 3 3 2 2 2 2 2 2 3 3 3 3 3 3
6 6 7 8 10 12 14 16 18 19 20 21 20 19 19 19 19 18 17 16 14 13 11 11 10 10 9 8 7 6 5 5 4 4 3 3 2 1 1 2 2 2 2 3 3 3 3 3 4
5 5 5 7 9 11 13 16 17 18 18 19 20 20 19 18 19 18 17 16 15 14 13 12 11 10 9 9 8 7 6 5 4 3 3 3 2 1 0 2 2 2 3 3 3 3 4 4 5
2 2 5 6 7 9 12 13 15 16 17 18 18 18 19 18 18 18 17 16 16 15 14 13 12 11 10 9 8 7 6 5 5 4 4 3 3 2 2 1 2 2 3 3 4 4 5 5 5
2 2 4 6 7 7 9 12 13 15 17 17 18 18 18 18 18 18 16 16 15 15 14 13 12 11 10 10 9 8 6 5 5 4 3 2 2 2 2 1 1 2 3 4 4 4 5 6 6
4 3 3 5 6 5 7 10 11 13 15 16 16 17 17 17 17 17 16 15 15 14 14 13 12 12 11 10 9 8 7 5 4 3 3 3 3 2 2 2 2 3 3 4 5 5 6 6 7
6 5 3 4 4 6 7 8 9 10 12 13 14 15 16 16 16 15 15 15 15 14 13 13 12 11 11 10 9 8 7 6 5 5 4 5 4 3 3 4 4 4 5 5 6 7 7 7 8
8 6 3 3 4 6 7 7 8 9 11 11 13 13 14 14 14 13 14 14 14 14 13 13 12 11 10 9 9 8 8 7 6 5 5 5 5 4 4 5 5 6 7 7 8 8 9 9 10
10 7 5 5 6 8 8 10 8 9 9 10 11 12 12 12 13 12 12 12 13 13 13 13 12 12 11 10 9 9 8 8 7 7 6 6 6 5 5 5 6 7 8 8 9 9 10 11 11
13 10 8 7 8 10 10 11 9 8 9 10 10 10 10 11 12 11 10 10 11 12 13 12 12 12 11 10 10 10 9 8 8 8 8 8 7 6 6 6 6 7 8 8 9 10 11 12 12
13 12 11 10 10 11 10 12 10 9 8 8 8 9 9 9 10 10 10 10 11 11 11 11 11 11 11 11 10 10 10 9 9 9 9 9 9 8 7 7 7 8 8 9 10 11 11 11 12
15 15 14 12 12 12 12 13 12 9 8 9 9 8 7 8 8 8 8 9 10 11 11 11 10 11 11 10 11 10 10 10 10 9 10 10 10 9 9 8 8 8 8 9 10 11 11 12 12
15 17 16 15 14 13 13 14 14 11 10 9 8 7 7 7 7 6 7 8 9 10 11 11 11 12 11 11 11 11 11 11 11 11 11 11 10 10 10 9 9 9 9 10 10 10 11 12 13
17 17 17 17 16 16 15 14 14 12 12 11 8 7 9 8 7 6 7 8 9 10 10 11 11 11 11 10 10 10 10 11 11 11 12 11 11 11 10 10 10 10 9 10 10 11 12 12 13
17 16 17 18 18 19 17 15 14 13 11 10 8 7 8 7 6 7 6 7 9 9 10 11 11 11 10 10 10 10 11 11 11 11 11 12 12 12 11 11 11 11 11 11 11 11 12 13 13
20 20 19 19 19 19 18 16 13 11 9 9 8 8 8 7 8 8 7 7 9 10 11 11 11 11 11 11 11 11 12 12 12 11 12 12 13 13 12 12 13 12 12 12 12 12 13 13 13
21 21 21 21 20 21 21 18 14 12 11 10 9 9 9 9 8 8 8 8 9 10 11 12 12 12 13 13 14 14 13 13 13 13 13 13 14 14 14 14 14 14 13 13 13 13 13 14 15

GEFSSGP_500_meanwind_222.txt.gz
Wind_Speed
23 21 21 21 21 20 20 21 21 20 18 17 15 13 12 11 10 9 8 7 7 6 5 6 6 6 6 7 6 7 7 7 7 7 6 6 5 5 5 5 5 5 4 5 5 5 5 7 8
23 22 21 22 21 20 20 21 21 19 18 17 15 13 12 11 11 10 9 8 7 7 7 7 7 7 7 7 7 6 7 7 6 6 6 6 5 5 5 5 5 5 4 5 4 4 5 7 8
22 22 22 22 22 22 21 21 21 19 18 18 16 14 12 11 11 10 10 8 8 8 7 7 7 7 7 7 7 6 7 7 7 6 6 6 5 5 5 5 5 5 4 4 4 4 5 7 7
21 23 23 23 22 23 22 22 22 20 19 18 17 15 12 11 11 10 10 8 8 8 8 8 8 8 7 7 7 6 6 7 6 6 6 6 6 5 5 5 5 4 4 4 4 4 5 7 7
21 22 23 23 23 23 24 24 23 22 20 18 17 15 13 12 11 10 10 9 8 8 9 9 9 8 7 7 7 6 5 6 6 6 6 7 6 6 5 5 5 4 4 4 4 5 5 6 6
22 22 22 24 24 24 24 24 24 22 21 19 18 16 14 12 11 11 10 10 9 9 9 9 9 8 8 7 6 5 5 6 7 7 7 7 7 6 5 5 4 4 4 4 4 5 6 6 6
22 22 22 23 24 24 24 24 24 23 21 20 18 16 14 12 12 11 11 11 10 10 10 10 9 8 8 8 7 7 7 7 8 7 7 7 6 6 5 5 4 4 4 4 4 5 5 5 6
21 21 21 23 24 24 24 24 23 22 22 20 19 17 15 13 12 12 11 11 11 11 10 10 9 9 9 9 9 9 9 9 9 8 6 6 6 6 5 5 4 3 3 3 4 4 4 5 5
19 20 21 22 23 23 23 23 22 22 22 21 19 18 16 14 12 11 11 11 11 11 10 10 9 9 9 10 10 10 10 9 9 7 6 6 6 6 5 4 4 4 4 4 3 3 4 4 4
16 18 20 21 21 21 22 23 23 22 22 21 20 18 17 15 13 12 12 11 11 10 10 10 10 10 10 10 9 9 9 9 8 7 7 6 6 6 5 4 4 4 4 3 3 4 3 3 3
13 15 17 19 19 20 21 22 23 22 22 21 20 19 17 15 13 13 12 12 11 10 10 10 10 10 9 9 9 9 8 8 7 7 6 6 5 5 4 4 4 4 3 3 3 3 3 2 2
12 14 14 16 17 18 20 21 22 22 22 21 20 19 17 16 13 12 12 12 12 10 10 10 10 9 9 8 8 7 7 7 6 6 5 5 4 4 3 3 3 2 2 2 2 2 3 2 2
9 12 12 13 15 17 18 19 21 21 21 20 19 18 18 16 15 13 12 11 11 11 10 9 9 9 9 8 7 7 7 6 6 5 4 4 3 2 2 2 2 1 1 1 1 2 3 3 3
7 8 10 12 14 15 17 18 19 19 20 20 19 18 18 16 15 14 12 12 11 11 10 10 9 9 9 8 7 7 6 6 5 5 4 3 2 1 1 1 1 2 2 2 2 3 3 4 4
5 6 8 10 12 14 15 15 17 17 18 18 18 18 18 17 15 14 13 12 12 11 11 10 9 9 8 7 7 6 6 5 5 4 4 3 3 1 1 1 1 2 2 2 3 3 3 4 4
2 4 6 9 10 12 13 14 14 14 15 16 17 17 18 18 16 14 13 12 12 12 11 11 10 9 8 8 7 6 6 5 4 4 3 3 3 2 2 1 1 2 3 3 4 4 4 5 5
2 1 3 6 8 10 11 11 12 12 14 14 16 17 17 16 16 15 13 13 13 12 12 11 10 9 9 8 7 7 6 5 5 4 3 3 2 2 2 2 2 2 3 4 5 5 5 5 6
4 3 2 4 7 8 9 9 10 10 12 12 13 15 16 16 16 16 15 14 13 12 12 11 10 10 9 8 7 6 6 4 4 3 3 3 3 2 2 3 3 4 4 5 5 6 6 7 7
7 5 4 4 6 7 7 8 9 9 11 12 12 12 13 14 14 15 15 14 13 12 11 11 10 9 8 8 7 6 5 4 4 3 3 4 4 3 4 4 4 4 4 5 7 7 8 8 9
10 8 6 5 4 4 6 7 8 9 10 10 10 10 10 11 12 13 13 13 13 12 11 10 9 9 9 8 7 6 5 5 4 4 4 4 5 5 5 5 5 6 6 6 7 8 9 10 10
12 10 8 6 5 4 5 6 7 8 9 9 9 9 8 9 9 11 12 12 12 12 11 10 9 9 9 8 7 7 7 7 5 4 4 5 5 5 6 6 6 7 7 7 8 8 9 11 12
14 13 11 9 7 6 6 6 6 7 8 8 8 8 7 8 8 8 9 10 11 11 11 10 10 10 10 9 9 8 7 7 6 6 6 6 6 6 6 7 7 8 8 8 9 9 10 11 12
16 15 14 13 11 9 8 6 5 6 6 7 7 7 6 7 6 6 7 8 9 9 10 10 10 9 9 9 9 9 8 8 8 7 7 8 8 7 7 7 8 8 8 8 9 9 10 11 12
18 17 16 16 15 12 9 8 7 7 6 7 7 6 6 7 6 6 6 6 6 7 8 9 9 9 9 9 9 9 9 9 9 9 9 8 8 8 7 7 8 8 8 9 10 10 11 11 12
19 19 17 17 16 13 11 10 8 7 7 7 7 6 6 7 6 6 6 5 6 6 7 8 8 8 9 9 9 9 9 9 9 9 9 9 9 9 9 8 8 9 9 9 10 10 11 12 12
20 19 18 17 16 15 14 12 10 9 9 8 8 8 7 7 7 7 7 6 5 6 7 8 8 8 8 8 8 9 10 10 10 10 10 10 10 10 10 9 10 10 10 10 10 10 11 12 13
22 21 19 18 18 18 17 14 12 12 10 10 10 10 9 9 8 7 7 7 6 6 7 7 8 9 9 9 9 9 10 10 10 10 10 11 11 11 10 10 11 11 11 11 11 11 11 12 12
24 23 21 21 20 19 19 16 14 13 13 12 12 11 10 9 8 8 8 7 6 6 6 7 8 9 10 9 10 10 10 11 11 11 12 12 12 12 11 11 12 11 12 12 11 11 12 13 13
25 25 24 23 22 21 19 17 15 14 13 12 11 11 12 10 9 9 9 9 8 7 7 7 8 10 11 10 10 11 11 12 12 13 13 13 13 12 12 12 12 12 12 12 12 13 13 14 14
27 26 25 24 23 22 21 19 16 15 14 12 12 11 11 11 11 11 10 10 9 9 8 8 9 10 11 11 11 12 12 13 14 14 14 14 13 12 11 12 13 13 13 13 13 14 14 15 15

GEFSSGP_500_meanwind_228.txt.gz
Wind_Speed
21 21 21 20 21 19 17 16 16 14 13 13 12 12 11 10 9 9 8 8 8 8 7 7 7 6 7 8 8 9 9 9 10 10 10 9 8 9 8 8 8 8 8 8 8 7 7 7 8
22 22 21 22 22 18 18 17 16 15 14 13 13 12 11 11 10 9 8 8 8 8 7 7 8 7 7 8 9 9 10 10 9 9 9 9 9 9 8 8 8 8 8 8 7 7 6 7 7
21 21 22 23 20 19 19 18 18 17 15 14 14 13 12 11 11 10 9 9 8 8 7 6 7 7 8 8 9 10 10 10 10 9 9 9 9 9 8 8 8 7 8 8 7 6 5 6 8
21 22 23 22 20 20 20 19 19 18 17 15 15 13 13 12 11 10 10 10 9 8 7 6 6 7 7 8 8 9 9 10 9 9 9 8 8 8 8 8 7 7 7 7 7 6 6 6 8
20 23 23 21 21 20 20 20 20 20 18 16 15 14 12 11 11 11 10 10 9 8 7 6 6 6 7 7 7 8 9 9 9 9 8 8 8 8 9 8 8 7 7 7 6 6 6 7 8
20 22 20 20 20 21 21 21 21 21 19 17 16 14 13 11 11 11 10 9 9 8 7 7 7 7 7 6 6 7 8 8 9 9 8 7 8 9 8 8 7 7 7 7 6 6 5 7 7
20 20 19 19 20 20 20 20 21 21 20 18 17 15 13 12 11 11 10 9 9 8 7 7 7 6 6 6 6 6 7 8 8 8 8 7 8 8 8 8 7 7 7 6 6 6 6 6 6
18 19 18 19 20 20 20 20 21 21 21 19 18 16 14 13 11 10 10 9 9 8 7 7 6 7 6 6 6 7 8 8 8 8 8 8 7 7 7 7 6 6 7 6 6 6 6 6 6
17 18 16 18 19 19 20 20 21 21 21 20 19 17 15 13 11 10 10 9 9 9 8 8 7 7 8 7 7 8 9 9 9 8 8 8 7 7 6 6 6 6 6 6 5 5 5 6 6
16 15 15 17 18 19 20 20 20 21 21 20 19 18 16 14 12 11 10 10 9 8 8 9 8 8 8 8 8 9 9 9 8 8 7 7 7 6 6 5 5 5 5 5 5 5 4 5 6
13 13 14 15 17 18 19 20 20 20 21 20 19 18 17 15 13 11 11 10 9 9 9 8 9 8 8 8 9 9 9 8 7 7 6 5 5 5 5 4 4 4 4 4 4 5 4 5 6
11 12 13 14 16 17 18 18 19 20 19 19 18 18 16 15 13 12 11 10 10 9 9 9 8 8 8 8 8 8 7 7 6 6 5 4 4 4 4 4 4 3 3 4 3 3 4 4 5
10 11 12 13 15 16 17 18 18 18 18 18 18 17 17 15 13 11 11 10 10 9 9 9 8 8 8 7 7 7 7 6 6 5 4 4 3 3 3 3 3 3 3 3 4 3 4 4 4
8 10 10 12 13 14 15 16 17 17 17 17 18 17 16 16 14 12 11 10 9 9 8 8 8 8 8 7 7 7 6 6 5 5 4 3 2 2 2 2 2 2 2 2 3 3 3 3 3
6 7 9 10 11 12 13 15 15 15 15 16 16 16 16 15 15 13 11 10 10 9 9 9 8 8 8 7 6 6 5 5 4 4 3 3 2 2 1 1 2 2 2 2 2 3 3 3 4
4 6 7 8 9 11 12 13 13 14 14 14 15 15 15 15 14 13 12 11 10 10 9 9 9 8 8 7 6 5 5 5 4 4 3 3 2 2 1 0 1 2 3 3 3 3 4 4 5
2 3 4 5 7 8 10 11 12 12 13 13 14 14 14 14 14 13 12 11 10 10 9 9 8 8 7 7 6 5 4 4 4 3 3 2 2 2 2 1 1 3 4 4 4 4 5 6 6
3 1 1 4 5 6 8 9 10 10 11 11 12 12 13 13 13 13 12 11 10 10 9 9 8 8 7 7 6 5 4 3 3 2 2 2 1 2 2 2 2 3 4 5 6 6 7 7 7
5 3 2 3 4 5 6 7 8 8 9 10 10 10 11 11 12 12 12 11 10 9 9 8 8 7 6 6 6 6 5 4 3 2 2 2 2 3 3 4 4 5 6 7 7 7 7 8 8
7 5 4 4 5 4 4 5 6 7 7 8 9 9 9 9 10 10 11 11 10 9 9 8 8 7 6 6 6 6 6 5 4 3 3 3 3 4 4 4 5 5 6 6 7 8 8 8 8
9 7 7 6 6 5 4 4 4 6 7 7 8 8 7 8 9 9 10 10 10 9 9 8 8 7 7 7 6 6 6 6 5 4 5 5 5 4 5 5 5 5 6 6 7 8 9 9 10
11 10 8 7 6 6 3 2 5 5 6 6 7 7 6 7 8 8 9 9 8 8 8 8 7 7 6 6 6 6 6 6 6 6 6 6 6 5 5 5 5 6 6 6 7 7 8 9 10
14 12 11 9 8 6 6 4 5 5 5 6 6 6 6 6 7 8 8 9 8 8 8 8 7 7 6 6 6 7 7 7 7 7 8 8 7 7 7 7 7 7 7 7 8 8 9 9 10
16 14 13 11 9 8 8 6 5 7 6 5 5 5 5 6 7 8 8 8 8 8 8 8 8 7 7 6 7 7 7 8 8 8 8 9 9 9 8 8 8 8 8 8 8 9 10 11 11
18 15 12 10 10 10 10 8 7 8 7 6 6 6 5 6 7 7 8 9 9 8 8 8 7 7 7 7 7 8 8 8 8 9 9 10 10 10 10 10 9 9 9 9 10 10 10 11 12
20 16 14 11 10 10 12 10 9 9 8 7 7 7 6 6 7 8 8 9 9 9 8 8 7 7 7 8 8 8 9 9 9 9 10 11 11 11 11 11 11 10 10 11 11 11 11 11 12
21 19 16 14 12 11 12 11 10 9 9 8 9 8 8 8 8 9 9 9 10 10 9 9 8 8 8 8 9 9 9 10 10 10 11 12 12 12 12 12 12 11 11 11 11 12 12 12 12
23 21 18 16 15 13 14 13 12 10 10 10 10 9 9 9 9 9 9 9 10 10 10 9 9 9 9 9 10 10 10 11 11 11 12 13 13 13 13 14 13 13 13 12 12 13 13 13 13
25 24 22 19 18 15 14 14 13 13 12 11 11 10 9 10 10 10 10 10 11 11 10 10 9 9 9 10 11 11 11 12 12 13 14 14 14 14 14 14 14 13 13 13 13 14 14 14 15
25 24 23 21 20 19 17 16 16 15 14 13 12 11 11 11 12 12 12 12 12 11 11 11 11 11 11 12 12 12 13 13 14 14 15 15 15 15 14 14 14 14 14 14 14 14 15 15 16

GEFSSGP_500_meanwind_234.txt.gz
Wind_Speed
20 21 21 20 21 17 12 11 10 8 7 7 6 6 5 4 4 3 2 3 4 4 4 4 5 5 5 4 4 4 5 6 6 7 7 7 8 8 8 8 8 7 7 7 7 7 7 7 8
20 20 21 23 19 14 13 12 11 9 9 8 7 7 6 5 5 4 4 4 4 4 5 5 5 5 5 4 4 5 5 5 6 6 6 7 7 7 7 7 7 7 6 6 7 6 6 6 7
21 21 24 21 15 13 13 12 11 10 9 9 8 8 7 6 6 5 5 4 4 4 5 5 5 5 5 4 4 4 4 4 5 5 5 6 7 7 6 6 6 6 5 6 6 6 5 6 6
21 25 25 17 15 15 14 13 12 11 10 9 9 8 7 7 6 6 6 5 4 4 4 5 5 5 5 5 5 5 4 4 5 5 5 5 6 6 6 6 5 5 5 5 5 4 4 5 6
22 25 19 15 14 15 14 14 13 12 11 11 10 8 8 8 8 7 7 6 5 4 5 6 6 5 5 5 5 4 4 4 5 5 5 5 5 5 5 5 5 5 4 3 3 3 4 5 6
24 21 14 14 15 16 16 15 14 13 12 12 11 10 9 9 8 8 7 6 6 5 5 4 4 5 5 5 5 4 4 4 4 5 5 4 5 5 5 4 5 4 4 3 2 2 3 5 6
21 19 14 13 14 15 15 15 14 14 13 13 13 12 11 10 9 8 7 7 6 5 5 4 4 3 4 5 4 4 4 4 4 4 4 4 4 4 5 4 4 4 3 3 2 3 4 5 6
17 16 13 11 12 14 14 14 14 14 14 14 13 13 12 11 10 8 8 8 7 6 5 4 4 4 4 4 4 4 4 4 4 3 3 4 4 5 5 4 4 3 3 3 2 3 4 5 5
15 13 11 10 11 12 14 15 15 15 15 15 14 14 13 12 11 9 8 8 8 8 6 5 5 5 4 4 3 3 4 4 4 4 4 4 4 3 4 4 3 3 3 2 2 3 4 4 5
10 10 9 9 11 12 14 15 16 15 16 15 15 15 13 12 12 11 11 9 8 8 8 7 7 6 6 4 3 3 3 3 4 4 4 4 3 3 2 3 3 2 2 2 1 1 3 4 5
9 9 8 10 11 13 13 15 16 16 16 16 15 15 14 13 12 12 11 11 10 9 9 8 8 7 6 6 5 4 4 4 3 3 3 3 2 2 2 2 2 2 2 2 1 1 2 3 4
7 8 9 10 12 14 14 15 16 17 16 15 15 15 15 14 13 12 12 12 11 9 9 8 8 7 7 7 6 5 5 4 3 3 3 2 2 1 1 1 2 2 2 2 1 1 2 2 4
7 7 9 10 12 13 14 15 15 16 17 16 15 15 15 15 14 13 12 12 11 10 9 8 8 8 7 7 6 5 4 3 3 3 2 2 1 1 1 2 2 2 2 2 2 2 2 3 3
5 6 7 9 11 12 13 14 14 15 17 17 16 16 16 16 14 13 13 12 12 11 10 9 9 8 7 7 6 5 5 4 3 3 2 2 1 2 1 1 2 2 2 2 2 2 3 3 4
3 4 5 7 9 10 10 13 14 15 16 16 16 16 16 16 15 14 14 13 12 12 11 10 9 8 7 7 6 6 5 5 4 4 3 3 2 2 2 2 2 3 4 3 3 3 3 4 5
3 3 4 6 8 9 10 12 14 14 15 15 15 15 15 15 15 14 14 13 12 12 12 11 10 8 7 7 6 5 5 5 4 4 4 3 3 3 3 4 3 4 4 4 4 4 4 5 5
2 3 4 5 7 8 9 11 12 14 14 14 14 14 14 14 14 15 14 13 12 12 11 11 10 9 8 8 7 6 5 5 5 4 4 4 4 4 4 4 4 4 4 4 4 5 5 5 5
2 3 4 3 4 7 8 9 11 13 13 13 13 13 13 13 14 14 14 13 12 12 11 11 10 9 8 7 7 7 6 6 6 5 5 5 5 5 5 5 5 5 5 5 5 5 6 6 6
4 5 4 4 2 4 7 8 9 11 12 12 12 12 12 12 13 13 13 13 12 12 12 11 10 9 9 8 9 8 7 6 6 5 6 6 6 6 6 7 7 7 6 6 6 7 7 8 7
6 6 7 7 4 3 6 8 8 9 10 11 12 11 11 11 11 12 13 13 12 12 12 12 11 9 9 8 8 8 8 7 7 7 6 6 6 6 7 7 8 7 7 7 7 7 8 8 8
9 8 8 8 8 6 6 8 8 8 9 9 10 9 9 10 10 11 11 12 12 12 12 11 11 10 9 9 9 9 8 8 8 8 8 7 7 7 7 8 9 8 8 8 8 8 8 9 9
11 9 9 9 9 9 7 11 10 11 8 8 8 9 8 8 9 10 10 11 11 11 11 11 11 11 10 10 9 9 9 9 9 8 8 8 8 8 8 9 9 9 9 9 9 9 9 9 9
12 11 12 10 10 10 8 11 11 12 10 8 7 8 8 8 8 9 10 10 11 11 11 11 11 10 10 10 10 9 9 9 10 10 9 9 9 9 9 10 10 10 10 10 11 10 10 10 11
14 13 12 11 11 12 10 11 13 15 13 11 7 8 8 9 9 9 10 10 11 11 10 10 11 11 10 10 10 10 10 10 10 10 10 10 9 9 10 11 11 11 11 11 12 12 11 11 11
17 14 11 12 14 14 11 11 14 14 14 11 7 7 9 10 9 9 10 11 11 11 10 10 11 11 11 11 10 11 11 11 11 10 10 11 11 11 12 12 13 13 13 12 12 12 12 12 12
17 16 15 14 15 16 13 15 13 12 13 11 8 9 9 10 10 10 10 11 11 11 10 10 11 11 12 11 11 11 12 12 11 11 11 12 12 13 14 14 14 14 13 13 13 12 13 13 13
19 18 16 16 16 17 17 15 12 12 11 11 10 10 9 10 11 11 11 11 11 11 10 9 11 11 12 11 12 12 13 12 12 12 12 13 13 14 14 15 15 15 14 14 14 14 14 14 14
22 19 17 17 18 18 17 18 16 14 12 11 11 11 10 12 12 12 11 12 12 12 12 11 11 11 12 12 12 13 13 13 13 13 13 13 14 14 15 16 16 16 16 15 15 15 15 15 15
19 20 20 19 18 17 18 19 18 14 11 13 13 13 12 13 13 12 12 13 13 13 13 13 13 13 13 13 13 14 14 13 14 14 14 14 15 15 16 17 17 17 17 16 16 16 16 16 17
20 21 20 20 20 19 20 21 17 15 14 14 15 14 13 14 14 14 14 14 14 14 13 13 14 14 14 14 15 15 14 15 15 15 15 15 16 16 17 17 18 18 18 17 17 17 18 18 18